[[{"header":{"parameterUnit":"m.s-1","parameterCategory":1,"la1":31.0,"la2":29.5877,"lo1":-88.7671,"lo2":-86.6584,"dy":0.0162,"dx":0.0185,"nx":115,"ny":88,"refTime":"2024-03-16T00:00:00:Z","depth":0,"parameterNumber":2,"parameterNumberName":"U-component_of_WINDS"},"data":[0.0,0.0,0.0,0.0,0.0,0.0,0.0,0.0,0.0,0.0,0.0,0.0,0.0,0.0,0.0,0.0,0.0,0.0,0.0,0.0,0.0,0.0,0.0,0.0,0.0,0.0,0.0,0.0,0.0,0.0,0.0,0.0,0.0,0.0,0.0,0.0,0.0,0.0,0.0,0.0,0.0,0.0,0.0,0.0,0.0,0.0,0.0,0.0,0.0,0.0,0.0,0.0,0.0,0.0,0.0,0.0,0.0,0.0,0.0,0.0,0.0,0.0,0.0,0.0,0.0,0.0,0.0,0.0,0.0,0.0,0.0,0.0,0.0,0.0,0.0,0.0,0.0,0.0,0.0,0.0,0.0,0.0,0.0,0.0,0.0,0.0,0.0,0.0,0.0,0.0,0.0,0.0,0.0,0.0,0.0,0.0,0.0,0.0,0.0,0.0,0.0,0.0,0.0,0.0,0.0,0.0,0.0,0.0,0.0,0.0,0.0,0.0,0.0,0.0,0.0,0.0,0.0,0.0,0.0,0.0,0.0,0.0,0.0,0.0,0.0,0.0,0.0,0.0,0.0,0.0,0.0,0.0,0.0,0.0,0.0,0.0,0.0,0.0,0.0,0.0,0.0,0.0,0.0,0.0,0.0,0.0,0.0,0.0,0.0,0.0,0.0,0.0,0.0,0.0,0.0,0.0,0.0,0.0,0.0,0.0,0.0,0.0,0.0,0.0,0.0,0.0,0.0,0.0,0.0,0.0,0.0,0.0,0.0,0.0,0.0,0.0,0.0,0.0,0.0,0.0,0.0,0.0,0.0,0.0,0.0,0.0,0.0,0.0,0.0,0.0,0.0,0.0,0.0,0.0,0.0,0.0,0.0,0.0,0.0,0.0,0.0,0.0,0.0,0.0,0.0,0.0,0.0,0.0,0.0,0.0,0.0,0.0,0.0,0.0,0.0,0.0,0.0,0.0,0.0,0.0,0.0,0.0,0.0,0.0,0.0,0.0,0.0,0.0,0.0,0.0,0.0,0.0,0.0,0.0,0.0,0.0,0.0,0.0,0.0,0.0,0.0,0.0,0.0,0.0,0.0,0.0,0.0,0.0,0.0,0.0,0.0,0.0,0.0,0.0,0.0,0.0,0.0,0.0,0.0,0.0,0.0,0.0,0.0,0.0,0.0,0.0,0.0,0.0,0.0,0.0,0.0,0.0,0.0,0.0,0.0,0.0,0.0,0.0,0.0,0.0,0.0,0.0,0.0,0.0,0.0,0.0,0.0,0.0,0.0,0.0,0.0,0.0,0.0,0.0,0.0,0.0,0.0,0.0,0.0,0.0,0.0,0.0,0.0,0.0,0.0,0.0,0.0,0.0,0.0,0.0,0.0,0.0,0.0,0.0,0.0,0.0,0.0,0.0,0.0,0.0,0.0,0.0,0.0,0.0,0.0,0.0,0.0,0.0,0.0,0.0,0.0,0.0,0.0,0.0,0.0,0.0,0.0,0.0,0.0,0.0,0.0,0.0,0.0,0.0,0.0,0.0,0.0,0.0,0.0,0.0,0.0,0.0,0.0,0.0,0.0,0.0,0.0,0.0,0.0,0.0,0.0,0.0,0.0,0.0,0.0,0.0,0.0,0.0,0.0,0.0,0.0,0.0,0.0,0.0,0.0,0.0,0.0,0.0,0.0,0.0,0.0,0.0,0.0,0.0,0.0,0.0,0.0,0.0,0.0,0.0,0.0,0.0,0.0,0.0,0.0,0.0,0.0,0.0,0.0,0.0,0.0,0.0,0.0,0.0,0.0,0.0,0.0,0.0,0.0,0.0,0.0,0.0,0.0,0.0,0.0,0.0,0.0,0.0,0.0,0.0,0.0,0.0,0.0,0.0,0.0,0.0,0.0,0.0,0.0,0.0,0.0,0.0,0.0,0.0,0.0,0.0,0.0,0.0,0.0,0.0,0.0,0.0,0.0,0.0,0.0,0.0,0.0,0.0,0.0,0.0,0.0,0.0,0.0,0.0,0.0,0.0,0.0,0.0,0.0,0.0,0.0,0.0,0.0,0.0,0.0,0.0,0.0,0.0,0.0,0.0,0.0,0.0,0.0,0.0,0.0,0.0,0.0,0.0,0.0,0.0,0.0,0.0,0.0,0.0,0.0,0.0,0.0,0.0,0.0,0.0,0.0,0.0,0.0,0.0,0.0,0.0,0.0,0.0,0.0,0.0,0.0,0.0,0.0,0.0,0.0,0.0,0.0,0.0,0.0,0.0,0.0,0.0,0.0,0.0,0.0,0.0,0.0,0.0,0.0,0.0,0.0,0.0,0.0,0.0,0.0,0.0,0.0,0.0,0.0,0.0,0.0,0.0,0.0,0.0,0.0,0.0,0.0,0.0,0.0,0.0,0.0,0.0,0.0,0.0,0.0,0.0,0.0,0.0,0.0,0.0,0.0,0.0,0.0,0.0,0.0,0.0,0.0,0.0,0.0,0.0,0.0,0.0,0.0,0.0,0.0,0.0,0.0,0.0,0.0,0.0,0.0,0.0,0.0,0.0,0.0,0.0,0.0,0.0,0.0,0.0,0.0,0.0,0.0,0.0,0.0,0.0,0.0,0.0,0.0,0.0,0.0,0.0,0.0,0.0,0.0,0.0,0.0,0.0,0.0,0.0,0.0,0.0,0.0,0.0,0.0,0.0,0.0,0.0,0.0,0.0,0.0,0.0,0.0,0.0,0.0,0.0,0.0,0.0,0.0,0.0,0.0,0.0,0.0,0.0,0.0,0.0,0.0,0.0,0.0,0.0,0.0,0.0,0.0,0.0,0.0,0.0,0.0,0.0,0.0,0.0,0.0,0.0,0.0,0.0,0.0,0.0,0.0,0.0,0.0,0.0,0.0,0.0,0.0,0.0,0.0,0.0,0.0,0.0,0.0,0.0,0.0,0.0,0.0,0.0,0.0,0.0,0.0,0.0,0.0,0.0,0.0,0.0,0.0,0.0,0.0,0.0,0.0,0.0,0.0,0.0,0.0,0.0,0.0,0.0,0.0,0.0,0.0,0.0,0.0,0.0,0.0,0.0,0.0,0.0,0.0,0.0,0.0,0.0,0.0,0.0,0.0,0.0,0.0,0.0,0.0,0.0,0.0,0.0,0.0,0.0,0.0,0.0,0.0,0.0,0.0,0.0,0.0,0.0,0.0,0.0,0.0,0.0,0.0,0.0,0.0,0.0,0.0,0.0,0.0,0.0,0.0,0.0,0.0,0.0,0.0,0.0,0.0,0.0,0.0,0.0,0.0,0.0,0.0,0.0,0.0,0.0,0.0,0.0,0.0,0.0,0.0,0.0,0.0,0.0,0.0,0.0,0.0,0.0,0.0,0.0,0.0,0.0,0.0,0.0,0.0,0.0,0.0,0.0,0.0,0.0,0.0,0.0,0.0,0.0,0.0,0.0,0.0,0.0,0.0,0.0,0.0,0.0,0.0,0.0,0.0,0.0,0.0,0.0,0.0,0.0,0.0,0.0,0.0,0.0,0.0,0.0,0.0,0.0,0.0,0.0,0.0,0.0,0.0,0.0,0.0,0.0,0.0,0.0,0.0,0.0,0.0,0.0,0.0,0.0,0.0,0.0,0.0,0.0,0.0,0.0,0.0,0.0,0.0,0.0,0.0,0.0,0.0,0.0,0.0,0.0,0.0,0.0,0.0,0.0,0.0,0.0,0.0,0.0,0.0,0.0,0.0,0.0,0.0,0.0,0.0,0.0,0.0,0.0,0.0,0.0,0.0,0.0,0.0,0.0,0.0,0.0,0.0,0.0,0.0,0.0,0.0,0.0,0.0,0.0,0.0,0.0,0.0,0.0,0.0,0.0,0.0,0.0,0.0,0.0,0.0,0.0,0.0,0.0,0.0,0.0,0.0,0.0,0.0,0.0,0.0,0.0,0.0,0.0,0.0,0.0,0.0,0.0,0.0,0.0,0.0,0.0,0.0,0.0,0.0,0.0,0.0,0.0,0.0,0.0,0.0,0.0,0.0,0.0,0.0,0.0,0.0,0.0,0.0,0.0,0.0,0.0,0.0,0.0,0.0,0.0,0.0,0.0,0.0,0.0,0.0,0.0,0.0,0.0,0.0,0.0,0.0,0.0,0.0,0.0,0.0,0.0,0.0,0.0,0.0,0.0,0.0,0.0,0.0,0.0,0.0,0.0,0.0,0.0,0.0,0.0,0.0,0.0,0.0,0.0,0.0,0.0,0.0,0.0,0.0,0.0,0.0,0.0,0.0,0.0,0.0,0.0,-0.3499,0.0,0.0,0.0,0.0,0.0,0.0,0.0,0.0,0.0,0.0,0.0,0.0,0.0,0.0,0.0,0.0,0.0,0.0,0.0,0.0,0.0,0.0,0.0,0.0,0.0,0.0,0.0,0.0,0.0,0.0,0.0,0.0,0.0,0.0,0.0,0.0,0.0,0.0,0.0,0.0,0.0,0.0,0.0,0.0,0.0,0.0,0.0,0.0,0.0,0.0,0.0,0.0,0.0,0.0,0.0,0.0,0.0,0.0,0.0,0.0,0.0,0.0,0.0,0.0,0.0,0.0,0.0,0.0,0.0,0.0,0.0,0.0,0.0,0.0,0.0,0.0,0.0,0.0,0.0,0.0,0.0,0.0,0.0,0.0,0.0,0.0,0.0,0.0,0.0,0.0,0.0,0.0,0.0,0.0,0.0,0.0,0.0,0.0,0.0,0.0,0.0,0.0,0.0,0.0,0.0,0.0,0.0,0.0,0.0,0.0,-0.272,-0.2658,-0.2652,-0.271,-0.2895,0.0,0.0,0.0,0.0,0.0,0.0,0.0,0.0,0.0,0.0,0.0,0.0,0.0,0.0,0.0,0.0,0.0,0.0,0.0,0.0,0.0,0.0,0.0,0.0,0.0,0.0,0.0,0.0,0.0,0.0,0.0,0.0,0.0,0.0,0.0,0.0,0.0,0.0,0.0,0.0,0.0,0.0,0.0,0.0,0.0,0.0,0.0,0.0,0.0,0.0,0.0,0.0,0.0,0.0,0.0,0.0,0.0,0.0,0.0,0.0,0.0,0.0,0.0,0.0,0.0,0.0,0.0,0.0,0.0,0.0,0.0,0.0,0.0,0.0,0.0,0.0,0.0,0.0,0.0,0.0,0.0,0.0,0.0,0.0,0.0,0.0,0.0,0.0,0.0,0.0,0.0,0.0,0.0,0.0,0.0,0.0,0.0,0.0,0.0,0.0,0.0,0.0,0.0,0.0,0.0,0.0,0.0,0.0,0.0,0.0,0.0,0.0,-0.2285,-0.2253,-0.2249,0.0,0.0,0.0,0.0,0.0,0.0,0.0,0.0,0.0,0.0,0.0,0.0,0.0,0.0,0.0,0.0,0.0,0.0,0.0,0.0,0.0,0.0,0.0,0.0,0.0,0.0,0.0,0.0,0.0,0.0,0.0,0.0,0.0,0.0,0.0,0.0,0.0,0.0,0.0,0.0,0.0,0.0,0.0,0.0,0.0,0.0,0.0,0.0,0.0,0.0,0.0,0.0,0.0,0.0,0.0,0.0,0.0,0.0,0.0,0.0,0.0,0.0,0.0,0.0,0.0,0.0,0.0,0.0,0.0,0.0,0.0,0.0,0.0,0.0,0.0,0.0,0.0,0.0,0.0,0.0,0.0,0.0,0.0,0.0,0.0,0.0,0.0,0.0,0.0,0.0,0.0,0.0,0.0,0.0,0.0,0.0,0.0,0.0,0.0,0.0,0.0,0.0,0.0,0.0,0.0,0.0,0.0,0.0,0.0,0.0,-0.1915,-0.1882,-0.1864,0.0,-0.1792,0.0,0.0,0.0,0.0,0.0,0.0,0.0,0.0,0.0,0.0,0.0,0.0,0.0,0.0,0.0,0.0,0.0,0.0,0.0,0.0,0.0,0.0,0.0,0.0,0.0,0.0,0.0,0.0,0.0,0.0,0.0,0.0,0.0,0.0,0.0,0.0,0.0,0.0,0.0,0.0,0.0,0.0,0.0,0.0,0.0,0.0,0.0,0.0,0.0,0.0,0.0,0.0,0.0,0.0,0.0,0.0,0.0,0.0,0.0,0.0,0.0,0.0,0.0,0.0,0.0,0.0,0.0,0.0,0.0,0.0,0.0,0.0,0.0,0.0,0.0,0.0,0.0,0.0,0.0,0.0,0.0,0.0,0.0,0.0,0.0,0.0,0.0,0.0,0.0,0.0,0.0,0.0,0.0,0.0,0.0,0.0,0.0,0.0,0.0,0.0,0.0,0.0,0.0,0.0,0.0,0.0,0.0,0.0,0.0,0.0,-0.1517,-0.1487,-0.1333,-0.1304,0.0,0.0,0.0,0.0,0.0,0.0,0.0,0.0,0.0,0.0,0.0,0.0,0.0,0.0,0.0,0.0,0.0,0.0,0.0,0.0,0.0,0.0,0.0,0.0,0.0,0.0,0.0,0.0,0.0,0.0,0.0,0.0,0.0,0.0,0.0,0.0,0.0,0.0,0.0,0.0,0.0,0.0,0.0,0.0,0.0,0.0,0.0,0.0,0.0,0.0,0.0,0.0,0.0,0.0,0.0,0.0,0.0,0.0,0.0,0.0,0.0,0.0,0.0,0.0,0.0,0.0,0.0,0.0,0.0,0.0,0.0,0.0,0.0,0.0,0.0,0.0,0.0,0.0,0.0,0.0,0.0,0.0,0.0,0.0,0.0,0.0,0.0,0.0,0.0,0.0,0.0,0.0,0.0,0.0,0.0,0.0,0.0,0.0,0.0,0.0,0.0,0.0,0.0,0.0,0.0,0.0,0.0,0.0,0.0,0.0,-0.126,-0.1258,-0.1248,-0.1055,-0.0999,-0.1143,0.0,0.0,0.0,0.0,0.0,0.0,0.0,0.0,0.0,0.0,0.0,0.0,0.0,0.0,0.0,0.0,0.0,0.0,0.0,0.0,0.0,0.0,0.0,0.0,0.0,0.0,0.0,0.0,0.0,0.0,0.0,0.0,0.0,0.0,0.0,0.0,0.0,0.0,0.0,0.0,0.0,0.0,0.0,0.0,0.0,0.0,0.0,0.0,0.0,0.0,0.0,0.0,0.0,0.0,0.0,0.0,0.0,0.0,0.0,0.0,0.0,0.0,0.0,0.0,0.0,0.0,0.0,0.0,0.0,0.0,0.0,0.0,0.0,0.0,0.0,0.0,0.0,0.0,0.0,0.0,0.0,0.0,0.0,0.0,0.0,0.0,0.0,0.0,0.0,0.0,0.0,0.0,0.0,0.0,0.0,0.0,0.0,0.0,0.0,0.0,0.0,0.0,0.0,0.0,0.0,0.0,0.0,0.0,-0.112,-0.1117,-0.1117,-0.1119,-0.1115,-0.1048,0.0,0.0,0.0,0.0,0.0,0.0,0.0,0.0,0.0,0.0,0.0,0.0,0.0,0.0,0.0,0.0,0.0,0.0,0.0,0.0,0.0,0.0,0.0,0.0,0.0,0.0,0.0,0.0,0.0,0.0,0.0,0.0,0.0,0.0,0.0,0.0,0.0,0.0,0.0,0.0,0.0,0.0,0.0,0.0,0.0,0.0,0.0,0.0,0.0,0.0,0.0,0.0,0.0,0.0,0.0,0.0,0.0,0.0,0.0,0.0,0.0,0.0,0.0,0.0,0.0,0.0,0.0,0.0,0.0,0.0,0.0,0.0,0.0,0.0,0.0,0.0,0.0,0.0,0.0,0.0,0.0,0.0,0.0,0.0,0.0,0.0,0.0,0.0,0.0,0.0,0.0,0.0,0.0,0.0,0.0,0.0,0.0,0.0,0.0,0.0,0.0,0.0,0.0,0.0,0.0,0.0,0.0,0.0,0.0,-0.112,-0.0987,-0.0987,-0.1073,-0.0918,-0.0898,0.0,0.0,0.0,0.0,0.0,0.0,0.0,0.0,0.0,0.0,0.0,0.0,0.0,0.0,0.0,0.0,0.0,0.0,0.0,0.0,0.0,0.0,0.0,0.0,0.0,0.0,0.0,0.0,0.0,0.0,0.0,0.0,0.0,0.0,0.0,0.0,0.0,0.0,0.0,0.0,0.0,0.0,0.0,0.0,0.0,0.0,0.0,0.0,0.0,0.0,0.0,0.0,0.0,0.0,0.0,0.0,0.0,0.0,0.0,0.0,0.0,0.0,0.0,0.0,0.0,0.0,0.0,0.0,0.0,0.0,0.0,0.0,0.0,0.0,0.0,0.0,0.0,0.0,0.0,0.0,0.0,0.0,0.0,0.0,0.0,0.0,0.0,0.0,0.0,0.0,0.0,0.0,0.0,0.0,0.0,0.0,0.0,0.0,0.0,0.0,0.0,0.0,0.0,0.0,0.0,0.0,0.0,0.0,0.0,-0.0761,0.0,-0.0627,-0.0715,-0.0567,-0.0602,0.0,0.0,0.0,0.0,0.0,0.0,0.0,0.0,0.0,0.0,0.0,0.0,0.0,0.0,0.0,0.0,0.0,0.0,0.0,0.0,0.0,0.0,0.0,0.0,0.0,0.0,0.0,0.0,0.0,0.0,0.0,0.0,0.0,0.0,0.0,0.0,0.0,0.0,0.0,0.0,0.0,0.0,0.0,0.0,0.0,0.0,0.0,0.0,0.0,0.0,0.0,0.0,0.0,0.0,0.0,0.0,0.0,0.0,0.0,0.0,0.0,0.0,0.0,0.0,0.0,0.0,0.0,0.0,0.0,0.0,0.0,0.0,0.0,0.0,0.0,0.0,0.0,0.0,0.0,0.0,0.0,0.0,0.0,0.0,0.0,0.0,0.0,0.0,0.0,0.0,0.0,0.0,0.0,0.0,0.0,0.0,0.0,0.0,0.0,0.0,0.0,0.0,0.0,0.0,0.0,0.0,0.0,0.0,-0.0584,-0.0045,-0.0,-0.0,-0.0,-0.0,-0.0224,0.0,0.0,0.0,0.0,0.0,0.0,0.0,0.0,0.0,0.0,0.0,0.0,0.0,0.0,0.0,0.0,0.0,0.0,0.0,0.0,0.0,0.0,0.0,0.0,0.0,0.0,0.0,0.0,0.0,0.0,0.0,0.0,0.0,0.0,0.0,0.0,0.0,0.0,0.0,0.0,0.0,0.0,0.0,0.0,0.0,0.0,0.0,0.0,0.0,0.0,0.0,0.0,0.0,0.0,0.0,0.0,0.0,0.0,0.0,0.0,0.0,0.0,0.0,0.0,0.0,0.0,0.0,0.0,0.0,0.0,0.0,0.0,0.0,0.0,0.0,0.0,0.0,0.0,0.0,0.0,0.0,0.0,0.0,0.0,0.0,0.0,0.0,0.0,0.0,0.0,0.0,0.0,0.0,0.0,0.0,0.0,0.0,0.0,0.0,0.0,0.0,0.0,0.0,0.0,0.0,0.0,0.0,0.0,0.0,0.0493,0.0598,0.0607,0.0606,0.0545,0.0317,0.0,0.0,0.0,0.0,0.0,0.0,0.0,0.0,0.0,0.0,0.0,0.0,0.0,0.0,0.0,0.0,0.0,0.0,0.0,0.0,0.0,0.0,0.0,0.0,0.0,0.0,0.0,0.0,0.0,0.0,0.0,0.0,0.0,0.0,0.0,0.0,0.0,0.0,0.0,0.0,0.0,0.0,0.0,0.0,0.0,0.0,0.0,0.0,0.0,0.0,0.0,0.0,0.0,0.0,0.0,0.0,0.0,0.0,0.0,0.0,0.0,0.0,0.0,0.0,0.0,0.0,0.0,0.0,0.0,0.0,0.0,0.0,0.0,0.0,0.0,0.0,0.0,0.0,0.0,0.0,0.0,0.0,0.0,0.0,0.0,0.0,0.0,0.0,0.0,0.0,0.0,0.0,0.0,0.0,0.0,0.0,0.0,0.0,0.0,0.0,0.0,0.0,0.0,0.0,0.0,0.0,0.0,0.0,0.0,0.1441,0.1342,0.1259,0.1241,0.1163,0.0853,0.0326,0.0,0.0,0.0,0.0,0.0,0.0,0.0,0.0,0.0,0.0,0.0,0.0,0.0,0.0,0.0,0.0,0.0,0.0,0.0,0.0,0.0,0.0,0.0,0.0,0.0,0.0,0.0,0.0,0.0,0.0,0.0,0.0,0.0,0.0,0.0,0.0,0.0,0.0,0.0,0.0,0.0,0.0,0.0,0.0,0.0,0.0,0.0,0.0,0.0,0.0,0.0,0.0,0.0,0.0,0.0,0.0,0.0,0.0,0.0,0.0,0.0,0.0,0.0,0.0,0.0,0.0,0.0,0.0,0.0,0.0,0.0,0.0,0.0,0.0,0.0,0.0,0.0,0.0,0.0,0.0,0.0,0.0,0.0,0.0,0.0,0.0,0.0,0.0,0.0,0.0,0.0,0.0,0.0,0.0,0.0,0.0,0.0,0.0,0.0,0.0,0.0,0.0,0.0,0.0,0.0,0.0,0.0,0.0,0.263,0.2287,0.2069,0.1886,0.1862,0.1518,0.0,0.0,0.0,0.0,0.0,0.0,0.0,0.0,0.0,0.0,0.0,0.0,0.0,0.0,0.0,0.0,0.0,0.0,0.0,0.0,0.0,0.0,0.0,0.0,0.0,0.0,0.0,0.0,0.0,0.0,0.0,0.0,0.0,0.0,0.0,0.0,0.0,0.0,0.0,0.0,0.0,0.0,0.0,0.0,0.0,0.0,0.0,0.0,0.0,0.0,0.0,0.0,0.0,0.0,0.0,0.0,0.0,0.0,0.0,0.0,0.0,0.0,0.0,0.0,0.0,0.0,0.0,0.0,0.0,0.0,0.0,0.0,0.0,0.0,0.0,0.0,0.0,0.0,0.0,0.0,0.0,0.0,0.0,0.0,0.0,0.0,0.0,0.0,0.0,0.0,0.0,0.0,0.0,0.0,0.0,0.0,0.0,0.0,0.0,0.0,0.0,0.0,0.0,0.0,0.0,0.0,0.0,0.0,0.0,0.3212,0.3394,0.3309,0.2766,0.2518,0.2171,0.0,0.0,0.0,0.0,0.0,0.0,0.0,0.0,0.0,0.0,0.0,0.0,0.0,0.0,0.0,0.0,0.0,0.0,0.0,0.0,0.0,0.0,0.0,0.0,0.0,0.0,0.0,0.0,0.0,0.0,0.0,0.0,0.0,0.0,0.0,0.0,0.0,0.0,0.0,0.0,0.0,0.0,0.0,0.0,0.0,0.0,0.0,0.0,0.0,0.0,0.0,0.0,0.0,0.0,0.0,0.0,0.0,0.0,0.0,0.0,0.0,0.0,0.0,0.0,0.0,0.0,0.0,0.0,0.0,0.0,0.0,0.0,0.0,0.0,0.0,0.0,0.0,0.0,0.0,0.0,0.0,0.0,0.0,0.0,0.0,0.0,0.0,0.0,0.0,0.0,0.0,0.0,0.0,0.0,0.0,0.0,0.0,0.0,0.0,0.0,0.0,0.0,0.0,0.0,0.0,0.0,0.0,0.0,0.3125,0.3261,0.3608,0.3745,0.3517,0.3184,0.2843,0.0,0.0,0.0,0.0,0.0,0.0,0.0,0.0,0.0,0.0,0.0,0.0,0.0,0.0,0.0,0.0,0.0,0.0,0.0,0.0,0.0,0.0,0.0,0.0,0.0,0.0,0.0,0.0,0.0,0.0,0.0,0.0,0.0,0.0,0.0,0.0,0.0,0.0,0.0,0.0,0.0,0.0,0.0,0.0,0.0,0.0,0.0,0.0,0.0,0.0,0.0,0.0,0.0,0.0,0.0,0.0,0.0,0.0,0.0,0.0,0.0,0.0,0.0,0.0,0.0,0.0,0.0,0.0,0.0,0.0,0.0,0.0,0.0,0.0,0.0,0.0,0.0,0.0,0.0,0.0,0.0,0.0,0.0,0.0,0.0,0.0,0.0,0.0,0.0,0.0,0.0,0.0,0.0,0.0,0.0,0.0,0.0,0.0,0.0,0.0,0.0,0.0,0.0,0.0,0.0,0.0,0.0,0.0,0.3053,0.3245,0.3528,0.3828,0.4133,0.3806,0.3413,0.0,0.0,0.0,0.0,0.0,0.0,0.0,0.0,0.0,0.0,0.0,0.0,0.0,0.0,0.0,0.0,0.0,0.0,0.0,0.0,0.0,0.0,0.0,0.0,0.0,0.0,0.0,0.0,0.0,0.0,0.0,0.0,0.0,0.0,0.0,0.0,0.0,0.0,0.0,0.0,0.0,0.0,0.0,0.0,0.0,0.0,0.0,0.0,0.0,0.0,0.0,0.0,0.0,0.0,0.0,0.0,0.0,0.0,0.0,0.0,0.0,0.0,0.0,0.0,0.0,0.0,0.0,0.0,0.0,0.0,0.0,0.0,0.0,0.0,0.0,0.0,0.0,0.0,0.0,0.0,0.0,0.0,0.0,0.0,0.0,0.0,0.0,0.0,0.0,0.0,0.0,0.0,0.0,0.0,0.0,0.0,0.0,0.0,0.0,0.0,0.0,0.0,0.0,0.0,0.0,0.0,0.0,0.0,0.3806,0.4185,0.453,0.4732,0.4776,0.3939,0.3381,0.0,0.0,0.0,0.0,0.0,0.0,0.0,0.0,0.0,0.0,0.0,0.0,0.0,0.0,0.0,0.0,0.0,0.0,0.0,0.0,0.0,0.0,0.0,0.0,0.0,0.0,0.0,0.0,0.0,0.0,0.0,0.0,0.0,0.0,0.0,0.0,0.0,0.0,0.0,0.0,0.0,0.0,0.0,0.0,0.0,0.0,0.0,0.0,0.3598,0.0,0.0,0.0,0.0,0.0,0.0,0.0,0.0,0.0,0.0,0.0,0.0,0.0,0.0,0.0,0.0,0.0,0.0,0.0,0.0,0.0,0.0,0.0,0.0,0.0,0.0,0.0,0.0,0.0,0.0,0.0,0.0,0.0,0.0,0.0,0.0,0.0,0.0,0.0,0.0,0.0,0.0,0.0,0.0,0.0,0.0,0.0,0.0,0.0,0.0,0.0,0.0,0.0,0.0,0.0,0.0,0.0,0.0,0.0,0.3871,0.4338,0.4553,0.4779,0.4841,0.4182,0.3781,0.0,0.0,0.0,0.0,0.0,0.0,0.0,0.0,0.0,0.0,0.0,0.0,0.0,0.0,0.0,0.0,0.0,0.0,0.0,0.0,0.0,0.0,0.0,0.0,0.0,0.0,0.0,0.0,0.0,0.0,0.0,0.0,0.0,0.0,0.0,0.0,0.0,0.0,0.0,0.0,0.0,0.0,0.0,0.0,0.0,0.0,0.0,0.0,0.0,0.0,0.0,0.0,0.0,0.0,0.0,0.0,0.0,0.0,0.0,0.0,0.0,0.0,0.0,0.0,0.0,0.0,0.0,0.0,0.0,0.0,0.0,0.0,0.0,0.0,0.0,0.0,0.0,0.0,0.0,0.0,0.0,0.0,0.0,0.0,0.0,0.0,0.0,0.0,0.0,0.0,0.0,0.0,0.0,0.0,0.0,0.0,0.0,0.0,0.0,0.0,0.0,0.0,0.0,0.0,0.0,0.0,0.0,0.3579,0.3828,0.4259,0.4373,0.4543,0.4696,0.4487,0.4232,0.392,0.0,0.0,0.0,0.0,0.0,0.0,0.0,0.0,0.0,0.0,0.0,0.0,0.0,0.0,0.0,0.0,0.0,0.0,0.0,0.0,0.0,0.0,0.0,0.0,0.0,0.0,0.0,0.0,0.0,0.0,0.0,0.0,0.0,0.0,0.0,0.0,0.0,0.0,0.2307,0.2663,0.0,0.0,0.0,0.0,0.0,0.0,0.0,0.0,0.4213,0.0,0.0,0.0,0.0,0.0,0.0,0.0,0.0,0.0,0.0,0.0,0.0,0.0,0.0,0.0,0.0,0.0,0.0,0.0,0.0,0.0,0.0,0.0,0.0,0.0,0.0,0.0,0.0,0.0,0.0,0.0,0.0,0.0,0.0,0.0,0.0,0.0,0.0,0.0,0.0,0.0,0.0,0.0,0.0,0.0,0.0,0.0,0.0,0.0,0.0,0.0,0.0,0.0,0.0,0.0,0.0,0.3955,0.3864,0.4154,0.4862,0.4916,0.4937,0.4932,0.4704,0.4477,0.4102,0.0,0.0,0.0,0.0,0.0,0.0,0.0,0.0,0.0,0.0,0.0,0.0,0.0,0.0,0.0,0.0,0.0,0.0,0.0,0.0,0.0,0.0,0.0,0.0,0.0,0.0,0.0,0.0,0.0,0.0,0.0,0.0,0.0,0.0,0.0,0.0,0.0,0.0,0.0,0.2936,0.3056,0.0,0.0,0.0,0.0,0.0,0.0,0.0,0.0,0.5092,0.0,0.0,0.0,0.0,0.0,0.0,0.0,0.0,0.0,0.0,0.0,0.0,0.0,0.0,0.0,0.0,0.0,0.0,0.0,0.0,0.0,0.0,0.0,0.0,0.0,0.0,0.0,0.0,0.0,0.0,0.0,0.0,0.0,0.0,0.0,0.0,0.0,0.0,0.0,0.0,0.0,0.0,0.0,0.0,0.0,0.0,0.0,0.0,0.0,0.0,0.0,0.0,0.0,0.0,0.0,0.4091,0.4243,0.4567,0.508,0.5048,0.5018,0.5012,0.4781,0.4485,0.0,0.0,0.0,0.0,0.0,0.0,0.0,0.0,0.0,0.0,0.0,0.0,0.0,0.0,0.0,0.0,0.0,0.0,0.0,0.0,0.0,0.0,0.0,0.0,0.0,0.0,0.0,0.0,0.0,0.0,0.0,0.0,0.0,0.0,0.0,0.0,0.0,0.0,0.0,0.0,0.4143,0.4376,0.4601,0.0,0.0,0.0,0.0,0.0,0.0,0.591,0.5687,0.0,0.0,0.0,0.0,0.0,0.0,0.0,0.0,0.0,0.0,0.0,0.0,0.0,0.0,0.0,0.0,0.0,0.0,0.0,0.0,0.0,0.0,0.0,0.0,0.0,0.0,0.0,0.0,0.0,0.0,0.0,0.0,0.0,0.0,0.0,0.0,0.0,0.0,0.0,0.0,0.0,0.0,0.0,0.0,0.0,0.0,0.0,0.0,0.0,0.0,0.0,0.0,0.0,0.0,0.0,0.4115,0.4493,0.4863,0.5203,0.5135,0.5089,0.5083,0.4784,0.4471,0.0,0.0,0.0,0.0,0.0,0.0,0.0,0.0,0.0,0.0,0.0,0.0,0.0,0.0,0.0,0.0,0.0,0.0,0.0,0.0,0.0,0.0,0.0,0.0,0.0,0.0,0.0,0.0,0.0,0.0,0.0,0.0,0.0,0.0,0.0,0.0,0.0,0.0,0.0,0.0,0.0,0.5599,0.5637,0.5595,0.0,0.0,0.0,0.0,0.6638,0.6589,0.0,0.0,0.0,0.0,0.0,0.0,0.0,0.0,0.0,0.0,0.0,0.0,0.0,0.0,0.0,0.0,0.0,0.0,0.0,0.0,0.0,0.0,0.0,0.0,0.0,0.0,0.0,0.0,0.0,0.0,0.0,0.0,0.0,0.0,0.0,0.0,0.0,0.0,0.0,0.0,0.0,0.0,0.0,0.0,0.0,0.0,0.0,0.0,0.0,0.0,0.0,0.0,0.0,0.0,0.0,0.0,0.4121,0.4577,0.4988,0.5328,0.5333,0.5328,0.5322,0.4784,0.4423,0.0,0.0,0.0,0.0,0.0,0.0,0.0,0.0,0.0,0.0,0.0,0.0,0.0,0.0,0.0,0.0,0.0,0.0,0.0,0.0,0.0,0.0,0.0,0.0,0.0,0.0,0.0,0.0,0.0,0.0,0.0,0.0,0.0,0.0,0.0,0.0,0.0,0.0,0.0,0.0,0.0,0.5817,0.5566,0.5702,0.5906,0.0,0.0,0.7563,0.7926,0.8623,0.0,0.0,0.0,0.0,0.0,0.0,0.0,0.0,0.0,0.0,0.0,0.0,0.0,0.0,0.0,0.0,0.0,0.0,0.0,0.0,0.0,0.0,0.0,0.0,0.0,0.0,0.0,0.0,0.0,0.0,0.0,0.0,0.0,0.0,0.0,0.0,0.0,0.0,0.0,0.0,0.0,0.0,0.0,0.0,0.0,0.0,0.0,0.0,0.0,0.0,0.0,0.0,0.0,0.0,0.0,0.3996,0.4232,0.4828,0.5249,0.5461,0.5404,0.5371,0.5368,0.4784,0.4447,0.0,0.0,0.0,0.0,0.0,0.0,0.0,0.0,0.0,0.0,0.0,0.0,0.0,0.0,0.0,0.0,0.0,0.0,0.0,0.0,0.0,0.0,0.0,0.0,0.0,0.0,0.0,0.0,0.0,0.0,0.0,0.0,0.0,0.0,0.0,0.0,0.0,0.0,0.0,0.0,0.0,0.0,0.705,0.7223,0.0,0.0,0.0,0.821,0.8371,0.0,0.0,0.0,0.0,0.0,0.0,0.0,0.0,0.0,0.0,0.0,0.0,0.0,0.0,0.0,0.0,0.0,0.0,0.0,0.0,0.0,0.0,0.0,0.0,0.0,0.0,0.0,0.0,0.0,0.0,0.0,0.0,0.0,0.0,0.0,0.0,0.0,0.0,0.0,0.0,0.0,0.0,0.0,0.0,0.0,0.0,0.0,0.0,0.0,0.0,0.0,0.0,0.0,0.0,0.0,0.0,0.0,0.4314,0.5067,0.5504,0.5589,0.5507,0.5461,0.545,0.4934,0.0,0.0,0.0,0.0,0.0,0.0,0.0,0.0,0.0,0.0,0.0,0.0,0.0,0.0,0.0,0.0,0.0,0.0,0.0,0.0,0.0,0.0,0.0,0.0,0.0,0.0,0.0,0.3605,0.0,0.0,0.0,0.0,0.0,0.0,0.0,0.0,0.0,0.0,0.0,0.0,0.0,0.0,0.8016,0.8191,0.8458,0.8689,0.0,0.0,0.8802,0.8861,0.9357,0.9357,0.0,0.0,0.0,0.0,0.0,0.0,0.0,0.0,0.0,0.0,0.0,0.0,0.0,0.0,0.0,0.0,0.0,0.0,0.0,0.0,0.0,0.0,0.0,0.0,0.0,0.0,0.0,0.0,0.0,0.0,0.0,0.0,0.0,0.0,0.0,0.0,0.0,0.0,0.0,0.0,0.0,0.0,0.0,0.0,0.0,0.0,0.0,0.0,0.0,0.0,0.0,0.0,0.0,0.0,0.0,0.4336,0.523,0.5708,0.5722,0.5716,0.5708,0.5703,0.5339,0.4925,0.0,0.0,0.0,0.0,0.0,0.0,0.0,0.0,0.0,0.0,0.0,0.0,0.0,0.0,0.0,0.0,0.0,0.0,0.0,0.0,0.0,0.0,0.0,0.0,0.0,0.0,0.0,0.0,0.0,0.0,0.0,0.0,0.0,0.0,0.0,0.0,0.0,0.0,0.0,0.0,0.0,0.8393,0.824,0.8727,0.9157,0.0,0.0,0.9583,0.9793,1.0509,1.0659,0.905,0.0,0.0,0.0,0.0,0.0,0.0,0.0,0.0,0.0,0.0,0.0,0.0,0.0,0.0,0.0,0.0,0.0,0.0,0.0,0.0,0.0,0.0,0.0,0.0,0.0,0.0,0.0,0.0,0.0,0.0,0.0,0.0,0.0,0.0,0.0,0.0,0.0,0.0,0.0,0.0,0.0,0.0,0.0,0.0,0.0,0.0,0.0,0.0,0.0,0.0,0.0,0.0,0.0,0.4414,0.4314,0.5246,0.5733,0.5733,0.5733,0.5733,0.5733,0.5377,0.4996,0.0,0.0,0.0,0.0,0.0,0.0,0.0,0.0,0.0,0.0,0.0,0.0,0.0,0.0,0.0,0.0,0.0,0.0,0.0,0.0,0.0,0.0,0.0,0.0,0.0,0.0,0.0,0.0,0.5957,0.5925,0.5894,0.0,0.0,0.0,0.0,0.0,0.0,0.0,0.0,0.0,0.0,0.8635,0.9048,0.9513,0.0,0.0,1.0078,1.0153,0.9949,1.0476,1.0396,0.8894,0.8646,0.0,0.0,0.0,0.0,0.0,0.0,0.0,0.0,0.0,0.0,0.0,0.0,0.0,0.0,0.0,0.0,0.0,0.0,0.0,0.0,0.0,0.0,0.0,0.0,0.0,0.0,0.0,0.0,0.0,0.0,0.0,0.0,0.0,0.0,0.0,0.0,0.0,0.0,0.0,0.0,0.0,0.0,0.0,0.0,0.0,0.0,0.0,0.0,0.0,0.0,0.0,0.0,0.4466,0.4357,0.5262,0.5733,0.5733,0.5733,0.5733,0.5727,0.5485,0.5181,0.0,0.0,0.0,0.0,0.0,0.0,0.0,0.0,0.0,0.0,0.0,0.0,0.0,0.0,0.0,0.0,0.0,0.0,0.0,0.0,0.0,0.0,0.0,0.0,0.0,0.0,0.0,0.0,0.6794,0.6663,0.593,0.0,0.0,0.0,0.0,0.0,0.0,0.0,0.0,0.0,0.0,0.9087,0.9523,0.9927,1.0159,1.0089,1.0148,1.0137,0.9949,1.0196,1.0056,0.9007,0.0,0.0,0.0,0.0,0.0,0.0,0.0,0.0,0.0,0.0,0.0,0.0,0.0,0.0,0.0,0.0,0.0,0.0,0.0,0.0,0.0,0.0,0.0,0.0,0.0,0.0,0.0,0.0,0.0,0.0,0.0,0.0,0.0,0.0,0.0,0.0,0.0,0.0,0.0,0.0,0.0,0.0,0.0,0.0,0.0,0.0,0.0,0.0,0.0,0.0,0.0,0.0,0.0,0.4657,0.4549,0.5301,0.5733,0.5733,0.5733,0.5733,0.5733,0.5722,0.5548,0.5175,0.0,0.0,0.0,0.0,0.0,0.0,0.0,0.0,0.0,0.0,0.0,0.0,0.0,0.0,0.0,0.0,0.0,0.0,0.0,0.0,0.0,0.0,0.0,0.0,0.0,0.0,0.4895,0.5477,0.5911,0.0,0.0,0.0,0.0,0.0,0.0,0.0,0.0,0.0,0.0,0.9297,0.9803,0.961,0.9782,0.9868,0.9669,0.9427,0.941,0.9863,0.9927,0.9852,0.0,0.0,0.0,0.0,0.0,0.0,0.0,0.0,0.0,0.0,0.0,0.0,0.0,0.0,0.0,0.0,0.0,0.0,0.0,0.0,0.0,0.0,0.0,0.0,0.0,0.0,0.0,0.3673,0.3644,0.0,0.0,0.0,0.0,0.0,0.0,0.0,0.0,0.0,0.0,0.0,0.773,0.7811,0.0,0.0,0.0,0.0,0.0,0.0,0.0,0.0,0.0,0.0,0.0,0.0,0.4662,0.4515,0.5306,0.5733,0.5733,0.5733,0.5733,0.5733,0.5733,0.5561,0.5195,0.0,0.0,0.0,0.0,0.0,0.0,0.0,0.0,0.0,0.0,0.0,0.0,0.0,0.0,0.0,0.0,0.0,0.0,0.0,0.0,0.0,0.0,0.0,0.0,0.0,0.6505,0.0,0.0,0.0,0.0,0.0,0.0,0.0,0.0,0.0,0.0,0.0,0.8178,0.8877,0.912,0.9303,0.9545,0.9771,1.0062,0.0,0.0,0.0,0.0,0.0,0.0,0.0,0.0,0.0,0.0,0.0,0.0,0.0,0.0,1.3504,1.2145,1.2334,1.2842,1.3476,0.0,0.0,0.0,0.0,0.0,0.0,0.0,0.0,0.0,0.0,0.0,0.0,0.0,0.0,0.0,0.0,0.3547,0.0,0.0,0.0,0.0,0.0,0.0,0.0,0.0,0.762,0.8291,0.8646,0.8727,0.8845,0.0,0.8581,0.7388,0.0,0.0,0.0,0.0,0.0,0.0,0.0,0.0,0.4613,0.464,0.5325,0.5733,0.5733,0.5733,0.5733,0.5733,0.5733,0.5621,0.5382,0.4953,0.4632,0.0,0.0,0.0,0.0,0.0,0.0,0.0,0.0,0.0,0.0,0.0,0.0,0.0,0.0,0.0,0.0,0.0,0.0,0.0,0.0,0.0,0.0,0.0,0.7025,0.0,0.0,0.0,0.0,0.0,0.0,0.0,0.0,0.0,0.793,0.8408,0.8845,0.9383,0.9534,0.9567,0.9459,0.0,0.0,0.0,0.0,0.0,0.0,0.0,0.9351,0.9209,0.9569,1.0372,1.1721,1.3314,1.4592,1.5231,0.0,0.0,1.4386,1.4361,1.4863,1.5368,1.5352,1.5292,1.5437,1.5463,1.5463,0.0,0.0,0.0,0.0,0.0,0.0,0.0,0.0,0.3994,0.4047,0.0,0.3875,0.0,0.0,0.0,0.0,0.0,0.0,0.0,0.0,0.9658,1.0245,0.9658,0.9846,0.9954,0.9873,0.8842,0.7897,0.704,0.6744,0.0,0.0,0.0,0.0,0.0,0.0,0.4734,0.4767,0.5379,0.5741,0.5741,0.5746,0.5746,0.5749,0.5749,0.5744,0.5725,0.5393,0.5148,0.5015,0.4357,0.0,0.0,0.0,0.0,0.0,0.0,0.0,0.0,0.0,0.0,0.0,0.0,0.0,0.0,0.0,0.0,0.0,0.0,0.0,0.0,0.7394,0.0,0.0,0.0,0.0,0.0,0.0,0.0,0.0,0.0,0.0,0.8316,0.9048,0.9647,0.9852,0.0,0.0,0.0,0.0,0.9954,0.9184,0.8937,0.9039,0.9303,0.9685,1.011,1.0562,0.0,0.0,1.3714,1.4344,1.4993,1.5622,1.7125,1.7912,1.7218,1.6664,1.6493,1.6901,1.6713,1.6584,1.6884,1.6987,1.6995,0.438,0.0,0.0,0.0,0.0,0.4531,0.4829,0.5094,0.5732,0.6053,0.6053,0.6209,0.0,0.0,0.0,0.0,0.0,0.0,0.858,0.9129,0.9622,1.0126,1.0584,1.0649,1.0772,1.0851,1.0538,0.997,0.9078,0.8275,0.6768,0.4513,0.0,0.0,0.0,0.0,0.4866,0.5053,0.5575,0.5855,0.5855,0.5939,0.5986,0.5986,0.5986,0.5945,0.5858,0.5752,0.5523,0.5154,0.5319,0.0,0.0,0.0,0.0,0.0,0.0,0.0,0.0,0.0,0.0,0.0,0.0,0.0,0.0,0.0,0.0,0.0,0.0,0.0,0.7633,0.811,0.8067,0.0,0.0,0.0,0.0,0.0,0.0,0.0,0.0,0.0,0.9249,0.9249,0.9335,0.0,0.0,0.9163,0.898,0.9432,0.9927,1.0315,0.0,0.0,0.0,1.0923,1.0865,1.1264,1.3498,1.5459,1.6034,1.7908,1.9438,1.9673,2.0133,2.036,2.0121,1.9144,1.8451,1.8494,1.8434,1.8391,1.8494,1.8528,1.8519,0.4797,0.4496,0.4404,0.4406,0.4466,0.4941,0.5262,0.5517,0.6096,0.6527,0.6889,0.6925,0.7306,0.801,0.8184,0.0,0.0,0.0,0.9604,1.0283,1.0283,1.0579,1.1112,1.1128,1.0947,1.0733,1.0386,0.9685,0.8803,0.7797,0.6361,0.4632,0.0,0.0,0.4346,0.4806,0.5116,0.5273,0.5733,0.5975,0.5975,0.6048,0.6086,0.6086,0.6086,0.6051,0.598,0.5975,0.582,0.5485,0.5664,0.5625,0.0,0.0,0.0,0.0,0.0,0.0,0.0,0.0,0.0,0.0,0.0,0.6995,0.0,0.0,0.0,0.0,0.82,0.8638,0.8532,0.8687,0.0,0.0,0.0,0.0,0.0,0.0,0.0,0.8506,0.9303,0.9863,0.9863,0.9814,0.9803,0.9895,0.983,0.9728,0.9583,0.0,1.0692,1.1079,1.109,1.1289,1.2026,1.1849,1.198,1.2865,1.4584,1.6476,1.7743,1.9374,2.0619,2.1213,2.1405,2.1405,2.1405,2.0651,2.0061,2.0061,2.0052,2.0061,2.0061,2.0052,2.0061,0.5175,0.5404,0.5181,0.5072,0.5045,0.5121,0.5245,0.5532,0.5624,0.6127,0.6847,0.6669,0.7234,0.8328,0.875,0.0,0.0,1.011,1.055,1.1084,1.1084,1.1089,1.1089,1.1084,1.0646,0.9767,0.8894,0.8025,0.7146,0.612,0.5427,0.5219,0.5216,0.5031,0.4711,0.5124,0.5363,0.539,0.5828,0.6075,0.6113,0.6113,0.6116,0.6116,0.6113,0.6111,0.6102,0.6102,0.6043,0.5915,0.5605,0.561,0.6,0.0,0.0,0.0,0.0,0.0,0.0,0.0,0.0,0.0,0.0,0.0,0.0,0.0,0.0,0.0,0.9432,0.0,0.9739,0.9171,0.0,0.0,0.0,0.8754,0.9211,0.948,0.9637,0.9637,0.0,0.0,0.0,0.0,1.0826,1.109,1.1424,1.1408,1.0701,1.1445,1.193,1.1553,1.1693,1.193,1.2274,1.2603,1.3374,1.466,1.5239,1.6432,1.854,1.945,2.0045,2.1252,2.1508,2.1525,2.1508,2.149,2.1499,2.1465,2.1396,2.1362,2.1293,2.1285,2.1259,0.5637,0.581,0.5752,0.5537,0.5369,0.593,0.6292,0.636,0.722,0.7697,0.787,0.7924,0.8179,0.8468,0.9303,0.934,0.8883,0.9616,0.9719,0.9152,0.9157,0.9157,0.9157,0.9157,0.9069,0.8807,0.8632,0.8082,0.7295,0.6962,0.6364,0.5474,0.5379,0.5238,0.4822,0.5083,0.532,0.5507,0.5711,0.5991,0.6339,0.6352,0.6352,0.6355,0.6352,0.6314,0.6227,0.6225,0.6168,0.6048,0.5958,0.5866,0.5642,0.5884,0.0,0.0,0.0,0.0,0.0,0.0,0.0,0.0,0.0,0.7816,0.683,0.0,0.8494,0.0,0.9691,1.0598,1.0854,1.0472,0.0,0.0,0.9325,0.9227,0.9701,0.997,1.0126,1.0126,1.0536,1.0891,1.1079,1.13,1.1671,1.2237,1.1655,1.1155,1.1182,1.1833,1.2361,1.2441,1.2764,1.3136,1.3335,1.3653,1.4179,1.5247,1.6599,1.8046,1.9294,2.074,2.187,2.2278,2.2278,2.2278,2.2252,2.2278,2.2261,2.2235,2.1824,2.1405,2.1405,2.1413,2.1413,0.5611,0.6083,0.5922,0.5689,0.5455,0.6011,0.6208,0.6215,0.6804,0.7353,0.7707,0.8237,0.8544,0.8544,0.9069,0.8986,0.8544,0.9069,0.9024,0.8565,0.8569,0.8609,0.8685,0.8685,0.8419,0.8057,0.8057,0.7647,0.6808,0.6716,0.6462,0.5793,0.5844,0.5657,0.5249,0.5203,0.5252,0.5388,0.5665,0.601,0.6418,0.6437,0.6361,0.6206,0.6198,0.607,0.5798,0.5784,0.5708,0.554,0.5529,0.5415,0.5159,0.5475,0.5659,0.0,0.0,0.0,0.0,0.0,0.0,0.0,0.0,0.0,0.0,0.0,0.9091,0.0,1.0064,0.0,1.0657,1.064,1.0506,1.0498,1.0399,1.0495,1.0983,1.1172,1.1237,1.1242,1.1484,1.1671,1.1817,1.2113,1.2457,1.2867,1.2533,1.2258,1.2323,1.2737,1.3087,1.3227,1.355,1.3836,1.397,1.4099,1.4515,1.5351,1.6393,1.764,1.931,2.0459,2.1505,2.2342,2.2653,2.2653,2.2653,2.2653,2.2653,2.2593,2.221,2.1953,2.191,2.1919,2.1919,0.5367,0.6045,0.5836,0.5655,0.5561,0.5741,0.5727,0.5643,0.564,0.6104,0.6939,0.7786,0.817,0.817,0.8347,0.8344,0.8167,0.8344,0.8422,0.8375,0.8378,0.8459,0.8509,0.8512,0.8139,0.7299,0.7299,0.6935,0.6111,0.6111,0.6092,0.6067,0.617,0.6043,0.5689,0.5368,0.5211,0.5214,0.5665,0.6053,0.6358,0.6325,0.6151,0.5852,0.5836,0.5632,0.5208,0.52,0.5108,0.4896,0.4896,0.4876,0.4883,0.5005,0.5133,0.0,0.586,0.0,0.0,0.0,0.0,0.0,0.0,0.0,0.0,0.9908,0.9746,0.9548,1.0519,1.0994,1.0278,1.057,1.0936,1.1347,1.1649,1.1889,1.232,1.2377,1.2334,1.2362,1.2379,1.2425,1.2501,1.2861,1.3104,1.3217,1.3475,1.3593,1.3599,1.3696,1.382,1.3868,1.4051,1.4143,1.4164,1.4186,1.4515,1.5351,1.5974,1.6711,1.9109,1.9945,2.057,2.203,2.2544,2.2653,2.2653,2.2653,2.2653,2.2644,2.261,2.2584,2.2593,2.2584,2.2653,0.5275,0.5167,0.5681,0.5802,0.5836,0.5954,0.5689,0.5154,0.5151,0.5397,0.586,0.6344,0.6575,0.6575,0.7313,0.7313,0.6572,0.731,0.7326,0.6611,0.6611,0.6623,0.6643,0.6646,0.6555,0.6367,0.6367,0.6325,0.6236,0.6236,0.6132,0.5942,0.5961,0.5795,0.0,0.0,0.0,0.0,0.5711,0.5937,0.5991,0.5719,0.554,0.5472,0.5472,0.0,0.5203,0.5284,0.5268,0.5132,0.5216,0.0,0.0,0.0,0.0,0.0,0.0,0.0,0.0,0.0,0.0,0.0,1.0719,1.0453,0.9928,1.0107,1.0456,1.1006,1.1289,1.1678,1.2117,1.2114,1.2037,1.2186,1.206,1.2068,1.2161,1.221,1.221,1.2417,1.2388,1.2565,1.2904,1.3055,1.3254,1.3599,1.376,1.3884,1.4029,1.4078,1.4116,1.4132,1.4164,1.4196,1.4196,1.4196,1.4617,1.5672,1.7022,1.806,1.9117,2.0775,2.1717,2.203,2.2241,2.2653,2.2653,2.2653,2.2653,2.2653,2.2653,2.2653,2.2653,2.2653,2.2653,0.5033,0.0,0.5478,0.5761,0.0,0.593,0.5689,0.5205,0.5442,0.5646,0.5825,0.6005,0.6086,0.6081,0.642,0.6365,0.5907,0.6323,0.6277,0.5991,0.5996,0.6089,0.6257,0.626,0.626,0.6257,0.6257,0.6293,0.6347,0.6352,0.6287,0.6165,0.6168,0.6075,0.5904,0.5896,0.5812,0.5635,0.5812,0.5988,0.6151,0.5988,0.5812,0.5643,0.0,0.0,0.0,0.0,0.0,0.0,0.0,0.0,0.0,0.0,0.0,0.601,0.6327,0.7344,0.9035,0.9388,1.0337,1.1928,1.2218,1.1882,1.1022,1.1444,1.1828,1.2128,1.2253,1.2498,1.2879,1.2969,1.2866,1.2783,1.2723,1.2772,1.2598,1.2609,1.2631,1.2756,1.278,1.2856,1.3077,1.333,1.354,1.3782,1.3933,1.4051,1.4164,1.4196,1.4196,1.4196,1.4196,1.4196,1.4196,1.4196,1.4509,1.5565,1.6393,1.7437,1.8812,2.0158,2.1191,2.1615,2.2232,2.2544,2.2653,2.2653,2.2653,2.2653,2.2653,2.2653,2.2653,2.2653,2.2653,0.4873,0.4859,0.5363,0.5508,0.5445,0.572,0.574,0.5494,0.0,0.0,0.0,0.6119,0.6149,0.6132,0.5942,0.5858,0.5844,0.5648,0.5716,0.5994,0.5996,0.6151,0.6431,0.6437,0.6437,0.6437,0.6437,0.6437,0.6437,0.6437,0.6437,0.6437,0.6437,0.6437,0.6437,0.6437,0.6293,0.601,0.5934,0.6045,0.6328,0.6282,0.6108,0.5814,0.5809,0.5613,0.5205,0.5205,0.5165,0.5056,0.5067,0.5108,0.517,0.5173,0.5203,0.542,0.5906,0.7044,0.9074,0.9721,1.0911,1.3055,1.3377,1.3153,1.2246,1.2868,1.315,1.2786,1.3053,1.315,1.3156,1.3294,1.3306,1.3032,1.3257,1.3214,1.3036,1.3014,1.3044,1.3121,1.3073,1.3147,1.3249,1.3566,1.3841,1.39,1.4056,1.4196,1.4196,1.4196,1.4196,1.4196,1.4196,1.4196,1.4196,1.4196,1.4617,1.5458,1.5773,1.6611,1.829,1.9428,2.0357,2.1514,2.2241,2.2552,2.2653,2.2653,2.2653,2.2653,2.2653,2.2653,2.2653,2.2653,2.2653,0.4918,0.4848,0.5263,0.5394,0.528,0.5572,0.5743,0.5884,0.5943,0.5931,0.5947,0.6255,0.6385,0.6385,0.6352,0.6336,0.6336,0.6301,0.6314,0.0,0.6361,0.6388,0.6437,0.6437,0.6437,0.6437,0.6437,0.6437,0.6437,0.6437,0.6437,0.6437,0.6437,0.6437,0.6437,0.6437,0.6412,0.6355,0.6059,0.5926,0.5972,0.5676,0.5496,0.545,0.5461,0.5366,0.5197,0.5298,0.529,0.517,0.5265,0.5458,0.5754,0.5773,0.5915,0.6203,0.633,0.7414,0.9694,0.9996,1.0995,1.3126,1.3431,1.3297,1.3044,1.326,1.3241,1.278,1.2985,1.2962,1.2786,1.2898,1.2929,1.2847,1.2857,1.2904,1.2898,1.2845,1.2948,1.3133,1.3077,1.3287,1.3615,1.3771,1.3916,1.4083,1.4159,1.4196,1.4196,1.4196,1.4196,1.4196,1.4196,1.4196,1.4196,1.4196,1.4724,1.5672,1.6611,1.7542,1.8916,2.0269,2.12,2.1623,2.2241,2.2552,2.2653,2.2653,2.2653,2.2653,2.2653,2.2653,2.2653,2.2653,2.2653,0.5086,0.5151,0.5363,0.5443,0.5401,0.5604,0.581,0.5901,0.5962,0.6018,0.6211,0.6366,0.6437,0.6426,0.6304,0.6246,0.6241,0.6113,0.6127,0.6241,0.6246,0.6314,0.6429,0.6437,0.6437,0.6437,0.6437,0.6437,0.6437,0.6437,0.6437,0.6437,0.6437,0.6437,0.6437,0.6437,0.6437,0.6434,0.6274,0.6192,0.6187,0.6032,0.595,0.5947,0.5947,0.5923,0.5869,0.5918,0.5923,0.5866,0.5918,0.6026,0.6179,0.6192,0.6265,0.6423,0.6437,0.7428,0.9608,1.0984,1.2165,1.3147,1.3443,1.3352,1.3114,1.3385,1.3385,1.3191,1.3285,1.3291,1.3191,1.311,1.3082,1.2986,1.2995,1.291,1.292,1.2947,1.3044,1.327,1.3416,1.3577,1.3793,1.3938,1.4051,1.418,1.4196,1.4196,1.4196,1.4196,1.4196,1.4196,1.4196,1.4196,1.4196,1.4611,1.525,1.6211,1.714,1.8185,1.9443,2.0696,2.1318,2.1725,2.2241,2.2552,2.2653,2.2653,2.2653,2.2653,2.2653,2.2653,2.2653,2.2653,2.2653,0.5264,0.5354,0.5463,0.545,0.543,0.5638,0.5744,0.585,0.5845,0.5967,0.6228,0.642,0.6417,0.6398,0.6328,0.6249,0.6219,0.6059,0.6078,0.6233,0.6219,0.6304,0.6458,0.645,0.6437,0.6437,0.6437,0.6437,0.6437,0.6437,0.6437,0.6437,0.6437,0.6437,0.6437,0.6437,0.6437,0.6437,0.6437,0.6437,0.6437,0.6437,0.6437,0.6437,0.6431,0.6437,0.6437,0.6437,0.6437,0.6437,0.6437,0.6437,0.6437,0.6437,0.6437,0.6437,0.6437,0.7325,0.9509,1.177,1.3055,1.305,1.3244,1.3244,1.305,1.3244,1.334,1.3352,1.3323,1.3329,1.3323,1.3335,1.3249,1.305,1.3105,1.3106,1.3071,1.3147,1.3281,1.3523,1.3712,1.3825,1.3922,1.4073,1.418,1.4186,1.4196,1.4196,1.4196,1.4196,1.4196,1.4196,1.4196,1.4196,1.4191,1.4928,1.5773,1.6624,1.7569,1.8722,1.9872,2.0712,2.1326,2.1827,2.2241,2.2552,2.2653,2.2653,2.2653,2.2653,2.2653,2.2653,2.2653,2.2653,2.2653,0.5418,0.5347,0.5233,0.5184,0.5118,0.522,0.5331,0.5543,0.5539,0.5739,0.5927,0.6248,0.635,0.6458,0.6628,0.6711,0.6711,0.6711,0.6698,0.67,0.6622,0.6584,0.6592,0.6494,0.6437,0.6442,0.6442,0.6445,0.6437,0.6437,0.6437,0.6437,0.6437,0.6437,0.6437,0.6437,0.6437,0.6437,0.6437,0.6437,0.6437,0.6437,0.6437,0.6437,0.6437,0.6437,0.6437,0.6437,0.6437,0.6437,0.6442,0.6439,0.6442,0.6439,0.6439,0.6442,0.6439,0.7329,0.9509,1.1575,1.2861,1.2861,1.2861,1.2867,1.2867,1.2867,1.2861,1.298,1.3066,1.305,1.2861,1.2856,1.2872,1.2899,1.304,1.3082,1.3152,1.3308,1.3534,1.376,1.3825,1.39,1.4099,1.4169,1.4191,1.4196,1.4196,1.4196,1.4196,1.4196,1.4196,1.4196,1.4196,1.4191,1.4407,1.4928,1.5879,1.673,1.7884,1.9138,2.0395,2.1216,2.1827,2.2241,2.2544,2.2653,2.2653,2.2653,2.2653,2.2653,2.2653,2.2653,2.2653,2.2653,2.2653,0.5361,0.5437,0.5324,0.5304,0.5271,0.5271,0.5381,0.549,0.5381,0.5488,0.5597,0.5923,0.6074,0.6066,0.6384,0.6592,0.6595,0.6698,0.6804,0.6798,0.6749,0.6728,0.6719,0.6679,0.6619,0.6548,0.6545,0.6507,0.6448,0.6437,0.6437,0.6437,0.6437,0.6437,0.6437,0.6437,0.6437,0.6437,0.6437,0.6437,0.6437,0.6437,0.6437,0.6437,0.6437,0.6437,0.6437,0.6437,0.6469,0.6535,0.6543,0.6578,0.6649,0.6654,0.6654,0.6752,0.7798,0.906,1.0662,1.2046,1.2759,1.2759,1.2759,1.2813,1.2953,1.2964,1.3017,1.3225,1.303,1.2861,1.2764,1.2764,1.2813,1.2947,1.3055,1.3211,1.3507,1.361,1.3771,1.3997,1.404,1.4073,1.4169,1.4196,1.4196,1.4196,1.4196,1.4196,1.4196,1.4196,1.4196,1.4196,1.4196,1.4401,1.4821,1.5666,1.6518,1.7463,1.8617,1.9975,2.0704,2.1326,2.1928,2.2552,2.2552,2.2653,2.2653,2.2653,2.2653,2.2653,2.2653,2.2653,2.2653,2.2653,2.2653,0.5382,0.5382,0.5382,0.5382,0.5382,0.5382,0.5382,0.5382,0.5382,0.5382,0.5382,0.5603,0.5749,0.584,0.6153,0.6368,0.6475,0.6687,0.6794,0.6896,0.6866,0.6853,0.685,0.6815,0.6757,0.6681,0.6671,0.6605,0.6499,0.6486,0.6469,0.6445,0.6469,0.6472,0.6439,0.6437,0.6437,0.6437,0.6437,0.6437,0.6437,0.6437,0.6437,0.6437,0.6437,0.6437,0.6437,0.6437,0.6478,0.6564,0.657,0.6611,0.6695,0.6703,0.6804,0.7211,0.8762,1.0205,1.1306,1.2258,1.2759,1.2759,1.2759,1.2829,1.2974,1.3012,1.3093,1.32,1.3017,1.2861,1.2856,1.2856,1.2931,1.3082,1.32,1.3459,1.376,1.3863,1.3986,1.4164,1.4169,1.4196,1.4196,1.4196,1.4196,1.4196,1.4196,1.4196,1.4196,1.4191,1.4299,1.4509,1.4509,1.4826,1.5458,1.6092,1.7041,1.8192,1.9346,2.0498,2.1019,2.1623,2.1928,2.2544,2.2552,2.2653,2.2653,2.2653,2.2653,2.2653,2.2653,2.2653,2.2653,2.2653,2.2653,0.5382,0.5382,0.5382,0.5382,0.5382,0.5382,0.5382,0.5382,0.5382,0.5382,0.5382,0.538,0.5375,0.547,0.6017,0.6475,0.6692,0.6682,0.6787,0.7108,0.7021,0.6978,0.697,0.6861,0.6804,0.6796,0.6793,0.6728,0.6611,0.6605,0.6551,0.6445,0.6535,0.6545,0.6453,0.6437,0.6437,0.6437,0.6437,0.6437,0.6437,0.6437,0.6437,0.6437,0.6437,0.6437,0.6437,0.6437,0.6445,0.6448,0.6461,0.6461,0.6467,0.6475,0.6986,0.7972,0.9046,1.0122,1.1212,1.2283,1.2759,1.2759,1.2759,1.2775,1.2834,1.2845,1.2883,1.284,1.305,1.3093,1.312,1.3104,1.3114,1.3173,1.3523,1.375,1.3825,1.4035,1.4159,1.4191,1.4196,1.4196,1.4196,1.4196,1.4196,1.4196,1.4196,1.4196,1.4191,1.4191,1.4617,1.5143,1.5351,1.5452,1.5565,1.6511,1.7457,1.861,1.9975,2.1019,2.1632,2.2139,2.2342,2.2544,2.2544,2.2653,2.2653,2.2653,2.2653,2.2653,2.2653,2.2653,2.2653,2.2653,2.2653,0.5382,0.5382,0.5382,0.5382,0.5382,0.5382,0.5382,0.5382,0.5382,0.5382,0.5382,0.5382,0.5382,0.5382,0.5605,0.5826,0.6156,0.6381,0.6604,0.6821,0.6782,0.6874,0.7089,0.7046,0.6986,0.6926,0.6915,0.6815,0.6635,0.6619,0.6556,0.6458,0.6478,0.6475,0.6445,0.6437,0.6437,0.6437,0.6437,0.6437,0.6437,0.6437,0.6437,0.6437,0.6437,0.6437,0.6437,0.6437,0.6469,0.6548,0.6551,0.6589,0.6763,0.7285,0.821,0.9218,1.0243,1.1278,1.2261,1.2639,1.2759,1.2759,1.2759,1.2824,1.2947,1.299,1.3098,1.334,1.3346,1.34,1.3502,1.3432,1.34,1.3556,1.3712,1.389,1.4029,1.4143,1.4196,1.4196,1.4196,1.4196,1.4196,1.4196,1.4196,1.4196,1.4196,1.4196,1.4299,1.4617,1.5137,1.5458,1.5986,1.6518,1.714,1.7674,1.8408,1.945,2.0601,2.1216,2.1827,2.2232,2.2535,2.2544,2.2653,2.2653,2.2653,2.2653,2.2653,2.2653,2.2653,2.2653,2.2653,2.2653,2.2653,0.5382,0.5382,0.5382,0.5382,0.5382,0.5382,0.5382,0.5382,0.5382,0.5382,0.5382,0.5382,0.5382,0.5382,0.5382,0.5491,0.5714,0.6049,0.627,0.6604,0.6604,0.6715,0.7046,0.7046,0.7006,0.7043,0.6999,0.6893,0.6749,0.6698,0.6616,0.6505,0.6497,0.6475,0.6445,0.6437,0.6437,0.6437,0.6437,0.6437,0.6437,0.6437,0.6437,0.6437,0.6437,0.6437,0.6437,0.6437,0.6472,0.6545,0.6559,0.6597,0.6777,0.7714,0.8742,0.9851,1.0856,1.179,1.2782,1.285,1.2759,1.2759,1.2764,1.2834,1.298,1.3055,1.327,1.3491,1.3642,1.3669,1.376,1.3744,1.3739,1.3825,1.389,1.4003,1.4164,1.4191,1.4196,1.4196,1.4196,1.4196,1.4196,1.4196,1.4196,1.4196,1.4196,1.4299,1.4617,1.5035,1.5767,1.6193,1.6829,1.7569,1.8401,1.9034,1.945,2.0285,2.0901,2.1514,2.1928,2.2333,2.2544,2.2653,2.2653,2.2653,2.2653,2.2653,2.2653,2.2653,2.2653,2.2653,2.2653,2.2653,2.2653,0.5382,0.5382,0.5382,0.5382,0.5382,0.5382,0.5382,0.5382,0.5382,0.5382,0.5382,0.5382,0.5382,0.5382,0.5382,0.5382,0.5491,0.5712,0.6049,0.6272,0.6383,0.6495,0.6826,0.6824,0.6932,0.7133,0.704,0.6989,0.695,0.6836,0.6722,0.663,0.6589,0.6524,0.6437,0.6437,0.6437,0.6437,0.6437,0.6437,0.6437,0.6437,0.6437,0.6437,0.6437,0.6437,0.6437,0.6437,0.6439,0.6445,0.6448,0.6439,0.6862,0.7762,0.8634,0.9747,1.0699,1.1775,1.2678,1.277,1.2759,1.277,1.277,1.2807,1.2872,1.3028,1.3179,1.3308,1.3572,1.382,1.3868,1.4013,1.4051,1.39,1.4029,1.4159,1.4186,1.4196,1.4196,1.4196,1.4196,1.4196,1.4196,1.4196,1.4196,1.4196,1.4191,1.4509,1.5143,1.5559,1.6299,1.7351,1.7884,1.8408,1.9457,2.0498,2.0704,2.1019,2.142,2.1928,2.2241,2.2544,2.2544,2.2653,2.2653,2.2653,2.2653,2.2653,2.2653,2.2653,2.2653,2.2653,2.2653,2.2653,2.2653,0.5382,0.5382,0.5382,0.5382,0.5382,0.5382,0.5382,0.5382,0.5382,0.5382,0.5382,0.5382,0.5382,0.5382,0.5382,0.5382,0.5382,0.5491,0.5828,0.6274,0.6495,0.6715,0.6935,0.7043,0.7154,0.7149,0.7119,0.7059,0.6978,0.6864,0.6741,0.6627,0.6535,0.6478,0.6439,0.6437,0.6437,0.6437,0.6437,0.6437,0.6437,0.6437,0.6437,0.6437,0.6437,0.6437,0.6437,0.6437,0.6437,0.6437,0.7129,0.7826,0.8616,0.96,1.0386,1.0783,1.1673,1.236,1.2662,1.2764,1.2764,1.2797,1.2904,1.2985,1.3023,1.3217,1.3421,1.355,1.3744,1.3873,1.4051,1.4137,1.4148,1.4083,1.4148,1.4196,1.4196,1.4196,1.4196,1.4196,1.4196,1.4196,1.4196,1.4196,1.4196,1.4196,1.4196,1.4617,1.5351,1.6092,1.6723,1.7772,1.8408,1.9042,1.9983,2.0704,2.1113,2.142,2.1827,2.2131,2.2443,2.2653,2.2653,2.2653,2.2653,2.2653,2.2653,2.2653,2.2653,2.2653,2.2653,2.2653,2.2653,2.2653,2.2653,0.5382,0.5382,0.5382,0.5382,0.5382,0.5382,0.5382,0.5382,0.5382,0.5382,0.5382,0.5382,0.5382,0.5382,0.5382,0.5382,0.5382,0.5491,0.5714,0.6049,0.627,0.6601,0.6932,0.7154,0.7154,0.7154,0.7154,0.7119,0.7046,0.6926,0.6806,0.6687,0.6564,0.648,0.6442,0.6437,0.6437,0.6437,0.6437,0.6437,0.6437,0.6437,0.6437,0.6437,0.6437,0.6437,0.6437,0.6734,0.6833,0.6634,0.7428,0.8517,0.9505,1.0587,1.117,1.137,1.2165,1.2759,1.2759,1.2759,1.2813,1.2894,1.3023,1.3152,1.3254,1.3464,1.368,1.3787,1.3916,1.4024,1.4159,1.4191,1.4196,1.4191,1.4191,1.4196,1.4196,1.4196,1.4196,1.4196,1.4196,1.4196,1.4196,1.4196,1.4196,1.4196,1.4509,1.4934,1.5879,1.6617,1.7463,1.8304,1.9042,1.9776,2.0292,2.0909,2.142,2.1827,2.2333,2.2443,2.2552,2.2653,2.2653,2.2653,2.2653,2.2653,2.2653,2.2653,2.2653,2.2653,2.2653,2.2653,2.2653,2.2653,2.2653,0.5382,0.5382,0.5382,0.5382,0.5382,0.5382,0.5382,0.5382,0.5382,0.5382,0.5382,0.5382,0.5382,0.5382,0.5382,0.5382,0.5493,0.5601,0.5712,0.5824,0.5933,0.6156,0.6712,0.7043,0.7154,0.7154,0.7154,0.7152,0.7127,0.7021,0.6926,0.6809,0.6673,0.6564,0.648,0.6448,0.6437,0.6437,0.6437,0.6437,0.6437,0.6437,0.6437,0.6437,0.6437,0.6437,0.6734,0.7528,0.7723,0.7033,0.8021,0.9008,0.9801,1.0783,1.137,1.1468,1.2262,1.2662,1.2759,1.2807,1.2883,1.305,1.3163,1.3238,1.3486,1.3706,1.3857,1.389,1.4046,1.4175,1.4191,1.4196,1.4196,1.4196,1.4196,1.4196,1.4196,1.4207,1.4234,1.4213,1.4202,1.4207,1.4207,1.4196,1.4191,1.4509,1.5035,1.5666,1.6617,1.7463,1.8311,1.9042,1.9672,2.0292,2.0806,2.1113,2.1623,2.2139,2.2544,2.2544,2.2653,2.2653,2.2653,2.2653,2.2653,2.2653,2.2653,2.2653,2.2653,2.2653,2.2653,2.2653,2.2653,2.2653,2.2653,0.5382,0.5382,0.5382,0.5382,0.5382,0.5382,0.5382,0.5382,0.5382,0.5382,0.5382,0.5382,0.5382,0.5382,0.5382,0.5382,0.5382,0.5493,0.5603,0.5822,0.5819,0.6158,0.6712,0.7043,0.7154,0.7154,0.7154,0.7154,0.7143,0.7048,0.697,0.6929,0.6733,0.6613,0.6564,0.6488,0.6439,0.6437,0.6439,0.6439,0.6437,0.6437,0.6437,0.6437,0.6437,0.683,0.7528,0.8616,0.9505,0.9989,1.0186,1.0877,1.177,1.2165,1.2262,1.2365,1.2559,1.2764,1.2797,1.2915,1.3034,1.313,1.3416,1.3653,1.3723,1.3954,1.4073,1.4105,1.4169,1.4196,1.4196,1.4196,1.4196,1.4196,1.4196,1.4196,1.4218,1.4336,1.439,1.425,1.4336,1.4326,1.4234,1.4191,1.4401,1.4934,1.5458,1.6086,1.7246,1.7989,1.8729,1.9457,2.0086,2.0704,2.1113,2.1522,2.1827,2.2342,2.2552,2.2552,2.2653,2.2653,2.2653,2.2653,2.2653,2.2653,2.2653,2.2653,2.2653,2.2653,2.2653,2.2653,2.2653,2.2653,2.2653,0.5382,0.5382,0.5382,0.5382,0.5382,0.5382,0.5382,0.5382,0.5382,0.5382,0.5382,0.5382,0.5382,0.5382,0.5382,0.5382,0.5382,0.5382,0.5491,0.5603,0.571,0.6156,0.6712,0.7043,0.7154,0.7154,0.7154,0.7154,0.7146,0.7086,0.7035,0.697,0.6844,0.6749,0.6692,0.6632,0.6556,0.6526,0.6513,0.6494,0.6442,0.6437,0.6736,0.6933,0.7129,0.7723,0.9205,0.9993,1.0583,1.1072,1.1268,1.1668,1.2662,1.2759,1.2759,1.2759,1.2764,1.2802,1.291,1.3039,1.3195,1.3389,1.3696,1.3846,1.3965,1.4121,1.4196,1.4186,1.4196,1.4196,1.4196,1.4196,1.4196,1.4196,1.4196,1.4196,1.4196,1.4299,1.4326,1.4272,1.4293,1.4352,1.4202,1.4196,1.4611,1.5244,1.5879,1.6823,1.7982,1.8513,1.9138,1.9975,2.0601,2.1113,2.1522,2.1827,2.2038,2.2552,2.2653,2.2653,2.2653,2.2653,2.2653,2.2653,2.2653,2.2653,2.2653,2.2653,2.2653,2.2653,2.2653,2.2653,2.2653,2.2653,2.2653,0.5382,0.5382,0.5382,0.5382,0.5382,0.5382,0.5382,0.5382,0.5382,0.5382,0.5382,0.5382,0.5382,0.5382,0.5382,0.5382,0.5382,0.5382,0.5382,0.5491,0.5712,0.6047,0.649,0.6935,0.7154,0.7154,0.7154,0.7376,0.7485,0.7368,0.721,0.7242,0.72,0.6921,0.6828,0.6793,0.6738,0.6657,0.6638,0.66,0.6625,0.6695,0.7181,0.7772,0.8425,0.9205,1.0578,1.1272,1.1468,1.1375,1.1365,1.1965,1.2759,1.2759,1.2759,1.278,1.2807,1.291,1.3077,1.3168,1.3362,1.3701,1.3814,1.3943,1.4121,1.4186,1.4196,1.4196,1.4196,1.4196,1.4196,1.4196,1.4196,1.4196,1.4196,1.4196,1.4202,1.4218,1.4223,1.4202,1.4213,1.4229,1.4304,1.4407,1.4719,1.6299,1.6829,1.7772,1.8715,1.945,2.0078,2.0806,2.1216,2.1623,2.1928,2.2232,2.2342,2.2653,2.2653,2.2653,2.2653,2.2653,2.2653,2.2653,2.2653,2.2653,2.2653,2.2653,2.2653,2.2653,2.2653,2.2653,2.2653,2.2653,2.2653,0.5382,0.5382,0.5382,0.5382,0.5382,0.5382,0.5382,0.5382,0.5382,0.5382,0.5382,0.5382,0.5382,0.5382,0.5382,0.5382,0.5382,0.5382,0.5382,0.538,0.5712,0.5822,0.6156,0.6601,0.6935,0.7157,0.7154,0.7706,0.8149,0.7817,0.7697,0.832,0.7683,0.6975,0.705,0.7183,0.6796,0.6766,0.6868,0.6953,0.7108,0.7536,0.7998,0.8494,0.9681,1.0592,1.1175,1.1965,1.2462,1.2462,1.2462,1.2467,1.2759,1.2759,1.277,1.2818,1.2942,1.305,1.3163,1.3437,1.369,1.382,1.3992,1.4137,1.4169,1.4196,1.4196,1.4196,1.4196,1.4196,1.4196,1.4196,1.4196,1.4196,1.4191,1.4299,1.4218,1.4342,1.4445,1.4375,1.4429,1.4598,1.5166,1.525,1.5879,1.7147,1.7982,1.8722,1.9554,2.0388,2.0909,2.1428,2.1623,2.1928,2.2241,2.2443,2.2544,2.2653,2.2653,2.2653,2.2653,2.2653,2.2653,2.2653,2.2653,2.2653,2.2653,2.2653,2.2653,2.2653,2.2653,2.2653,2.2653,2.2653,2.2653,0.5382,0.5382,0.5382,0.5382,0.5382,0.5382,0.5382,0.5382,0.5382,0.5382,0.5382,0.5382,0.5382,0.5382,0.5382,0.5382,0.5382,0.5382,0.5493,0.5603,0.5712,0.5822,0.6267,0.6932,0.7485,0.7154,0.7154,0.7817,0.8367,0.8481,0.8589,0.9688,0.8944,0.8924,0.8692,0.8605,0.8652,0.8587,0.8574,0.8547,0.8573,0.892,0.9587,1.0063,1.1334,1.2117,1.2221,1.251,1.277,1.2759,1.2764,1.2764,1.2764,1.277,1.2813,1.2937,1.3017,1.3249,1.3453,1.3663,1.3863,1.3986,1.4126,1.4164,1.4196,1.4196,1.4196,1.4196,1.4196,1.4196,1.4196,1.4196,1.4196,1.4191,1.4293,1.4606,1.5047,1.5041,1.4984,1.4979,1.5348,1.5666,1.6035,1.6305,1.6929,1.8087,1.87,1.9435,2.0483,2.1208,2.1522,2.1937,2.203,2.2232,2.2443,2.2552,2.2552,2.2653,2.2653,2.2653,2.2653,2.2653,2.2653,2.2653,2.2653,2.2653,2.2653,2.2653,2.2653,2.2653,2.2653,2.2653,2.2653,2.2653,2.2653,0.5382,0.5382,0.5382,0.5382,0.5382,0.5382,0.5382,0.5382,0.5382,0.5382,0.5382,0.5382,0.5382,0.5382,0.5493,0.5491,0.5493,0.5493,0.5603,0.5824,0.5935,0.6267,0.6821,0.759,0.8143,0.7263,0.7817,0.8589,0.9357,0.9361,0.9794,1.0668,1.0672,1.0315,1.055,1.066,1.0357,1.0134,1.0119,1.0182,1.0168,1.0427,1.1006,1.1942,1.2486,1.2872,1.2819,1.2888,1.2759,1.2759,1.2791,1.2813,1.2818,1.2829,1.2926,1.3141,1.3227,1.3421,1.368,1.3852,1.3986,1.4186,1.4196,1.4196,1.4196,1.4196,1.4196,1.4196,1.4196,1.4196,1.4196,1.4196,1.4196,1.4299,1.4498,1.5334,1.5956,1.6074,1.6305,1.6092,1.6537,1.6955,1.7371,1.766,1.829,1.8923,1.9531,2.0151,2.12,2.1827,2.2139,2.2241,2.2342,2.2342,2.2552,2.2653,2.2653,2.2653,2.2653,2.2653,2.2653,2.2653,2.2653,2.2653,2.2653,2.2653,2.2653,2.2653,2.2653,2.2653,2.2653,2.2653,2.2653,2.2653,2.2653,0.5382,0.5382,0.5382,0.5382,0.5382,0.5382,0.5382,0.5382,0.5382,0.5382,0.5382,0.5382,0.5382,0.5493,0.5601,0.5824,0.6161,0.6156,0.6158,0.6381,0.6604,0.6935,0.7811,0.8579,0.902,0.957,1.0014,1.0672,1.1105,1.1,1.1109,1.1651,1.1328,1.0895,1.1,1.0781,1.0983,1.1146,1.1033,1.0995,1.1061,1.1602,1.2216,1.3019,1.3217,1.319,1.3093,1.2915,1.2759,1.278,1.2942,1.3028,1.3071,1.3077,1.3195,1.3378,1.355,1.3696,1.3846,1.4019,1.4121,1.4186,1.4196,1.4196,1.4196,1.4196,1.4196,1.4196,1.4196,1.4196,1.4196,1.4196,1.4191,1.4504,1.5232,1.6168,1.6692,1.764,1.8478,1.8262,1.8262,1.8269,1.8693,1.902,1.9539,2.0166,2.068,2.0987,2.1615,2.2139,2.2443,2.2552,2.2552,2.2552,2.2653,2.2653,2.2653,2.2653,2.2653,2.2653,2.2653,2.2653,2.2653,2.2653,2.2653,2.2653,2.2653,2.2653,2.2653,2.2653,2.2653,2.2653,2.2653,2.2653,2.2653,0.5382,0.5382,0.5382,0.5382,0.5382,0.5382,0.5382,0.5382,0.5382,0.5382,0.5382,0.5382,0.5382,0.5493,0.5712,0.6376,0.7149,0.7149,0.7482,0.8036,0.8367,0.8585,0.924,1.0006,1.0773,1.1437,1.2096,1.2313,1.2309,1.1869,1.2205,1.2975,1.2758,1.254,1.254,1.2649,1.2427,1.2432,1.2432,1.2432,1.2432,1.2969,1.3402,1.3604,1.361,1.3491,1.3432,1.3254,1.3141,1.3163,1.3243,1.3357,1.3427,1.348,1.3523,1.3653,1.3766,1.3895,1.3986,1.4143,1.4186,1.4191,1.4196,1.4196,1.4196,1.4196,1.4191,1.4196,1.4196,1.4196,1.4196,1.4191,1.4504,1.5232,1.6068,1.7108,1.8262,1.9531,2.004,2.0135,2.0048,1.9952,2.0063,2.0483,2.0893,2.131,2.1827,2.203,2.2131,2.2342,2.2653,2.2653,2.2653,2.2653,2.2653,2.2653,2.2653,2.2653,2.2653,2.2653,2.2653,2.2653,2.2653,2.2653,2.2653,2.2653,2.2653,2.2653,2.2653,2.2653,2.2653,2.2653,2.2653,2.2653,2.2653,0.5382,0.5382,0.5382,0.5382,0.5382,0.5382,0.5382,0.5382,0.5382,0.5382,0.5382,0.5382,0.5382,0.5603,0.6265,0.7257,0.8799,0.8582,0.9133,0.979,1.0123,1.0343,1.0996,1.1651,1.2417,1.2753,1.3418,1.3635,1.3083,1.2856,1.3305,1.3748,1.4083,1.4196,1.3975,1.3862,1.4191,1.4196,1.4196,1.4196,1.4196,1.4196,1.4196,1.4169,1.3954,1.3793,1.3739,1.3534,1.3432,1.3443,1.3513,1.362,1.3787,1.3868,1.3895,1.3895,1.3895,1.4013,1.4121,1.4186,1.4196,1.4196,1.4299,1.4299,1.4299,1.4401,1.4401,1.4299,1.4299,1.4299,1.4299,1.4401,1.5064,1.6147,1.6967,1.7975,1.9702,2.0854,2.1505,2.1615,2.153,2.142,2.1318,2.142,2.1717,2.1717,2.2232,2.2241,2.2342,2.2443,2.2653,2.2653,2.2653,2.2653,2.2653,2.2653,2.2653,2.2653,2.2653,2.2653,2.2653,2.2653,2.2653,2.2653,2.2653,2.2653,2.2653,2.2653,2.2653,2.2653,2.2653,2.2653,2.2653,2.2653,2.2653,0.5382,0.5382,0.5382,0.5382,0.5382,0.5382,0.5382,0.5382,0.5382,0.5382,0.5382,0.5493,0.5603,0.6156,0.726,0.8689,0.99,1.012,1.0343,1.1,1.1,1.1437,1.1982,1.22,1.3083,1.3635,1.4078,1.4191,1.3856,1.3748,1.397,1.4191,1.4196,1.4196,1.4196,1.4196,1.4196,1.4196,1.4196,1.4196,1.4196,1.4196,1.4196,1.4132,1.3986,1.3852,1.3841,1.368,1.3561,1.3556,1.3696,1.3787,1.3852,1.404,1.4126,1.4153,1.4159,1.4159,1.4186,1.4196,1.4191,1.4299,1.4401,1.4498,1.4606,1.4719,1.4719,1.4606,1.4498,1.4633,1.4758,1.5053,1.5785,1.7122,1.8406,1.9491,2.0906,2.1734,2.2282,2.2393,2.2113,2.2165,2.2241,2.2342,2.2443,2.2544,2.2544,2.2552,2.2653,2.2653,2.2653,2.2653,2.2653,2.2653,2.2653,2.2653,2.2653,2.2653,2.2653,2.2653,2.2653,2.2653,2.2653,2.2653,2.2653,2.2653,2.2653,2.2653,2.2653,2.2653,2.2653,2.2653,2.2653,2.2653,2.2653,0.5335,0.5382,0.5382,0.5382,0.5382,0.5382,0.5382,0.5382,0.5382,0.5382,0.5493,0.5938,0.6712,0.7811,0.8585,0.979,1.1324,1.1542,1.1987,1.2432,1.2649,1.2871,1.3305,1.3413,1.3862,1.3975,1.4196,1.4191,1.4196,1.4196,1.4196,1.4196,1.4196,1.4196,1.4196,1.4196,1.4196,1.4196,1.4196,1.4196,1.4196,1.4196,1.4196,1.4191,1.4078,1.4035,1.3992,1.3954,1.3884,1.39,1.4003,1.4125,1.4248,1.4336,1.4504,1.4617,1.4611,1.4504,1.4299,1.4191,1.4293,1.4396,1.4498,1.4606,1.4821,1.4928,1.5035,1.4826,1.4821,1.5087,1.5737,1.6313,1.7754,1.9027,1.9983,2.1113,2.1974,2.2378,2.2886,2.2792,2.2698,2.2663,2.2713,2.2552,2.2552,2.2544,2.2552,2.2552,2.2653,2.2653,2.2653,2.2653,2.2653,2.2653,2.2653,2.2653,2.2653,2.2653,2.2653,2.2653,2.2653,2.2653,2.2653,2.2653,2.2653,2.2653,2.2653,2.2653,2.2653,2.2653,2.2653,2.2653,2.2653,2.2653,2.2653,0.5251,0.5316,0.5361,0.5382,0.5382,0.5382,0.5382,0.5382,0.5382,0.5382,0.5714,0.6601,0.8146,0.9798,1.0237,1.1219,1.2753,1.2861,1.3413,1.397,1.4196,1.4083,1.4083,1.4083,1.4083,1.4196,1.4196,1.4196,1.4196,1.4196,1.4196,1.4196,1.4196,1.4196,1.4196,1.4196,1.4196,1.4196,1.4196,1.4196,1.4196,1.4196,1.4196,1.4196,1.4191,1.4196,1.4196,1.4175,1.4169,1.4164,1.4159,1.4256,1.4476,1.4583,1.4719,1.4826,1.4934,1.4826,1.4617,1.4515,1.4504,1.4606,1.4821,1.5041,1.525,1.525,1.5458,1.5672,1.5767,1.651,1.7397,1.7921,1.9231,2.0554,2.1711,2.2642,2.3389,2.3329,2.3237,2.316,2.3032,2.2809,2.2732,2.2603,2.2662,2.2653,2.2653,2.2653,2.2653,2.2653,2.2653,2.2653,2.2653,2.2653,2.2653,2.2653,2.2653,2.2653,2.2653,2.2653,2.2653,2.2653,2.2653,2.2653,2.2653,2.2653,2.2653,2.2653,2.2653,2.2653,2.2653,2.2653,2.2653,2.2653,2.2653,0.512,0.5141,0.5308,0.5371,0.5373,0.5382,0.538,0.5371,0.538,0.5603,0.6158,0.726,0.946,1.1214,1.1982,1.2644,1.397,1.4083,1.4083,1.4083,1.4196,1.4196,1.4196,1.4196,1.4196,1.4196,1.4196,1.4196,1.4196,1.4196,1.4196,1.4196,1.4196,1.4196,1.4196,1.4196,1.4196,1.4196,1.4196,1.4196,1.4196,1.4196,1.4196,1.4191,1.4191,1.4196,1.4196,1.4299,1.4299,1.4299,1.4299,1.4407,1.4719,1.4713,1.4934,1.5041,1.5148,1.5035,1.4934,1.4826,1.4934,1.5035,1.5256,1.5476,1.5678,1.5785,1.6199,1.6768,1.7141,1.7943,1.894,1.9852,2.0929,2.2017,2.2877,2.3311,2.381,2.3704,2.3631,2.3554,2.3383,2.3151,2.304,2.2954,2.2638,2.2705,2.2653,2.2653,2.2653,2.2653,2.2653,2.2653,2.2653,2.2653,2.2653,2.2653,2.2653,2.2653,2.2653,2.2653,2.2653,2.2653,2.2653,2.2653,2.2653,2.2653,2.2653,2.2653,2.2653,2.2653,2.2653,2.2653,2.2653,2.2653,2.2653,0.5024,0.493,0.5161,0.5214,0.5216,0.5273,0.5298,0.5418,0.591,0.7152,0.8355,0.9133,1.0668,1.2313,1.2871,1.3418,1.4088,1.4196,1.4186,1.4191,1.4196,1.4196,1.4196,1.4196,1.4196,1.4196,1.4196,1.4196,1.4196,1.4196,1.4196,1.4196,1.4169,1.4196,1.4196,1.4196,1.4196,1.4196,1.4196,1.4196,1.4196,1.4191,1.4299,1.4396,1.439,1.4504,1.4724,1.4719,1.4719,1.4724,1.4617,1.4832,1.5047,1.5047,1.5256,1.5464,1.5464,1.5464,1.5464,1.525,1.5041,1.5363,1.5577,1.5897,1.6205,1.653,1.7058,1.7796,1.8579,1.9521,2.1053,2.1635,2.237,2.3398,2.393,2.4225,2.4233,2.4145,2.4042,2.3973,2.3742,2.3494,2.3417,2.3348,2.2972,2.2655,2.2696,2.2653,2.2653,2.2653,2.2653,2.2653,2.2653,2.2653,2.2653,2.2653,2.2653,2.2653,2.2653,2.2653,2.2653,2.2653,2.2653,2.2653,2.2653,2.2653,2.2653,2.2653,2.2653,2.2653,2.2653,2.2653,2.2653,2.2653,2.2653,0.4928,0.4834,0.4998,0.5059,0.5112,0.5175,0.5312,0.5645,0.6245,0.8019,1.0297,1.0509,1.159,1.2894,1.3321,1.3529,1.3859,1.4019,1.4062,1.4099,1.4137,1.418,1.4196,1.4196,1.4196,1.4191,1.4191,1.4196,1.4196,1.4196,1.4132,1.4089,1.4094,1.4099,1.4196,1.4191,1.4191,1.4196,1.4196,1.4196,1.4196,1.4293,1.4396,1.4606,1.4606,1.4713,1.4934,1.4934,1.4934,1.4934,1.5041,1.5154,1.5374,1.5589,1.569,1.5785,1.5885,1.5885,1.5885,1.5998,1.5891,1.6211,1.6418,1.6624,1.6948,1.7536,1.7936,1.9234,2.0171,2.1279,2.2938,2.3206,2.3439,2.4335,2.4361,2.4556,2.4531,2.4504,2.4453,2.4384,2.4119,2.3836,2.3648,2.3528,2.3143,2.2792,2.2629,2.2679,2.2653,2.2653,2.2653,2.2653,2.2653,2.2653,2.2653,2.2653,2.2653,2.2653,2.2653,2.2653,2.2653,2.2653,2.2653,2.2653,2.2653,2.2653,2.2653,2.2653,2.2653,2.2653,2.2653,2.2653,2.2653,2.2653,2.2644,0.4841,0.4836,0.4845,0.4947,0.5086,0.5106,0.5532,0.6167,0.6608,0.8197,1.0623,1.1132,1.2072,1.3241,1.3402,1.3511,1.3642,1.376,1.383,1.3868,1.3981,1.4116,1.4132,1.4105,1.404,1.4164,1.4105,1.4062,1.4126,1.4073,1.3986,1.3884,1.3846,1.3916,1.4153,1.418,1.418,1.4175,1.4143,1.4116,1.4207,1.4287,1.4388,1.4753,1.486,1.4961,1.5137,1.5143,1.525,1.5148,1.5143,1.5363,1.5482,1.5589,1.569,1.6105,1.6099,1.6099,1.6099,1.6948,1.747,1.747,1.7569,1.7905,1.8583,1.8844,1.9106,2.0674,2.1873,2.286,2.3821,2.4437,2.4608,2.4684,2.4821,2.4812,2.4778,2.4761,2.4667,2.4624,2.4427,2.4179,2.3931,2.3665,2.328,2.2963,2.2723,2.2603,2.2662,2.2653,2.2653,2.2653,2.2653,2.2653,2.2653,2.2653,2.2653,2.2653,2.2653,2.2653,2.2653,2.2653,2.2653,2.2653,2.2653,2.2653,2.2653,2.2653,2.2653,2.2653,2.2644,2.2644,2.2653,2.2754,2.2846,0.4832,0.4832,0.4832,0.4972,0.5242,0.5611,0.6051,0.6477,0.7893,0.9819,1.1596,1.2118,1.2638,1.327,1.3453,1.3448,1.348,1.3513,1.3593,1.361,1.3723,1.3701,1.3733,1.3776,1.375,1.3723,1.3723,1.3755,1.3696,1.3771,1.3717,1.3599,1.3572,1.3636,1.3696,1.3717,1.3712,1.3717,1.3712,1.3816,1.3937,1.4162,1.4432,1.4878,1.4995,1.517,1.5417,1.5429,1.5547,1.5565,1.5571,1.5571,1.5791,1.5791,1.6211,1.6736,1.7047,1.7358,1.808,1.902,1.9332,1.902,1.8715,1.9002,1.9513,2.0152,2.1093,2.1981,2.3061,2.3922,2.4505,2.4591,2.4812,2.4812,2.4821,2.4821,2.4804,2.4804,2.4778,2.4761,2.4641,2.4333,2.4068,2.3597,2.3194,2.2963,2.2715,2.2603,2.2653,2.2653,2.2653,2.2653,2.2653,2.2653,2.2653,2.2653,2.2653,2.2653,2.2653,2.2653,2.2653,2.2653,2.2653,2.2653,2.2653,2.2653,2.2653,2.2653,2.2754,2.2754,2.2846,2.2946,2.3055,2.3055,2.3155,0.4818,0.4796,0.5418,0.571,0.58,0.6196,0.6749,0.7775,0.9595,1.1184,1.2198,1.2506,1.2803,1.3116,1.3233,1.3233,1.3238,1.3324,1.3351,1.3367,1.3459,1.3507,1.3507,1.3464,1.354,1.347,1.347,1.3497,1.3523,1.3491,1.3437,1.3357,1.327,1.3222,1.3276,1.3362,1.3513,1.3637,1.3648,1.374,1.394,1.4145,1.4493,1.4803,1.508,1.5261,1.5563,1.5765,1.5801,1.5843,1.5885,1.5885,1.5992,1.6418,1.6842,1.7371,1.8094,1.861,1.9642,2.0158,2.0467,2.057,2.0055,2.0216,2.0716,2.1317,2.2116,2.302,2.3972,2.431,2.4744,2.4821,2.4821,2.4821,2.4821,2.4821,2.4821,2.4821,2.4804,2.4804,2.4564,2.4316,2.3982,2.3554,2.3066,2.2877,2.2689,2.2722,2.2653,2.2653,2.2653,2.2653,2.2653,2.2653,2.2653,2.2653,2.2653,2.2653,2.2653,2.2653,2.2653,2.2653,2.2653,2.2653,2.2653,2.2644,2.2644,2.2644,2.2854,2.3055,2.3247,2.3347,2.3456,2.3456,2.3456,0.4988,0.4922,0.6473,0.6944,0.6769,0.6958,0.8199,1.0105,1.1399,1.1913,1.2098,1.2628,1.285,1.2807,1.2791,1.2824,1.2861,1.3028,1.3077,1.3147,1.3254,1.3335,1.3373,1.3373,1.3319,1.3383,1.3383,1.3297,1.3421,1.3335,1.3233,1.3104,1.2953,1.291,1.3001,1.3252,1.342,1.3415,1.3516,1.3718,1.3909,1.4268,1.4494,1.4761,1.4916,1.5137,1.5409,1.5535,1.5656,1.5765,1.598,1.5992,1.6311,1.7054,1.7477,1.7996,1.8819,1.9952,2.0775,2.1191,2.1505,2.1725,2.1469,2.1956,2.2382,2.2535,2.3046,2.3712,2.4437,2.4565,2.4821,2.4821,2.4821,2.4821,2.4821,2.4821,2.4821,2.4812,2.4778,2.4624,2.4282,2.3948,2.3494,2.3083,2.2903,2.2766,2.2722,2.2705,2.2653,2.2653,2.2653,2.2653,2.2653,2.2653,2.2653,2.2653,2.2653,2.2653,2.2653,2.2653,2.2653,2.2653,2.2653,2.2653,2.2644,2.2644,2.2745,2.2946,2.3155,2.3356,2.3546,2.3646,2.3655,2.3655,2.3655,0.5022,0.5397,0.6323,0.6763,0.7118,0.8688,1.0227,1.1458,1.1883,1.2175,1.257,1.2759,1.2759,1.2759,1.2764,1.2759,1.2786,1.2818,1.2845,1.2915,1.2996,1.298,1.299,1.3012,1.2985,1.2996,1.3001,1.306,1.3001,1.3001,1.3007,1.2845,1.2905,1.2867,1.291,1.3101,1.3172,1.332,1.3435,1.3639,1.3918,1.4213,1.4481,1.4781,1.5016,1.5263,1.546,1.5597,1.5732,1.5811,1.6641,1.7047,1.716,1.8199,1.8923,1.996,2.0987,2.1818,2.203,2.2131,2.2257,2.2553,2.2383,2.2823,2.3267,2.3614,2.3762,2.4268,2.4624,2.4693,2.4753,2.477,2.4795,2.4812,2.4812,2.4821,2.4804,2.4735,2.4667,2.423,2.3896,2.3554,2.3091,2.286,2.2698,2.2705,2.2653,2.2653,2.2653,2.2653,2.2653,2.2653,2.2653,2.2653,2.2653,2.2653,2.2653,2.2653,2.2653,2.2653,2.2644,2.2644,2.2653,2.2653,2.2846,2.2846,2.2946,2.3147,2.3637,2.3646,2.3845,2.3854,2.3954,2.3945,2.3945,0.5218,0.5775,0.6964,0.7948,0.9115,1.052,1.148,1.1988,1.2097,1.2373,1.2759,1.2759,1.2759,1.2759,1.2759,1.2759,1.2764,1.2775,1.278,1.2786,1.2759,1.2791,1.277,1.2759,1.2791,1.278,1.285,1.299,1.2986,1.3095,1.3117,1.3313,1.3127,1.3061,1.3163,1.3283,1.3363,1.3477,1.3471,1.3636,1.3925,1.4394,1.4799,1.5086,1.5415,1.5771,1.6011,1.6296,1.6573,1.6626,1.7624,1.7779,1.8199,1.9228,2.0364,2.1302,2.192,2.2342,2.2443,2.2552,2.2629,2.2818,2.3109,2.3502,2.3776,2.3977,2.4292,2.4675,2.4633,2.4616,2.4667,2.471,2.4753,2.4795,2.4812,2.4821,2.4744,2.465,2.429,2.3828,2.3477,2.316,2.2877,2.2663,2.2653,2.2653,2.2653,2.2653,2.2653,2.2653,2.2653,2.2653,2.2653,2.2653,2.2653,2.2653,2.2653,2.2653,2.2653,2.2653,2.2644,2.2745,2.2846,2.2946,2.3046,2.3147,2.3247,2.3926,2.4322,2.443,2.4707,2.5187,2.5099,2.4538,2.444,0.539,0.5799,0.7883,0.9857,1.1849,1.1978,1.1989,1.2043,1.2248,1.2479,1.2641,1.2684,1.2651,1.2592,1.2597,1.2646,1.2662,1.2678,1.2716,1.2748,1.2759,1.2759,1.2759,1.2759,1.2759,1.2834,1.3106,1.345,1.3656,1.3946,1.4329,1.4103,1.3895,1.3711,1.3528,1.3835,1.4004,1.4202,1.4394,1.4586,1.4586,1.5051,1.5893,1.6096,1.6609,1.7269,1.7551,1.7952,1.8372,1.8289,1.8458,1.8532,1.9642,2.0467,2.1607,2.203,2.2544,2.2544,2.2653,2.2653,2.2766,2.3057,2.3468,2.3776,2.4016,2.429,2.4598,2.4556,2.4479,2.4367,2.4367,2.4444,2.4496,2.4633,2.4718,2.4684,2.459,2.4324,2.3828,2.3425,2.316,2.2877,2.274,2.2653,2.2653,2.2653,2.2653,2.2653,2.2745,2.2745,2.2846,2.2745,2.2644,2.2644,2.2653,2.2653,2.2644,2.2644,2.2653,2.2854,2.2946,2.3046,2.3147,2.3247,2.3347,2.3546,2.3845,2.452,2.5197,2.5567,2.6041,2.6798,2.6522,2.5586,2.502,0.5329,0.5792,0.7723,0.9864,1.1684,1.1591,1.1628,1.1779,1.1844,1.2005,1.2281,1.2226,1.2242,1.2274,1.2379,1.235,1.2474,1.2506,1.2608,1.2667,1.2705,1.2748,1.2727,1.2769,1.2818,1.2964,1.3419,1.4442,1.5293,1.581,1.5842,1.5501,1.5176,1.4832,1.4211,1.4582,1.5083,1.5146,1.5704,1.5798,1.5609,1.5704,1.6075,1.6734,1.7412,1.7512,1.7734,1.7831,1.8147,1.8265,1.9298,2.0397,2.1684,2.2013,2.2232,2.2544,2.2653,2.2653,2.2653,2.2687,2.2775,2.3109,2.3477,2.3836,2.4162,2.4487,2.4581,2.4427,2.4247,2.411,2.4068,2.4145,2.4239,2.4419,2.4573,2.4479,2.4376,2.3888,2.3374,2.31,2.2954,2.2816,2.2687,2.2653,2.2653,2.2653,2.2653,2.2644,2.2929,2.3029,2.332,2.3229,2.2736,2.2644,2.2644,2.2653,2.2745,2.2846,2.2846,2.3046,2.3247,2.3347,2.3447,2.3456,2.3555,2.4134,2.4716,2.5206,2.5868,2.6532,2.7094,2.784,2.7662,2.6819,2.6157,0.5726,0.6926,0.8627,1.0259,1.1499,1.1451,1.1424,1.1526,1.1548,1.1612,1.1774,1.1935,1.2043,1.2038,1.214,1.2081,1.2237,1.2248,1.2301,1.2404,1.2574,1.2509,1.2536,1.2669,1.3087,1.3334,1.4491,1.568,1.6995,1.7009,1.6835,1.6864,1.6687,1.6186,1.5525,1.6054,1.636,1.6264,1.7109,1.7196,1.7008,1.7196,1.7289,1.7948,1.8319,1.8411,1.8721,1.8918,1.9185,1.9636,2.0508,2.0845,2.1719,2.2123,2.2544,2.2653,2.2653,2.2653,2.2653,2.2713,2.28,2.322,2.3494,2.3853,2.4376,2.4641,2.4436,2.4239,2.3751,2.3562,2.3691,2.3776,2.3828,2.3956,2.4016,2.399,2.3909,2.3669,2.3384,2.3326,2.3169,2.3033,2.2946,2.2854,2.2946,2.3619,2.352,2.3899,2.3989,2.3791,2.389,2.38,2.3511,2.2837,2.2653,2.2754,2.2854,2.2946,2.3247,2.3347,2.3646,2.3746,2.3854,2.4233,2.4618,2.5197,2.5771,2.635,2.6924,2.7673,2.8236,2.8702,2.8423,2.8049,2.7579,0.6527,0.8626,0.9868,1.0879,1.1593,1.1445,1.1273,1.1278,1.1273,1.1278,1.1429,1.1785,1.1941,1.1957,1.1957,1.1978,1.1995,1.2005,1.2027,1.2189,1.22,1.2346,1.252,1.2654,1.3516,1.449,1.5644,1.6994,1.8324,1.8349,1.8491,1.8461,1.8178,1.789,1.7625,1.7697,1.7727,1.7636,1.7956,1.8326,1.8603,1.8888,1.8788,1.9163,1.9729,2.0292,2.0412,2.0557,2.078,2.1079,2.1286,2.1527,2.1737,2.2173,2.2443,2.2653,2.2653,2.2653,2.2653,2.2662,2.2989,2.3417,2.3614,2.3956,2.447,2.4461,2.4247,2.3922,2.3434,2.3186,2.3314,2.353,2.3573,2.3599,2.3633,2.3756,2.3626,2.3495,2.3437,2.3382,2.3364,2.3247,2.3438,2.3247,2.3719,2.4384,2.4963,2.5528,2.5818,2.5421,2.5227,2.5042,2.4651,2.3989,2.342,2.342,2.3908,2.3728,2.4026,2.3935,2.4044,2.4332,2.4913,2.5586,2.5964,2.6157,2.6914,2.7673,2.8341,2.8713,2.9084,2.9463,2.9463,2.9187,2.8991,0.7969,1.0054,1.0208,1.0736,1.1572,1.1451,1.1267,1.1267,1.1267,1.1267,1.1294,1.1402,1.1483,1.1494,1.1483,1.1564,1.1758,1.1763,1.1908,1.2124,1.2133,1.2268,1.2643,1.3297,1.4571,1.577,1.6843,1.8041,1.8996,1.9821,2.0103,1.945,1.9505,1.8943,1.7978,1.8203,1.8722,1.8783,1.9088,1.9629,1.9446,1.9538,1.9438,1.972,2.0192,2.0292,2.0326,2.0352,2.0591,2.0994,2.1499,2.168,2.1934,2.213,2.2449,2.2584,2.2593,2.2653,2.2653,2.2653,2.3057,2.346,2.3674,2.4055,2.4313,2.4227,2.402,2.3823,2.3393,2.3049,2.3092,2.3315,2.3488,2.3591,2.3608,2.372,2.3812,2.3582,2.3435,2.3555,2.3555,2.3935,2.4412,2.4599,2.4963,2.5635,2.6011,2.6577,2.6863,2.6768,2.6662,2.6376,2.6088,2.5895,2.5712,2.5334,2.5431,2.507,2.4894,2.4992,2.5197,2.5304,2.5877,2.6638,2.6638,2.6638,2.7579,2.8806,2.9095,2.9463,2.984,3.0034,3.0125,3.0034,2.9658]},{"header":{"parameterUnit":"m.s-1","parameterCategory":1,"la1":31.0,"la2":29.5877,"lo1":-88.7671,"lo2":-86.6584,"dy":0.0162,"dx":0.0185,"nx":115,"ny":88,"refTime":"2024-03-16T00:00:00:Z","depth":0,"parameterNumber":3,"parameterNumberName":"V-component_of_WINDS"},"data":[0.0,0.0,0.0,0.0,0.0,0.0,0.0,0.0,0.0,0.0,0.0,0.0,0.0,0.0,0.0,0.0,0.0,0.0,0.0,0.0,0.0,0.0,0.0,0.0,0.0,0.0,0.0,0.0,0.0,0.0,0.0,0.0,0.0,0.0,0.0,0.0,0.0,0.0,0.0,0.0,0.0,0.0,0.0,0.0,0.0,0.0,0.0,0.0,0.0,0.0,0.0,0.0,0.0,0.0,0.0,0.0,0.0,0.0,0.0,0.0,0.0,0.0,0.0,0.0,0.0,0.0,0.0,0.0,0.0,0.0,0.0,0.0,0.0,0.0,0.0,0.0,0.0,0.0,0.0,0.0,0.0,0.0,0.0,0.0,0.0,0.0,0.0,0.0,0.0,0.0,0.0,0.0,0.0,0.0,0.0,0.0,0.0,0.0,0.0,0.0,0.0,0.0,0.0,0.0,0.0,0.0,0.0,0.0,0.0,0.0,0.0,0.0,0.0,0.0,0.0,0.0,0.0,0.0,0.0,0.0,0.0,0.0,0.0,0.0,0.0,0.0,0.0,0.0,0.0,0.0,0.0,0.0,0.0,0.0,0.0,0.0,0.0,0.0,0.0,0.0,0.0,0.0,0.0,0.0,0.0,0.0,0.0,0.0,0.0,0.0,0.0,0.0,0.0,0.0,0.0,0.0,0.0,0.0,0.0,0.0,0.0,0.0,0.0,0.0,0.0,0.0,0.0,0.0,0.0,0.0,0.0,0.0,0.0,0.0,0.0,0.0,0.0,0.0,0.0,0.0,0.0,0.0,0.0,0.0,0.0,0.0,0.0,0.0,0.0,0.0,0.0,0.0,0.0,0.0,0.0,0.0,0.0,0.0,0.0,0.0,0.0,0.0,0.0,0.0,0.0,0.0,0.0,0.0,0.0,0.0,0.0,0.0,0.0,0.0,0.0,0.0,0.0,0.0,0.0,0.0,0.0,0.0,0.0,0.0,0.0,0.0,0.0,0.0,0.0,0.0,0.0,0.0,0.0,0.0,0.0,0.0,0.0,0.0,0.0,0.0,0.0,0.0,0.0,0.0,0.0,0.0,0.0,0.0,0.0,0.0,0.0,0.0,0.0,0.0,0.0,0.0,0.0,0.0,0.0,0.0,0.0,0.0,0.0,0.0,0.0,0.0,0.0,0.0,0.0,0.0,0.0,0.0,0.0,0.0,0.0,0.0,0.0,0.0,0.0,0.0,0.0,0.0,0.0,0.0,0.0,0.0,0.0,0.0,0.0,0.0,0.0,0.0,0.0,0.0,0.0,0.0,0.0,0.0,0.0,0.0,0.0,0.0,0.0,0.0,0.0,0.0,0.0,0.0,0.0,0.0,0.0,0.0,0.0,0.0,0.0,0.0,0.0,0.0,0.0,0.0,0.0,0.0,0.0,0.0,0.0,0.0,0.0,0.0,0.0,0.0,0.0,0.0,0.0,0.0,0.0,0.0,0.0,0.0,0.0,0.0,0.0,0.0,0.0,0.0,0.0,0.0,0.0,0.0,0.0,0.0,0.0,0.0,0.0,0.0,0.0,0.0,0.0,0.0,0.0,0.0,0.0,0.0,0.0,0.0,0.0,0.0,0.0,0.0,0.0,0.0,0.0,0.0,0.0,0.0,0.0,0.0,0.0,0.0,0.0,0.0,0.0,0.0,0.0,0.0,0.0,0.0,0.0,0.0,0.0,0.0,0.0,0.0,0.0,0.0,0.0,0.0,0.0,0.0,0.0,0.0,0.0,0.0,0.0,0.0,0.0,0.0,0.0,0.0,0.0,0.0,0.0,0.0,0.0,0.0,0.0,0.0,0.0,0.0,0.0,0.0,0.0,0.0,0.0,0.0,0.0,0.0,0.0,0.0,0.0,0.0,0.0,0.0,0.0,0.0,0.0,0.0,0.0,0.0,0.0,0.0,0.0,0.0,0.0,0.0,0.0,0.0,0.0,0.0,0.0,0.0,0.0,0.0,0.0,0.0,0.0,0.0,0.0,0.0,0.0,0.0,0.0,0.0,0.0,0.0,0.0,0.0,0.0,0.0,0.0,0.0,0.0,0.0,0.0,0.0,0.0,0.0,0.0,0.0,0.0,0.0,0.0,0.0,0.0,0.0,0.0,0.0,0.0,0.0,0.0,0.0,0.0,0.0,0.0,0.0,0.0,0.0,0.0,0.0,0.0,0.0,0.0,0.0,0.0,0.0,0.0,0.0,0.0,0.0,0.0,0.0,0.0,0.0,0.0,0.0,0.0,0.0,0.0,0.0,0.0,0.0,0.0,0.0,0.0,0.0,0.0,0.0,0.0,0.0,0.0,0.0,0.0,0.0,0.0,0.0,0.0,0.0,0.0,0.0,0.0,0.0,0.0,0.0,0.0,0.0,0.0,0.0,0.0,0.0,0.0,0.0,0.0,0.0,0.0,0.0,0.0,0.0,0.0,0.0,0.0,0.0,0.0,0.0,0.0,0.0,0.0,0.0,0.0,0.0,0.0,0.0,0.0,0.0,0.0,0.0,0.0,0.0,0.0,0.0,0.0,0.0,0.0,0.0,0.0,0.0,0.0,0.0,0.0,0.0,0.0,0.0,0.0,0.0,0.0,0.0,0.0,0.0,0.0,0.0,0.0,0.0,0.0,0.0,0.0,0.0,0.0,0.0,0.0,0.0,0.0,0.0,0.0,0.0,0.0,0.0,0.0,0.0,0.0,0.0,0.0,0.0,0.0,0.0,0.0,0.0,0.0,0.0,0.0,0.0,0.0,0.0,0.0,0.0,0.0,0.0,0.0,0.0,0.0,0.0,0.0,0.0,0.0,0.0,0.0,0.0,0.0,0.0,0.0,0.0,0.0,0.0,0.0,0.0,0.0,0.0,0.0,0.0,0.0,0.0,0.0,0.0,0.0,0.0,0.0,0.0,0.0,0.0,0.0,0.0,0.0,0.0,0.0,0.0,0.0,0.0,0.0,0.0,0.0,0.0,0.0,0.0,0.0,0.0,0.0,0.0,0.0,0.0,0.0,0.0,0.0,0.0,0.0,0.0,0.0,0.0,0.0,0.0,0.0,0.0,0.0,0.0,0.0,0.0,0.0,0.0,0.0,0.0,0.0,0.0,0.0,0.0,0.0,0.0,0.0,0.0,0.0,0.0,0.0,0.0,0.0,0.0,0.0,0.0,0.0,0.0,0.0,0.0,0.0,0.0,0.0,0.0,0.0,0.0,0.0,0.0,0.0,0.0,0.0,0.0,0.0,0.0,0.0,0.0,0.0,0.0,0.0,0.0,0.0,0.0,0.0,0.0,0.0,0.0,0.0,0.0,0.0,0.0,0.0,0.0,0.0,0.0,0.0,0.0,0.0,0.0,0.0,0.0,0.0,0.0,0.0,0.0,0.0,0.0,0.0,0.0,0.0,0.0,0.0,0.0,0.0,0.0,0.0,0.0,0.0,0.0,0.0,0.0,0.0,0.0,0.0,0.0,0.0,0.0,0.0,0.0,0.0,0.0,0.0,0.0,0.0,0.0,0.0,0.0,0.0,0.0,0.0,0.0,0.0,0.0,0.0,0.0,0.0,0.0,0.0,0.0,0.0,0.0,0.0,0.0,0.0,0.0,0.0,0.0,0.0,0.0,0.0,0.0,0.0,0.0,0.0,0.0,0.0,0.0,0.0,0.0,0.0,0.0,0.0,0.0,0.0,0.0,0.0,0.0,0.0,0.0,0.0,0.0,0.0,0.0,0.0,0.0,0.0,0.0,0.0,0.0,0.0,0.0,0.0,0.0,0.0,0.0,0.0,0.0,0.0,0.0,0.0,0.0,0.0,0.0,0.0,0.0,0.0,0.0,0.0,0.0,0.0,0.0,0.0,0.0,0.0,0.0,0.0,0.0,0.0,0.0,0.0,0.0,0.0,0.0,0.0,0.0,0.0,0.0,0.0,0.0,0.0,0.0,0.0,0.0,0.0,0.0,0.0,0.0,0.0,0.0,0.0,0.0,0.0,0.0,0.0,0.0,0.0,0.0,0.0,0.0,0.0,0.0,0.0,0.0,0.0,0.0,0.0,0.0,0.0,0.0,0.0,0.0,0.0,0.0,0.0,0.0,0.0,0.0,0.0,0.0,0.0,0.0,0.0,0.0,0.0,0.0,0.0,0.0,0.0,0.0,0.0,0.0,0.0,0.0,0.0,0.0,0.0,0.0,0.0,0.0,0.0,0.0,0.0,0.0,0.0,0.0,0.0,0.0,0.0,0.0,0.0,0.0,-1.5008,0.0,0.0,0.0,0.0,0.0,0.0,0.0,0.0,0.0,0.0,0.0,0.0,0.0,0.0,0.0,0.0,0.0,0.0,0.0,0.0,0.0,0.0,0.0,0.0,0.0,0.0,0.0,0.0,0.0,0.0,0.0,0.0,0.0,0.0,0.0,0.0,0.0,0.0,0.0,0.0,0.0,0.0,0.0,0.0,0.0,0.0,0.0,0.0,0.0,0.0,0.0,0.0,0.0,0.0,0.0,0.0,0.0,0.0,0.0,0.0,0.0,0.0,0.0,0.0,0.0,0.0,0.0,0.0,0.0,0.0,0.0,0.0,0.0,0.0,0.0,0.0,0.0,0.0,0.0,0.0,0.0,0.0,0.0,0.0,0.0,0.0,0.0,0.0,0.0,0.0,0.0,0.0,0.0,0.0,0.0,0.0,0.0,0.0,0.0,0.0,0.0,0.0,0.0,0.0,0.0,0.0,0.0,0.0,0.0,0.0,-1.6476,-1.6546,-1.5636,-1.5368,-1.5811,0.0,0.0,0.0,0.0,0.0,0.0,0.0,0.0,0.0,0.0,0.0,0.0,0.0,0.0,0.0,0.0,0.0,0.0,0.0,0.0,0.0,0.0,0.0,0.0,0.0,0.0,0.0,0.0,0.0,0.0,0.0,0.0,0.0,0.0,0.0,0.0,0.0,0.0,0.0,0.0,0.0,0.0,0.0,0.0,0.0,0.0,0.0,0.0,0.0,0.0,0.0,0.0,0.0,0.0,0.0,0.0,0.0,0.0,0.0,0.0,0.0,0.0,0.0,0.0,0.0,0.0,0.0,0.0,0.0,0.0,0.0,0.0,0.0,0.0,0.0,0.0,0.0,0.0,0.0,0.0,0.0,0.0,0.0,0.0,0.0,0.0,0.0,0.0,0.0,0.0,0.0,0.0,0.0,0.0,0.0,0.0,0.0,0.0,0.0,0.0,0.0,0.0,0.0,0.0,0.0,0.0,0.0,0.0,0.0,0.0,0.0,0.0,-1.6522,-1.6034,-1.6527,0.0,0.0,0.0,0.0,0.0,0.0,0.0,0.0,0.0,0.0,0.0,0.0,0.0,0.0,0.0,0.0,0.0,0.0,0.0,0.0,0.0,0.0,0.0,0.0,0.0,0.0,0.0,0.0,0.0,0.0,0.0,0.0,0.0,0.0,0.0,0.0,0.0,0.0,0.0,0.0,0.0,0.0,0.0,0.0,0.0,0.0,0.0,0.0,0.0,0.0,0.0,0.0,0.0,0.0,0.0,0.0,0.0,0.0,0.0,0.0,0.0,0.0,0.0,0.0,0.0,0.0,0.0,0.0,0.0,0.0,0.0,0.0,0.0,0.0,0.0,0.0,0.0,0.0,0.0,0.0,0.0,0.0,0.0,0.0,0.0,0.0,0.0,0.0,0.0,0.0,0.0,0.0,0.0,0.0,0.0,0.0,0.0,0.0,0.0,0.0,0.0,0.0,0.0,0.0,0.0,0.0,0.0,0.0,0.0,0.0,-1.8613,-1.7909,-1.7734,0.0,-1.6701,0.0,0.0,0.0,0.0,0.0,0.0,0.0,0.0,0.0,0.0,0.0,0.0,0.0,0.0,0.0,0.0,0.0,0.0,0.0,0.0,0.0,0.0,0.0,0.0,0.0,0.0,0.0,0.0,0.0,0.0,0.0,0.0,0.0,0.0,0.0,0.0,0.0,0.0,0.0,0.0,0.0,0.0,0.0,0.0,0.0,0.0,0.0,0.0,0.0,0.0,0.0,0.0,0.0,0.0,0.0,0.0,0.0,0.0,0.0,0.0,0.0,0.0,0.0,0.0,0.0,0.0,0.0,0.0,0.0,0.0,0.0,0.0,0.0,0.0,0.0,0.0,0.0,0.0,0.0,0.0,0.0,0.0,0.0,0.0,0.0,0.0,0.0,0.0,0.0,0.0,0.0,0.0,0.0,0.0,0.0,0.0,0.0,0.0,0.0,0.0,0.0,0.0,0.0,0.0,0.0,0.0,0.0,0.0,0.0,0.0,-1.9276,-1.9435,-1.8487,-1.7549,0.0,0.0,0.0,0.0,0.0,0.0,0.0,0.0,0.0,0.0,0.0,0.0,0.0,0.0,0.0,0.0,0.0,0.0,0.0,0.0,0.0,0.0,0.0,0.0,0.0,0.0,0.0,0.0,0.0,0.0,0.0,0.0,0.0,0.0,0.0,0.0,0.0,0.0,0.0,0.0,0.0,0.0,0.0,0.0,0.0,0.0,0.0,0.0,0.0,0.0,0.0,0.0,0.0,0.0,0.0,0.0,0.0,0.0,0.0,0.0,0.0,0.0,0.0,0.0,0.0,0.0,0.0,0.0,0.0,0.0,0.0,0.0,0.0,0.0,0.0,0.0,0.0,0.0,0.0,0.0,0.0,0.0,0.0,0.0,0.0,0.0,0.0,0.0,0.0,0.0,0.0,0.0,0.0,0.0,0.0,0.0,0.0,0.0,0.0,0.0,0.0,0.0,0.0,0.0,0.0,0.0,0.0,0.0,0.0,0.0,-1.9882,-1.9862,-2.0411,-1.9327,-1.8293,-1.7443,0.0,0.0,0.0,0.0,0.0,0.0,0.0,0.0,0.0,0.0,0.0,0.0,0.0,0.0,0.0,0.0,0.0,0.0,0.0,0.0,0.0,0.0,0.0,0.0,0.0,0.0,0.0,0.0,0.0,0.0,0.0,0.0,0.0,0.0,0.0,0.0,0.0,0.0,0.0,0.0,0.0,0.0,0.0,0.0,0.0,0.0,0.0,0.0,0.0,0.0,0.0,0.0,0.0,0.0,0.0,0.0,0.0,0.0,0.0,0.0,0.0,0.0,0.0,0.0,0.0,0.0,0.0,0.0,0.0,0.0,0.0,0.0,0.0,0.0,0.0,0.0,0.0,0.0,0.0,0.0,0.0,0.0,0.0,0.0,0.0,0.0,0.0,0.0,0.0,0.0,0.0,0.0,0.0,0.0,0.0,0.0,0.0,0.0,0.0,0.0,0.0,0.0,0.0,0.0,0.0,0.0,0.0,0.0,-2.0516,-2.0458,-2.0458,-2.0497,-2.0419,-1.9992,0.0,0.0,0.0,0.0,0.0,0.0,0.0,0.0,0.0,0.0,0.0,0.0,0.0,0.0,0.0,0.0,0.0,0.0,0.0,0.0,0.0,0.0,0.0,0.0,0.0,0.0,0.0,0.0,0.0,0.0,0.0,0.0,0.0,0.0,0.0,0.0,0.0,0.0,0.0,0.0,0.0,0.0,0.0,0.0,0.0,0.0,0.0,0.0,0.0,0.0,0.0,0.0,0.0,0.0,0.0,0.0,0.0,0.0,0.0,0.0,0.0,0.0,0.0,0.0,0.0,0.0,0.0,0.0,0.0,0.0,0.0,0.0,0.0,0.0,0.0,0.0,0.0,0.0,0.0,0.0,0.0,0.0,0.0,0.0,0.0,0.0,0.0,0.0,0.0,0.0,0.0,0.0,0.0,0.0,0.0,0.0,0.0,0.0,0.0,0.0,0.0,0.0,0.0,0.0,0.0,0.0,0.0,0.0,0.0,-2.0516,-2.0543,-2.0543,-2.048,-2.0018,-1.9589,0.0,0.0,0.0,0.0,0.0,0.0,0.0,0.0,0.0,0.0,0.0,0.0,0.0,0.0,0.0,0.0,0.0,0.0,0.0,0.0,0.0,0.0,0.0,0.0,0.0,0.0,0.0,0.0,0.0,0.0,0.0,0.0,0.0,0.0,0.0,0.0,0.0,0.0,0.0,0.0,0.0,0.0,0.0,0.0,0.0,0.0,0.0,0.0,0.0,0.0,0.0,0.0,0.0,0.0,0.0,0.0,0.0,0.0,0.0,0.0,0.0,0.0,0.0,0.0,0.0,0.0,0.0,0.0,0.0,0.0,0.0,0.0,0.0,0.0,0.0,0.0,0.0,0.0,0.0,0.0,0.0,0.0,0.0,0.0,0.0,0.0,0.0,0.0,0.0,0.0,0.0,0.0,0.0,0.0,0.0,0.0,0.0,0.0,0.0,0.0,0.0,0.0,0.0,0.0,0.0,0.0,0.0,0.0,0.0,-2.0513,0.0,-2.0537,-2.0476,-1.9992,-1.9698,0.0,0.0,0.0,0.0,0.0,0.0,0.0,0.0,0.0,0.0,0.0,0.0,0.0,0.0,0.0,0.0,0.0,0.0,0.0,0.0,0.0,0.0,0.0,0.0,0.0,0.0,0.0,0.0,0.0,0.0,0.0,0.0,0.0,0.0,0.0,0.0,0.0,0.0,0.0,0.0,0.0,0.0,0.0,0.0,0.0,0.0,0.0,0.0,0.0,0.0,0.0,0.0,0.0,0.0,0.0,0.0,0.0,0.0,0.0,0.0,0.0,0.0,0.0,0.0,0.0,0.0,0.0,0.0,0.0,0.0,0.0,0.0,0.0,0.0,0.0,0.0,0.0,0.0,0.0,0.0,0.0,0.0,0.0,0.0,0.0,0.0,0.0,0.0,0.0,0.0,0.0,0.0,0.0,0.0,0.0,0.0,0.0,0.0,0.0,0.0,0.0,0.0,0.0,0.0,0.0,0.0,0.0,0.0,-2.0597,-2.0508,-2.0527,-2.0566,-2.0527,-2.0488,-2.0507,0.0,0.0,0.0,0.0,0.0,0.0,0.0,0.0,0.0,0.0,0.0,0.0,0.0,0.0,0.0,0.0,0.0,0.0,0.0,0.0,0.0,0.0,0.0,0.0,0.0,0.0,0.0,0.0,0.0,0.0,0.0,0.0,0.0,0.0,0.0,0.0,0.0,0.0,0.0,0.0,0.0,0.0,0.0,0.0,0.0,0.0,0.0,0.0,0.0,0.0,0.0,0.0,0.0,0.0,0.0,0.0,0.0,0.0,0.0,0.0,0.0,0.0,0.0,0.0,0.0,0.0,0.0,0.0,0.0,0.0,0.0,0.0,0.0,0.0,0.0,0.0,0.0,0.0,0.0,0.0,0.0,0.0,0.0,0.0,0.0,0.0,0.0,0.0,0.0,0.0,0.0,0.0,0.0,0.0,0.0,0.0,0.0,0.0,0.0,0.0,0.0,0.0,0.0,0.0,0.0,0.0,0.0,0.0,0.0,-2.0521,-2.1085,-2.1398,-2.1378,-2.0813,-2.0779,0.0,0.0,0.0,0.0,0.0,0.0,0.0,0.0,0.0,0.0,0.0,0.0,0.0,0.0,0.0,0.0,0.0,0.0,0.0,0.0,0.0,0.0,0.0,0.0,0.0,0.0,0.0,0.0,0.0,0.0,0.0,0.0,0.0,0.0,0.0,0.0,0.0,0.0,0.0,0.0,0.0,0.0,0.0,0.0,0.0,0.0,0.0,0.0,0.0,0.0,0.0,0.0,0.0,0.0,0.0,0.0,0.0,0.0,0.0,0.0,0.0,0.0,0.0,0.0,0.0,0.0,0.0,0.0,0.0,0.0,0.0,0.0,0.0,0.0,0.0,0.0,0.0,0.0,0.0,0.0,0.0,0.0,0.0,0.0,0.0,0.0,0.0,0.0,0.0,0.0,0.0,0.0,0.0,0.0,0.0,0.0,0.0,0.0,0.0,0.0,0.0,0.0,0.0,0.0,0.0,0.0,0.0,0.0,0.0,-2.1984,-2.2753,-2.3052,-2.274,-2.2196,-2.1721,-2.1326,0.0,0.0,0.0,0.0,0.0,0.0,0.0,0.0,0.0,0.0,0.0,0.0,0.0,0.0,0.0,0.0,0.0,0.0,0.0,0.0,0.0,0.0,0.0,0.0,0.0,0.0,0.0,0.0,0.0,0.0,0.0,0.0,0.0,0.0,0.0,0.0,0.0,0.0,0.0,0.0,0.0,0.0,0.0,0.0,0.0,0.0,0.0,0.0,0.0,0.0,0.0,0.0,0.0,0.0,0.0,0.0,0.0,0.0,0.0,0.0,0.0,0.0,0.0,0.0,0.0,0.0,0.0,0.0,0.0,0.0,0.0,0.0,0.0,0.0,0.0,0.0,0.0,0.0,0.0,0.0,0.0,0.0,0.0,0.0,0.0,0.0,0.0,0.0,0.0,0.0,0.0,0.0,0.0,0.0,0.0,0.0,0.0,0.0,0.0,0.0,0.0,0.0,0.0,0.0,0.0,0.0,0.0,0.0,-2.4508,-2.5503,-2.558,-2.4654,-2.4343,-2.3153,0.0,0.0,0.0,0.0,0.0,0.0,0.0,0.0,0.0,0.0,0.0,0.0,0.0,0.0,0.0,0.0,0.0,0.0,0.0,0.0,0.0,0.0,0.0,0.0,0.0,0.0,0.0,0.0,0.0,0.0,0.0,0.0,0.0,0.0,0.0,0.0,0.0,0.0,0.0,0.0,0.0,0.0,0.0,0.0,0.0,0.0,0.0,0.0,0.0,0.0,0.0,0.0,0.0,0.0,0.0,0.0,0.0,0.0,0.0,0.0,0.0,0.0,0.0,0.0,0.0,0.0,0.0,0.0,0.0,0.0,0.0,0.0,0.0,0.0,0.0,0.0,0.0,0.0,0.0,0.0,0.0,0.0,0.0,0.0,0.0,0.0,0.0,0.0,0.0,0.0,0.0,0.0,0.0,0.0,0.0,0.0,0.0,0.0,0.0,0.0,0.0,0.0,0.0,0.0,0.0,0.0,0.0,0.0,0.0,-2.7135,-2.9788,-3.021,-2.8087,-2.501,-2.3631,0.0,0.0,0.0,0.0,0.0,0.0,0.0,0.0,0.0,0.0,0.0,0.0,0.0,0.0,0.0,0.0,0.0,0.0,0.0,0.0,0.0,0.0,0.0,0.0,0.0,0.0,0.0,0.0,0.0,0.0,0.0,0.0,0.0,0.0,0.0,0.0,0.0,0.0,0.0,0.0,0.0,0.0,0.0,0.0,0.0,0.0,0.0,0.0,0.0,0.0,0.0,0.0,0.0,0.0,0.0,0.0,0.0,0.0,0.0,0.0,0.0,0.0,0.0,0.0,0.0,0.0,0.0,0.0,0.0,0.0,0.0,0.0,0.0,0.0,0.0,0.0,0.0,0.0,0.0,0.0,0.0,0.0,0.0,0.0,0.0,0.0,0.0,0.0,0.0,0.0,0.0,0.0,0.0,0.0,0.0,0.0,0.0,0.0,0.0,0.0,0.0,0.0,0.0,0.0,0.0,0.0,0.0,0.0,-2.6909,-2.8623,-3.167,-3.2873,-3.2113,-2.7944,-2.5447,0.0,0.0,0.0,0.0,0.0,0.0,0.0,0.0,0.0,0.0,0.0,0.0,0.0,0.0,0.0,0.0,0.0,0.0,0.0,0.0,0.0,0.0,0.0,0.0,0.0,0.0,0.0,0.0,0.0,0.0,0.0,0.0,0.0,0.0,0.0,0.0,0.0,0.0,0.0,0.0,0.0,0.0,0.0,0.0,0.0,0.0,0.0,0.0,0.0,0.0,0.0,0.0,0.0,0.0,0.0,0.0,0.0,0.0,0.0,0.0,0.0,0.0,0.0,0.0,0.0,0.0,0.0,0.0,0.0,0.0,0.0,0.0,0.0,0.0,0.0,0.0,0.0,0.0,0.0,0.0,0.0,0.0,0.0,0.0,0.0,0.0,0.0,0.0,0.0,0.0,0.0,0.0,0.0,0.0,0.0,0.0,0.0,0.0,0.0,0.0,0.0,0.0,0.0,0.0,0.0,0.0,0.0,0.0,-2.788,-2.9627,-3.221,-3.4259,-3.5581,-3.1568,-2.7799,0.0,0.0,0.0,0.0,0.0,0.0,0.0,0.0,0.0,0.0,0.0,0.0,0.0,0.0,0.0,0.0,0.0,0.0,0.0,0.0,0.0,0.0,0.0,0.0,0.0,0.0,0.0,0.0,0.0,0.0,0.0,0.0,0.0,0.0,0.0,0.0,0.0,0.0,0.0,0.0,0.0,0.0,0.0,0.0,0.0,0.0,0.0,0.0,0.0,0.0,0.0,0.0,0.0,0.0,0.0,0.0,0.0,0.0,0.0,0.0,0.0,0.0,0.0,0.0,0.0,0.0,0.0,0.0,0.0,0.0,0.0,0.0,0.0,0.0,0.0,0.0,0.0,0.0,0.0,0.0,0.0,0.0,0.0,0.0,0.0,0.0,0.0,0.0,0.0,0.0,0.0,0.0,0.0,0.0,0.0,0.0,0.0,0.0,0.0,0.0,0.0,0.0,0.0,0.0,0.0,0.0,0.0,0.0,-2.8911,-3.1264,-3.3839,-3.5349,-3.5678,-3.0961,-2.8039,0.0,0.0,0.0,0.0,0.0,0.0,0.0,0.0,0.0,0.0,0.0,0.0,0.0,0.0,0.0,0.0,0.0,0.0,0.0,0.0,0.0,0.0,0.0,0.0,0.0,0.0,0.0,0.0,0.0,0.0,0.0,0.0,0.0,0.0,0.0,0.0,0.0,0.0,0.0,0.0,0.0,0.0,0.0,0.0,0.0,0.0,0.0,0.0,-2.2092,0.0,0.0,0.0,0.0,0.0,0.0,0.0,0.0,0.0,0.0,0.0,0.0,0.0,0.0,0.0,0.0,0.0,0.0,0.0,0.0,0.0,0.0,0.0,0.0,0.0,0.0,0.0,0.0,0.0,0.0,0.0,0.0,0.0,0.0,0.0,0.0,0.0,0.0,0.0,0.0,0.0,0.0,0.0,0.0,0.0,0.0,0.0,0.0,0.0,0.0,0.0,0.0,0.0,0.0,0.0,0.0,0.0,0.0,0.0,-2.9907,-3.2406,-3.4584,-3.5697,-3.557,-3.2309,-2.9721,0.0,0.0,0.0,0.0,0.0,0.0,0.0,0.0,0.0,0.0,0.0,0.0,0.0,0.0,0.0,0.0,0.0,0.0,0.0,0.0,0.0,0.0,0.0,0.0,0.0,0.0,0.0,0.0,0.0,0.0,0.0,0.0,0.0,0.0,0.0,0.0,0.0,0.0,0.0,0.0,0.0,0.0,0.0,0.0,0.0,0.0,0.0,0.0,0.0,0.0,0.0,0.0,0.0,0.0,0.0,0.0,0.0,0.0,0.0,0.0,0.0,0.0,0.0,0.0,0.0,0.0,0.0,0.0,0.0,0.0,0.0,0.0,0.0,0.0,0.0,0.0,0.0,0.0,0.0,0.0,0.0,0.0,0.0,0.0,0.0,0.0,0.0,0.0,0.0,0.0,0.0,0.0,0.0,0.0,0.0,0.0,0.0,0.0,0.0,0.0,0.0,0.0,0.0,0.0,0.0,0.0,0.0,-2.8133,-3.0621,-3.348,-3.4982,-3.5708,-3.5669,-3.4081,-3.1612,-2.8343,0.0,0.0,0.0,0.0,0.0,0.0,0.0,0.0,0.0,0.0,0.0,0.0,0.0,0.0,0.0,0.0,0.0,0.0,0.0,0.0,0.0,0.0,0.0,0.0,0.0,0.0,0.0,0.0,0.0,0.0,0.0,0.0,0.0,0.0,0.0,0.0,0.0,0.0,-1.7229,-1.925,0.0,0.0,0.0,0.0,0.0,0.0,0.0,0.0,-2.246,0.0,0.0,0.0,0.0,0.0,0.0,0.0,0.0,0.0,0.0,0.0,0.0,0.0,0.0,0.0,0.0,0.0,0.0,0.0,0.0,0.0,0.0,0.0,0.0,0.0,0.0,0.0,0.0,0.0,0.0,0.0,0.0,0.0,0.0,0.0,0.0,0.0,0.0,0.0,0.0,0.0,0.0,0.0,0.0,0.0,0.0,0.0,0.0,0.0,0.0,0.0,0.0,0.0,0.0,0.0,0.0,-2.8595,-2.8391,-3.0519,-3.5154,-3.554,-3.5695,-3.5657,-3.4012,-3.1855,-2.9186,0.0,0.0,0.0,0.0,0.0,0.0,0.0,0.0,0.0,0.0,0.0,0.0,0.0,0.0,0.0,0.0,0.0,0.0,0.0,0.0,0.0,0.0,0.0,0.0,0.0,0.0,0.0,0.0,0.0,0.0,0.0,0.0,0.0,0.0,0.0,0.0,0.0,0.0,0.0,-2.1224,-2.2094,0.0,0.0,0.0,0.0,0.0,0.0,0.0,0.0,-2.3957,0.0,0.0,0.0,0.0,0.0,0.0,0.0,0.0,0.0,0.0,0.0,0.0,0.0,0.0,0.0,0.0,0.0,0.0,0.0,0.0,0.0,0.0,0.0,0.0,0.0,0.0,0.0,0.0,0.0,0.0,0.0,0.0,0.0,0.0,0.0,0.0,0.0,0.0,0.0,0.0,0.0,0.0,0.0,0.0,0.0,0.0,0.0,0.0,0.0,0.0,0.0,0.0,0.0,0.0,0.0,-2.9108,-3.0192,-3.2493,-3.6149,-3.5916,-3.5704,-3.5665,-3.4021,-3.1913,0.0,0.0,0.0,0.0,0.0,0.0,0.0,0.0,0.0,0.0,0.0,0.0,0.0,0.0,0.0,0.0,0.0,0.0,0.0,0.0,0.0,0.0,0.0,0.0,0.0,0.0,0.0,0.0,0.0,0.0,0.0,0.0,0.0,0.0,0.0,0.0,0.0,0.0,0.0,0.0,-2.291,-2.39,-2.5129,0.0,0.0,0.0,0.0,0.0,0.0,-2.4151,-2.3461,0.0,0.0,0.0,0.0,0.0,0.0,0.0,0.0,0.0,0.0,0.0,0.0,0.0,0.0,0.0,0.0,0.0,0.0,0.0,0.0,0.0,0.0,0.0,0.0,0.0,0.0,0.0,0.0,0.0,0.0,0.0,0.0,0.0,0.0,0.0,0.0,0.0,0.0,0.0,0.0,0.0,0.0,0.0,0.0,0.0,0.0,0.0,0.0,0.0,0.0,0.0,0.0,0.0,0.0,0.0,-2.9282,-3.1971,-3.4601,-3.7019,-3.6535,-3.6207,-3.6168,-3.404,-3.1816,0.0,0.0,0.0,0.0,0.0,0.0,0.0,0.0,0.0,0.0,0.0,0.0,0.0,0.0,0.0,0.0,0.0,0.0,0.0,0.0,0.0,0.0,0.0,0.0,0.0,0.0,0.0,0.0,0.0,0.0,0.0,0.0,0.0,0.0,0.0,0.0,0.0,0.0,0.0,0.0,0.0,-2.5786,-2.6237,-2.5767,0.0,0.0,0.0,0.0,-2.5437,-2.5026,0.0,0.0,0.0,0.0,0.0,0.0,0.0,0.0,0.0,0.0,0.0,0.0,0.0,0.0,0.0,0.0,0.0,0.0,0.0,0.0,0.0,0.0,0.0,0.0,0.0,0.0,0.0,0.0,0.0,0.0,0.0,0.0,0.0,0.0,0.0,0.0,0.0,0.0,0.0,0.0,0.0,0.0,0.0,0.0,0.0,0.0,0.0,0.0,0.0,0.0,0.0,0.0,0.0,0.0,0.0,0.0,-2.9321,-3.257,-3.5491,-3.7909,-3.7947,-3.7909,-3.787,-3.404,-3.1468,0.0,0.0,0.0,0.0,0.0,0.0,0.0,0.0,0.0,0.0,0.0,0.0,0.0,0.0,0.0,0.0,0.0,0.0,0.0,0.0,0.0,0.0,0.0,0.0,0.0,0.0,0.0,0.0,0.0,0.0,0.0,0.0,0.0,0.0,0.0,0.0,0.0,0.0,0.0,0.0,0.0,-2.7077,-2.6472,-2.6263,-2.5837,0.0,0.0,-2.8728,-2.8103,-3.0321,0.0,0.0,0.0,0.0,0.0,0.0,0.0,0.0,0.0,0.0,0.0,0.0,0.0,0.0,0.0,0.0,0.0,0.0,0.0,0.0,0.0,0.0,0.0,0.0,0.0,0.0,0.0,0.0,0.0,0.0,0.0,0.0,0.0,0.0,0.0,0.0,0.0,0.0,0.0,0.0,0.0,0.0,0.0,0.0,0.0,0.0,0.0,0.0,0.0,0.0,0.0,0.0,0.0,0.0,0.0,-2.8431,-3.0114,-3.435,-3.7348,-3.8856,-3.845,-3.8218,-3.8199,-3.404,-3.1642,0.0,0.0,0.0,0.0,0.0,0.0,0.0,0.0,0.0,0.0,0.0,0.0,0.0,0.0,0.0,0.0,0.0,0.0,0.0,0.0,0.0,0.0,0.0,0.0,0.0,0.0,0.0,0.0,0.0,0.0,0.0,0.0,0.0,0.0,0.0,0.0,0.0,0.0,0.0,0.0,0.0,0.0,-2.7509,-2.7929,0.0,0.0,0.0,-2.9605,-2.9194,0.0,0.0,0.0,0.0,0.0,0.0,0.0,0.0,0.0,0.0,0.0,0.0,0.0,0.0,0.0,0.0,0.0,0.0,0.0,0.0,0.0,0.0,0.0,0.0,0.0,0.0,0.0,0.0,0.0,0.0,0.0,0.0,0.0,0.0,0.0,0.0,0.0,0.0,0.0,0.0,0.0,0.0,0.0,0.0,0.0,0.0,0.0,0.0,0.0,0.0,0.0,0.0,0.0,0.0,0.0,0.0,0.0,-3.0694,-3.6052,-3.9166,-3.9765,-3.9185,-3.8856,-3.8779,-3.5104,0.0,0.0,0.0,0.0,0.0,0.0,0.0,0.0,0.0,0.0,0.0,0.0,0.0,0.0,0.0,0.0,0.0,0.0,0.0,0.0,0.0,0.0,0.0,0.0,0.0,0.0,0.0,-1.6605,0.0,0.0,0.0,0.0,0.0,0.0,0.0,0.0,0.0,0.0,0.0,0.0,0.0,0.0,-2.7955,-2.8332,-2.9495,-3.0302,0.0,0.0,-3.0696,-3.0903,-3.263,-3.263,0.0,0.0,0.0,0.0,0.0,0.0,0.0,0.0,0.0,0.0,0.0,0.0,0.0,0.0,0.0,0.0,0.0,0.0,0.0,0.0,0.0,0.0,0.0,0.0,0.0,0.0,0.0,0.0,0.0,0.0,0.0,0.0,0.0,0.0,0.0,0.0,0.0,0.0,0.0,0.0,0.0,0.0,0.0,0.0,0.0,0.0,0.0,0.0,0.0,0.0,0.0,0.0,0.0,0.0,0.0,-3.0849,-3.7212,-4.0616,-4.0713,-4.0674,-4.0616,-4.0578,-3.7986,-3.5046,0.0,0.0,0.0,0.0,0.0,0.0,0.0,0.0,0.0,0.0,0.0,0.0,0.0,0.0,0.0,0.0,0.0,0.0,0.0,0.0,0.0,0.0,0.0,0.0,0.0,0.0,0.0,0.0,0.0,0.0,0.0,0.0,0.0,0.0,0.0,0.0,0.0,0.0,0.0,0.0,0.0,-2.927,-2.8501,-3.0434,-3.1936,0.0,0.0,-3.3419,-3.4151,-3.6953,-3.7174,-3.156,0.0,0.0,0.0,0.0,0.0,0.0,0.0,0.0,0.0,0.0,0.0,0.0,0.0,0.0,0.0,0.0,0.0,0.0,0.0,0.0,0.0,0.0,0.0,0.0,0.0,0.0,0.0,0.0,0.0,0.0,0.0,0.0,0.0,0.0,0.0,0.0,0.0,0.0,0.0,0.0,0.0,0.0,0.0,0.0,0.0,0.0,0.0,0.0,0.0,0.0,0.0,0.0,0.0,-3.141,-3.0694,-3.7328,-4.079,-4.079,-4.079,-4.079,-4.079,-3.8257,-3.5549,0.0,0.0,0.0,0.0,0.0,0.0,0.0,0.0,0.0,0.0,0.0,0.0,0.0,0.0,0.0,0.0,0.0,0.0,0.0,0.0,0.0,0.0,0.0,0.0,0.0,0.0,0.0,0.0,-2.3455,-2.3986,-2.3208,0.0,0.0,0.0,0.0,0.0,0.0,0.0,0.0,0.0,0.0,-3.0114,-3.1296,-3.3175,0.0,0.0,-3.5146,-3.5409,-3.4695,-3.6535,-3.6254,-3.1016,-3.0152,0.0,0.0,0.0,0.0,0.0,0.0,0.0,0.0,0.0,0.0,0.0,0.0,0.0,0.0,0.0,0.0,0.0,0.0,0.0,0.0,0.0,0.0,0.0,0.0,0.0,0.0,0.0,0.0,0.0,0.0,0.0,0.0,0.0,0.0,0.0,0.0,0.0,0.0,0.0,0.0,0.0,0.0,0.0,0.0,0.0,0.0,0.0,0.0,0.0,0.0,0.0,0.0,-3.1777,-3.1004,-3.7444,-4.079,-4.079,-4.079,-4.079,-4.0752,-3.903,-3.6864,0.0,0.0,0.0,0.0,0.0,0.0,0.0,0.0,0.0,0.0,0.0,0.0,0.0,0.0,0.0,0.0,0.0,0.0,0.0,0.0,0.0,0.0,0.0,0.0,0.0,0.0,0.0,0.0,-2.4708,-2.4865,-2.3784,0.0,0.0,0.0,0.0,0.0,0.0,0.0,0.0,0.0,0.0,-3.1692,-3.3212,-3.462,-3.5428,-3.5184,-3.539,-3.5353,-3.4695,-3.5559,-3.5071,-3.141,0.0,0.0,0.0,0.0,0.0,0.0,0.0,0.0,0.0,0.0,0.0,0.0,0.0,0.0,0.0,0.0,0.0,0.0,0.0,0.0,0.0,0.0,0.0,0.0,0.0,0.0,0.0,0.0,0.0,0.0,0.0,0.0,0.0,0.0,0.0,0.0,0.0,0.0,0.0,0.0,0.0,0.0,0.0,0.0,0.0,0.0,0.0,0.0,0.0,0.0,0.0,0.0,0.0,-3.2618,-3.1864,-3.7715,-4.079,-4.079,-4.079,-4.079,-4.079,-4.0713,-3.9475,-3.6826,0.0,0.0,0.0,0.0,0.0,0.0,0.0,0.0,0.0,0.0,0.0,0.0,0.0,0.0,0.0,0.0,0.0,0.0,0.0,0.0,0.0,0.0,0.0,0.0,0.0,0.0,-1.9452,-2.1763,-2.3708,0.0,0.0,0.0,0.0,0.0,0.0,0.0,0.0,0.0,0.0,-3.2424,-3.4189,-3.3513,-3.4113,-3.4414,-3.3719,-3.2874,-3.2818,-3.4395,-3.462,-3.4358,0.0,0.0,0.0,0.0,0.0,0.0,0.0,0.0,0.0,0.0,0.0,0.0,0.0,0.0,0.0,0.0,0.0,0.0,0.0,0.0,0.0,0.0,0.0,0.0,0.0,0.0,0.0,-1.8466,-1.8532,0.0,0.0,0.0,0.0,0.0,0.0,0.0,0.0,0.0,0.0,0.0,-2.6737,-2.7018,0.0,0.0,0.0,0.0,0.0,0.0,0.0,0.0,0.0,0.0,0.0,0.0,-3.2657,-3.2126,-3.7754,-4.079,-4.079,-4.079,-4.079,-4.079,-4.079,-3.9572,-3.6961,0.0,0.0,0.0,0.0,0.0,0.0,0.0,0.0,0.0,0.0,0.0,0.0,0.0,0.0,0.0,0.0,0.0,0.0,0.0,0.0,0.0,0.0,0.0,0.0,0.0,-2.3065,0.0,0.0,0.0,0.0,0.0,0.0,0.0,0.0,0.0,0.0,0.0,-2.8519,-3.0959,-3.1804,-3.2443,-3.3287,-3.4076,-3.509,0.0,0.0,0.0,0.0,0.0,0.0,0.0,0.0,0.0,0.0,0.0,0.0,0.0,0.0,-3.1058,-2.7602,-2.754,-2.8017,-2.7783,0.0,0.0,0.0,0.0,0.0,0.0,0.0,0.0,0.0,0.0,0.0,0.0,0.0,0.0,0.0,0.0,-2.208,0.0,0.0,0.0,0.0,0.0,0.0,0.0,0.0,-2.7478,-2.8913,-3.0152,-3.0434,-3.0847,0.0,-3.1205,-2.9358,0.0,0.0,0.0,0.0,0.0,0.0,0.0,0.0,-3.2822,-3.2502,-3.7889,-4.079,-4.079,-4.079,-4.079,-4.079,-4.079,-3.9997,-3.8295,-3.524,-3.2957,0.0,0.0,0.0,0.0,0.0,0.0,0.0,0.0,0.0,0.0,0.0,0.0,0.0,0.0,0.0,0.0,0.0,0.0,0.0,0.0,0.0,0.0,0.0,-2.4704,0.0,0.0,0.0,0.0,0.0,0.0,0.0,0.0,0.0,-2.7655,-2.9082,-3.0847,-3.2724,-3.325,-3.3362,-3.2987,0.0,0.0,0.0,0.0,0.0,0.0,0.0,-3.2611,-3.1595,-3.2304,-3.2896,-3.2647,-3.38,-3.4587,-3.4011,0.0,0.0,-3.1026,-3.0973,-3.1515,-3.1684,-3.1475,-3.1352,-3.1651,-3.1703,-3.1703,0.0,0.0,0.0,0.0,0.0,0.0,0.0,0.0,-2.7978,-2.7911,0.0,-2.6318,0.0,0.0,0.0,0.0,0.0,0.0,0.0,0.0,-3.4534,-3.5728,-3.3682,-3.4339,-3.4714,-3.4717,-3.4188,-3.3536,-3.2768,-3.2072,0.0,0.0,0.0,0.0,0.0,0.0,-3.316,-3.3392,-3.8276,-4.0848,-4.0848,-4.0887,-4.0887,-4.0906,-4.0906,-4.0868,-4.0732,-3.8373,-3.6632,-3.5684,-3.1004,0.0,0.0,0.0,0.0,0.0,0.0,0.0,0.0,0.0,0.0,0.0,0.0,0.0,0.0,0.0,0.0,0.0,0.0,0.0,0.0,-2.5574,0.0,0.0,0.0,0.0,0.0,0.0,0.0,0.0,0.0,0.0,-2.8763,-3.1296,-3.3644,-3.4358,0.0,0.0,0.0,0.0,-3.4714,-3.1765,-3.1166,-3.1523,-3.2443,-3.3776,-3.5259,-3.6836,0.0,0.0,-3.7679,-3.6648,-3.5753,-3.4478,-3.6106,-3.6724,-3.5302,-3.4356,-3.4004,-3.4653,-3.4266,-3.4003,-3.4618,-3.4828,-3.4846,-3.2184,0.0,0.0,0.0,0.0,-2.7441,-2.8104,-2.9644,-2.9487,-2.9423,-2.9423,-2.953,0.0,0.0,0.0,0.0,0.0,0.0,-3.0678,-3.237,-3.3834,-3.5315,-3.6911,-3.7136,-3.7568,-3.8155,-3.7999,-3.787,-3.7812,-3.7716,-3.4817,-2.9323,0.0,0.0,0.0,0.0,-3.4621,-3.5955,-3.9669,-4.1661,-4.1661,-4.226,-4.2589,-4.2589,-4.2589,-4.2299,-4.168,-4.0926,-3.9301,-3.6671,-3.5068,0.0,0.0,0.0,0.0,0.0,0.0,0.0,0.0,0.0,0.0,0.0,0.0,0.0,0.0,0.0,0.0,0.0,0.0,0.0,-2.5564,-2.7379,-2.7676,0.0,0.0,0.0,0.0,0.0,0.0,0.0,0.0,0.0,-3.1991,-3.2255,-3.2555,0.0,0.0,-3.1954,-3.1316,-3.2893,-3.462,-3.5972,0.0,0.0,0.0,-3.8094,-3.7582,-3.8646,-4.0052,-4.1074,-4.123,-4.1432,-4.1449,-4.1014,-4.1508,-4.1745,-4.1253,-3.9252,-3.783,-3.7918,-3.7795,-3.7707,-3.7918,-3.7988,-3.797,-3.5833,-3.199,-3.1333,-3.1352,-3.1777,-3.1193,-3.1873,-3.3415,-3.3294,-3.3192,-3.3119,-3.2932,-3.2289,-3.1255,-3.0544,0.0,0.0,0.0,-3.3494,-3.5859,-3.5859,-3.6892,-3.8751,-3.8807,-3.9142,-3.9708,-3.98,-3.9956,-4.012,-3.9651,-3.7016,-3.2444,0.0,0.0,-3.0926,-3.4195,-3.64,-3.7522,-4.079,-4.2512,-4.2512,-4.3034,-4.3305,-4.3305,-4.3305,-4.3053,-4.255,-4.2512,-4.1409,-3.903,-3.7899,-3.5514,0.0,0.0,0.0,0.0,0.0,0.0,0.0,0.0,0.0,0.0,0.0,-2.288,0.0,0.0,0.0,0.0,-2.6821,-2.8035,-2.8802,-2.9326,0.0,0.0,0.0,0.0,0.0,0.0,0.0,-2.9664,-3.2443,-3.4395,-3.4395,-3.4226,-3.4189,-3.4508,-3.4282,-3.3926,-3.3419,0.0,-3.7286,-3.8638,-3.8676,-3.937,-4.1597,-4.1323,-4.1102,-4.2081,-4.2963,-4.3487,-4.364,-4.4031,-4.4218,-4.3979,-4.3886,-4.3886,-4.3886,-4.2342,-4.113,-4.113,-4.1113,-4.113,-4.113,-4.1113,-4.113,-3.8659,-3.845,-3.6864,-3.6091,-3.5897,-3.5867,-3.6737,-3.8156,-3.8201,-3.8144,-3.7862,-3.6426,-3.5162,-3.4035,-3.2373,0.0,0.0,-3.5848,-3.7408,-3.9631,-3.9631,-3.965,-3.965,-3.9631,-3.9731,-3.9916,-4.012,-4.0342,-4.0527,-3.9193,-3.8013,-3.7135,-3.7116,-3.58,-3.3518,-3.6458,-3.816,-3.8353,-4.1467,-4.3227,-4.3498,-4.3498,-4.3518,-4.3518,-4.3498,-4.3479,-4.3421,-4.3421,-4.2995,-4.2086,-3.9881,-3.8105,-3.6839,0.0,0.0,0.0,0.0,0.0,0.0,0.0,0.0,0.0,0.0,0.0,0.0,0.0,0.0,0.0,-2.9915,0.0,-3.3414,-3.1464,0.0,0.0,0.0,-3.0527,-3.2123,-3.3062,-3.3607,-3.3607,0.0,0.0,0.0,0.0,-3.7756,-3.8676,-3.984,-3.9783,-3.7629,-3.9915,-4.1605,-4.029,-4.0778,-4.1605,-4.2806,-4.3951,-4.5151,-4.6145,-4.6554,-4.6084,-4.5319,-4.5,-4.4759,-4.4307,-4.4097,-4.4132,-4.4097,-4.4062,-4.4079,-4.4009,-4.3869,-4.3799,-4.3658,-4.3641,-4.3588,-4.2105,-4.2002,-4.0926,-3.9398,-3.7607,-3.7443,-3.7602,-3.8007,-3.8489,-3.8695,-3.868,-3.8948,-3.8895,-3.8594,-3.8019,-3.8171,-3.8861,-3.8928,-3.9345,-4.0041,-4.006,-4.006,-4.006,-4.006,-4.008,-4.0139,-4.0177,-4.063,-4.1373,-4.1054,-4.0183,-3.8953,-3.8887,-3.727,-3.4311,-3.6168,-3.7851,-3.9185,-4.0636,-4.2628,-4.5104,-4.52,-4.52,-4.522,-4.52,-4.4929,-4.4311,-4.4291,-4.3885,-4.3034,-4.2396,-4.1087,-3.8909,-3.4244,0.0,0.0,0.0,0.0,0.0,0.0,0.0,0.0,0.0,-2.4978,-2.1663,0.0,-2.7569,0.0,-3.1696,-3.4666,-3.4955,-3.4521,0.0,0.0,-3.2253,-3.218,-3.3832,-3.4771,-3.5315,-3.5315,-3.6742,-3.7981,-3.8638,-3.9408,-4.0703,-4.2675,-4.0647,-3.8901,-3.8995,-4.1267,-4.3106,-4.3388,-4.4515,-4.581,-4.6505,-4.7612,-4.8253,-4.8356,-4.7868,-4.732,-4.6868,-4.631,-4.5852,-4.5677,-4.5677,-4.5677,-4.5624,-4.5677,-4.5642,-4.5589,-4.4746,-4.3886,-4.3886,-4.3904,-4.3904,-4.3349,-4.3285,-4.2815,-4.1132,-3.8818,-3.9052,-3.9199,-3.9237,-3.9595,-3.9676,-3.9648,-4.004,-4.0196,-4.0196,-4.008,-4.0119,-4.0196,-4.008,-4.0291,-4.073,-4.0749,-4.0941,-4.1304,-4.1304,-4.1379,-4.1451,-4.1451,-4.1767,-4.2386,-4.2401,-4.1986,-4.1216,-4.1583,-4.0249,-3.7348,-3.7019,-3.7367,-3.8334,-4.0307,-4.2763,-4.5664,-4.58,-4.5258,-4.4156,-4.4098,-4.3189,-4.1255,-4.1158,-4.0616,-3.9417,-3.934,-3.8528,-3.6709,-3.3164,-3.0535,0.0,0.0,0.0,0.0,0.0,0.0,0.0,0.0,0.0,0.0,0.0,-2.9735,0.0,-3.3175,0.0,-3.4587,-3.4531,-3.4633,-3.488,-3.4828,-3.5431,-3.7079,-3.8021,-3.8552,-3.8571,-3.9721,-4.0703,-4.121,-4.2243,-4.3444,-4.4871,-4.3707,-4.275,-4.2975,-4.4421,-4.5641,-4.6129,-4.7256,-4.8251,-4.872,-4.9171,-4.9396,-4.9061,-4.864,-4.8139,-4.7494,-4.7053,-4.6649,-4.6319,-4.6189,-4.6189,-4.6189,-4.6189,-4.6189,-4.6067,-4.5536,-4.501,-4.4922,-4.494,-4.494,-4.3715,-4.3705,-4.3595,-4.224,-4.0203,-4.0848,-4.0752,-4.0152,-4.0133,-4.0243,-4.0385,-4.0528,-4.0612,-4.0612,-4.0576,-4.0557,-4.0593,-4.0557,-4.0939,-4.1627,-4.1646,-4.2048,-4.2775,-4.2794,-4.2867,-4.3038,-4.3038,-4.3177,-4.3479,-4.3479,-4.3343,-4.3169,-4.3904,-4.2995,-4.0481,-3.8199,-3.7077,-3.7096,-4.0307,-4.3073,-4.5239,-4.5007,-4.3769,-4.1641,-4.1525,-4.0075,-3.7058,-3.7,-3.6342,-3.4833,-3.4833,-3.4698,-3.4204,-3.1598,-2.9875,0.0,-2.6708,0.0,0.0,0.0,0.0,0.0,0.0,0.0,0.0,-3.1424,-3.2128,-3.2493,-3.4404,-3.5136,-3.4151,-3.4041,-3.495,-3.7113,-3.8103,-3.9193,-4.0614,-4.1453,-4.1975,-4.2069,-4.2817,-4.3332,-4.3595,-4.4853,-4.5697,-4.6092,-4.6993,-4.7406,-4.7425,-4.7763,-4.8194,-4.8363,-4.9002,-4.9321,-4.9396,-4.9471,-4.9396,-4.9061,-4.88,-4.8532,-4.7596,-4.7273,-4.7026,-4.6447,-4.6221,-4.6189,-4.6189,-4.6189,-4.6189,-4.6172,-4.6102,-4.6049,-4.6067,-4.6049,-4.6189,-4.5417,-4.5351,-4.4659,-4.4073,-4.3595,-4.3047,-4.0481,-3.6671,-3.6651,-3.78,-3.9805,-4.1826,-4.272,-4.272,-4.256,-4.256,-4.27,-4.2541,-4.2637,-4.2951,-4.2951,-4.3028,-4.3163,-4.3183,-4.3217,-4.3245,-4.3245,-4.3626,-4.4369,-4.4369,-4.3634,-4.228,-4.2415,-4.1235,0.0,0.0,0.0,0.0,-4.0636,-4.2241,-4.2628,-4.0694,-3.9417,-3.8934,-3.8934,0.0,-3.7019,-3.7599,-3.7483,-3.6516,-3.7116,0.0,0.0,0.0,0.0,0.0,0.0,0.0,0.0,0.0,0.0,0.0,-3.299,-3.2172,-3.0782,-3.134,-3.2664,-3.4641,-3.5268,-3.621,-3.7854,-3.8715,-3.9373,-3.9858,-4.0712,-4.1402,-4.1721,-4.189,-4.2235,-4.2948,-4.32,-4.382,-4.5003,-4.5528,-4.6223,-4.7425,-4.7988,-4.842,-4.8927,-4.9096,-4.9227,-4.9283,-4.9396,-4.9509,-4.9509,-4.9509,-4.9345,-4.8959,-4.8403,-4.7983,-4.7614,-4.6936,-4.6572,-4.6447,-4.6368,-4.6189,-4.6189,-4.6189,-4.6189,-4.6189,-4.6189,-4.6189,-4.6189,-4.6189,-4.6189,-4.5956,0.0,-4.5433,-4.4511,0.0,-4.2873,-4.0481,-3.7038,-3.8721,-4.0172,-4.1448,-4.2725,-4.3305,-4.3266,-4.2328,-4.1961,-4.2028,-4.1079,-4.1382,-4.2628,-4.2667,-4.3324,-4.4523,-4.4543,-4.4543,-4.4523,-4.4523,-4.4775,-4.5162,-4.52,-4.4736,-4.3866,-4.3885,-4.3227,-4.2009,-4.1951,-4.1351,-4.0094,-4.1351,-4.2609,-4.3769,-4.2609,-4.1351,-4.0152,0.0,0.0,0.0,0.0,0.0,0.0,0.0,0.0,0.0,0.0,0.0,-3.7945,-3.6348,-3.5698,-3.6576,-3.6629,-3.6961,-3.7832,-3.7883,-3.6842,-3.4431,-3.5752,-3.7229,-3.8465,-3.8569,-3.9044,-4.0235,-4.0821,-4.112,-4.1166,-4.1941,-4.2436,-4.2529,-4.2912,-4.3333,-4.3765,-4.4205,-4.4834,-4.5604,-4.6486,-4.7218,-4.8063,-4.8589,-4.9002,-4.9396,-4.9509,-4.9509,-4.9509,-4.9509,-4.9509,-4.9509,-4.9509,-4.9377,-4.8993,-4.864,-4.8234,-4.7756,-4.7204,-4.6771,-4.6619,-4.635,-4.6221,-4.6189,-4.6189,-4.6189,-4.6189,-4.6189,-4.6189,-4.6189,-4.6189,-4.6189,-4.6366,-4.623,-4.6174,-4.4858,-4.2799,-4.2724,-4.1499,-3.9719,0.0,0.0,0.0,-4.3537,-4.375,-4.3634,-4.228,-4.168,-4.1583,-4.0191,-4.0674,-4.2647,-4.2667,-4.3769,-4.5761,-4.58,-4.58,-4.58,-4.58,-4.58,-4.58,-4.58,-4.58,-4.58,-4.58,-4.58,-4.58,-4.58,-4.4775,-4.2763,-4.2222,-4.3015,-4.5026,-4.4697,-4.346,-4.1371,-4.1332,-3.9939,-3.7038,-3.7038,-3.6748,-3.5974,-3.6052,-3.6342,-3.6787,-3.6806,-3.7019,-3.7382,-3.7289,-3.8005,-3.9699,-3.9726,-4.0368,-4.2043,-4.2106,-4.1091,-3.8838,-4.0505,-4.1706,-4.182,-4.1716,-4.1706,-4.1725,-4.1845,-4.1882,-4.1969,-4.2696,-4.322,-4.3315,-4.3933,-4.4393,-4.4655,-4.5218,-4.5848,-4.6204,-4.7312,-4.8269,-4.8476,-4.902,-4.9509,-4.9509,-4.9509,-4.9509,-4.9509,-4.9509,-4.9509,-4.9509,-4.9509,-4.9345,-4.9027,-4.8906,-4.8586,-4.7959,-4.7488,-4.7097,-4.6666,-4.6368,-4.6239,-4.6189,-4.6189,-4.6189,-4.6189,-4.6189,-4.6189,-4.6189,-4.6189,-4.6189,-4.7794,-4.7114,-4.7109,-4.6445,-4.5456,-4.5382,-4.5144,-4.4692,-4.297,-4.2202,-4.2318,-4.4504,-4.5432,-4.5432,-4.52,-4.5084,-4.5084,-4.4833,-4.4929,0.0,-4.5258,-4.5452,-4.58,-4.58,-4.58,-4.58,-4.58,-4.58,-4.58,-4.58,-4.58,-4.58,-4.58,-4.58,-4.58,-4.58,-4.5626,-4.522,-4.3111,-4.2164,-4.2492,-4.0384,-3.9108,-3.8779,-3.8856,-3.8179,-3.698,-3.7696,-3.7638,-3.6787,-3.7464,-3.8837,-4.0945,-4.1081,-4.2086,-4.4136,-4.4336,-4.4306,-4.4183,-4.4176,-4.4099,-4.3961,-4.393,-4.3154,-4.1371,-4.1425,-4.1678,-4.1801,-4.1819,-4.1745,-4.182,-4.252,-4.296,-4.3025,-4.3755,-4.4271,-4.4252,-4.443,-4.4787,-4.5425,-4.5604,-4.6336,-4.7481,-4.8025,-4.8532,-4.9114,-4.9377,-4.9509,-4.9509,-4.9509,-4.9509,-4.9509,-4.9509,-4.9509,-4.9509,-4.9509,-4.9313,-4.8959,-4.8586,-4.8196,-4.7715,-4.7178,-4.6788,-4.6637,-4.6368,-4.6239,-4.6189,-4.6189,-4.6189,-4.6189,-4.6189,-4.6189,-4.6189,-4.6189,-4.6189,-4.8386,-4.8006,-4.8002,-4.7777,-4.7408,-4.7345,-4.732,-4.7211,-4.6061,-4.495,-4.4194,-4.5297,-4.58,-4.5722,-4.4852,-4.4446,-4.4407,-4.3498,-4.3595,-4.4407,-4.4446,-4.4929,-4.5742,-4.58,-4.58,-4.58,-4.58,-4.58,-4.58,-4.58,-4.58,-4.58,-4.58,-4.58,-4.58,-4.58,-4.58,-4.578,-4.4639,-4.4059,-4.402,-4.2918,-4.2338,-4.2318,-4.2318,-4.2144,-4.1757,-4.2106,-4.2144,-4.1738,-4.2106,-4.2879,-4.3962,-4.4059,-4.4581,-4.5703,-4.58,-4.561,-4.5201,-4.4887,-4.4621,-4.4383,-4.4314,-4.4015,-4.323,-4.3106,-4.3106,-4.3146,-4.3117,-4.3135,-4.3146,-4.3558,-4.3811,-4.384,-4.4224,-4.4655,-4.5059,-4.5153,-4.5491,-4.6279,-4.6786,-4.735,-4.8101,-4.8607,-4.9002,-4.9452,-4.9509,-4.9509,-4.9509,-4.9509,-4.9509,-4.9509,-4.9509,-4.9509,-4.9509,-4.9327,-4.9113,-4.8804,-4.8402,-4.7999,-4.7524,-4.7035,-4.6778,-4.659,-4.6368,-4.6239,-4.6189,-4.6189,-4.6189,-4.6189,-4.6189,-4.6189,-4.6189,-4.6189,-4.6189,-4.9054,-4.8887,-4.8895,-4.8778,-4.8604,-4.8541,-4.8528,-4.8516,-4.8477,-4.7734,-4.6518,-4.6413,-4.6394,-4.6259,-4.5026,-4.4465,-4.4253,-4.3111,-4.3247,-4.4349,-4.4253,-4.4852,-4.5955,-4.5896,-4.58,-4.58,-4.58,-4.58,-4.58,-4.58,-4.58,-4.58,-4.58,-4.58,-4.58,-4.58,-4.58,-4.58,-4.58,-4.58,-4.58,-4.58,-4.58,-4.58,-4.5761,-4.58,-4.58,-4.58,-4.58,-4.58,-4.58,-4.58,-4.58,-4.58,-4.58,-4.58,-4.58,-4.5607,-4.5222,-4.4707,-4.443,-4.4411,-4.4354,-4.4354,-4.4411,-4.4354,-4.4325,-4.4362,-4.4269,-4.4288,-4.4269,-4.4306,-4.4373,-4.4411,-4.4599,-4.4965,-4.5585,-4.5848,-4.6317,-4.7162,-4.7819,-4.8213,-4.8551,-4.9077,-4.9452,-4.9471,-4.9509,-4.9509,-4.9509,-4.9509,-4.9509,-4.9509,-4.9509,-4.9509,-4.949,-4.9211,-4.8906,-4.8623,-4.8269,-4.7834,-4.7389,-4.707,-4.6795,-4.6542,-4.6368,-4.6239,-4.6189,-4.6189,-4.6189,-4.6189,-4.6189,-4.6189,-4.6189,-4.6189,-4.6189,-5.0491,-4.9831,-4.9784,-4.9318,-4.8696,-4.8646,-4.8674,-4.865,-4.8611,-4.849,-4.827,-4.8269,-4.8236,-4.8241,-4.7923,-4.7753,-4.7753,-4.7753,-4.7657,-4.7676,-4.7115,-4.6844,-4.6902,-4.6206,-4.58,-4.5838,-4.5838,-4.5858,-4.58,-4.58,-4.58,-4.58,-4.58,-4.58,-4.58,-4.58,-4.58,-4.58,-4.58,-4.58,-4.58,-4.58,-4.58,-4.58,-4.58,-4.58,-4.58,-4.58,-4.58,-4.58,-4.5838,-4.5819,-4.5838,-4.5819,-4.5819,-4.5838,-4.5819,-4.5626,-4.5222,-4.4758,-4.4487,-4.4487,-4.4487,-4.4505,-4.4505,-4.4505,-4.4487,-4.4533,-4.4468,-4.4411,-4.4487,-4.4468,-4.4524,-4.4618,-4.5106,-4.5622,-4.5866,-4.6411,-4.7199,-4.7988,-4.8213,-4.8476,-4.9171,-4.9415,-4.949,-4.9509,-4.9509,-4.9509,-4.9509,-4.9509,-4.9509,-4.9509,-4.9509,-4.949,-4.9427,-4.9211,-4.8872,-4.8587,-4.8153,-4.7669,-4.7187,-4.6824,-4.6542,-4.6368,-4.6221,-4.6189,-4.6189,-4.6189,-4.6189,-4.6189,-4.6189,-4.6189,-4.6189,-4.6189,-4.6189,-5.1008,-5.0666,-5.0658,-5.0464,-5.0153,-5.0153,-5.0142,-5.013,-5.0142,-5.011,-5.0098,-5.0041,-4.9472,-4.8528,-4.8488,-4.844,-4.8459,-4.8426,-4.8411,-4.8372,-4.8024,-4.7869,-4.7811,-4.7521,-4.7096,-4.6593,-4.6573,-4.6303,-4.5877,-4.58,-4.58,-4.58,-4.58,-4.58,-4.58,-4.58,-4.58,-4.58,-4.58,-4.58,-4.58,-4.58,-4.58,-4.58,-4.58,-4.58,-4.58,-4.58,-4.6032,-4.6496,-4.6554,-4.6806,-4.7308,-4.7347,-4.7347,-4.7294,-4.6598,-4.6071,-4.5726,-4.4957,-4.4496,-4.4496,-4.4496,-4.4684,-4.5172,-4.5209,-4.5397,-4.5744,-4.5068,-4.4487,-4.4515,-4.4515,-4.4684,-4.5153,-4.5528,-4.6073,-4.7105,-4.7462,-4.8025,-4.8814,-4.8964,-4.9077,-4.9415,-4.9509,-4.9509,-4.9509,-4.9509,-4.9509,-4.9509,-4.9509,-4.9509,-4.9509,-4.9509,-4.9409,-4.9244,-4.894,-4.866,-4.8307,-4.7875,-4.7345,-4.7053,-4.6795,-4.6495,-4.6239,-4.6239,-4.6189,-4.6189,-4.6189,-4.6189,-4.6189,-4.6189,-4.6189,-4.6189,-4.6189,-4.6189,-5.1202,-5.1202,-5.1202,-5.1202,-5.1202,-5.1202,-5.1202,-5.1202,-5.1202,-5.1202,-5.1202,-5.1159,-5.0455,-4.9343,-4.9226,-4.9199,-4.9185,-4.9137,-4.9122,-4.9068,-4.8856,-4.8759,-4.874,-4.8488,-4.8082,-4.754,-4.7463,-4.6999,-4.6245,-4.6148,-4.6032,-4.5858,-4.6032,-4.6051,-4.5819,-4.58,-4.58,-4.58,-4.58,-4.58,-4.58,-4.58,-4.58,-4.58,-4.58,-4.58,-4.58,-4.58,-4.609,-4.6709,-4.6748,-4.7038,-4.7637,-4.7695,-4.7661,-4.7542,-4.6705,-4.6031,-4.5773,-4.496,-4.4496,-4.4496,-4.4496,-4.474,-4.5247,-4.5378,-4.566,-4.6035,-4.5397,-4.4853,-4.4834,-4.4834,-4.5097,-4.5622,-4.6035,-4.6936,-4.7988,-4.8345,-4.8776,-4.9396,-4.9415,-4.9509,-4.9509,-4.9509,-4.9509,-4.9509,-4.9509,-4.9509,-4.9509,-4.949,-4.9459,-4.9377,-4.9377,-4.9262,-4.9027,-4.8802,-4.8458,-4.8017,-4.7585,-4.7143,-4.6934,-4.6637,-4.6495,-4.6221,-4.6239,-4.6189,-4.6189,-4.6189,-4.6189,-4.6189,-4.6189,-4.6189,-4.6189,-4.6189,-4.6189,-5.1202,-5.1202,-5.1202,-5.1202,-5.1202,-5.1202,-5.1202,-5.1202,-5.1202,-5.1202,-5.1202,-5.1183,-5.1144,-5.0977,-5.0836,-5.0898,-5.0831,-5.0753,-5.07,-5.0577,-4.9958,-4.9649,-4.9591,-4.8817,-4.8411,-4.8353,-4.8333,-4.7869,-4.7038,-4.6999,-4.6612,-4.5858,-4.6496,-4.6573,-4.5916,-4.58,-4.58,-4.58,-4.58,-4.58,-4.58,-4.58,-4.58,-4.58,-4.58,-4.58,-4.58,-4.58,-4.5858,-4.5877,-4.5974,-4.5974,-4.6013,-4.6071,-4.6055,-4.5796,-4.5476,-4.5189,-4.4971,-4.467,-4.4496,-4.4496,-4.4496,-4.4552,-4.4759,-4.4796,-4.4928,-4.4777,-4.551,-4.566,-4.5754,-4.5697,-4.5735,-4.5941,-4.7162,-4.795,-4.8213,-4.8945,-4.9377,-4.949,-4.9509,-4.9509,-4.9509,-4.9509,-4.9509,-4.9509,-4.9509,-4.9509,-4.949,-4.949,-4.9345,-4.9146,-4.9061,-4.9008,-4.8993,-4.8641,-4.8289,-4.7856,-4.7345,-4.6934,-4.6655,-4.6416,-4.6319,-4.6221,-4.6221,-4.6189,-4.6189,-4.6189,-4.6189,-4.6189,-4.6189,-4.6189,-4.6189,-4.6189,-4.6189,-5.1202,-5.1202,-5.1202,-5.1202,-5.1202,-5.1202,-5.1202,-5.1202,-5.1202,-5.1202,-5.1202,-5.1202,-5.1202,-5.1202,-5.1178,-5.1134,-5.1056,-5.1048,-5.102,-5.0952,-5.0661,-5.0511,-5.0442,-5.0132,-4.9707,-4.9281,-4.9204,-4.8488,-4.7212,-4.7096,-4.6651,-4.5955,-4.609,-4.6071,-4.5858,-4.58,-4.58,-4.58,-4.58,-4.58,-4.58,-4.58,-4.58,-4.58,-4.58,-4.58,-4.58,-4.58,-4.6032,-4.6593,-4.6612,-4.6883,-4.7371,-4.7333,-4.7162,-4.6876,-4.6202,-4.5659,-4.5364,-4.4814,-4.4496,-4.4496,-4.4496,-4.4721,-4.5153,-4.5303,-4.5679,-4.6523,-4.6542,-4.673,-4.7087,-4.6843,-4.673,-4.7274,-4.7819,-4.8438,-4.8927,-4.9321,-4.9509,-4.9509,-4.9509,-4.9509,-4.9509,-4.9509,-4.9509,-4.9509,-4.9509,-4.9509,-4.9459,-4.9345,-4.9127,-4.9027,-4.8837,-4.866,-4.8402,-4.8231,-4.7955,-4.7542,-4.7098,-4.6824,-4.6542,-4.635,-4.6204,-4.6221,-4.6189,-4.6189,-4.6189,-4.6189,-4.6189,-4.6189,-4.6189,-4.6189,-4.6189,-4.6189,-4.6189,-5.1202,-5.1202,-5.1202,-5.1202,-5.1202,-5.1202,-5.1202,-5.1202,-5.1202,-5.1202,-5.1202,-5.1202,-5.1202,-5.1202,-5.1202,-5.1171,-5.1146,-5.1108,-5.1062,-5.102,-5.102,-5.1005,-5.0941,-5.0941,-5.065,-5.0113,-4.9803,-4.9049,-4.8024,-4.7657,-4.7076,-4.6283,-4.6225,-4.6071,-4.5858,-4.58,-4.58,-4.58,-4.58,-4.58,-4.58,-4.58,-4.58,-4.58,-4.58,-4.58,-4.58,-4.58,-4.6051,-4.6573,-4.667,-4.6941,-4.7468,-4.7364,-4.7165,-4.6846,-4.6102,-4.559,-4.5322,-4.4815,-4.4496,-4.4496,-4.4515,-4.4759,-4.5266,-4.5528,-4.6279,-4.7049,-4.7575,-4.7669,-4.7988,-4.7932,-4.7913,-4.8213,-4.8438,-4.8833,-4.9396,-4.949,-4.9509,-4.9509,-4.9509,-4.9509,-4.9509,-4.9509,-4.9509,-4.9509,-4.9509,-4.9459,-4.9345,-4.9179,-4.8887,-4.8748,-4.8532,-4.8269,-4.7937,-4.771,-4.7542,-4.7214,-4.6944,-4.6666,-4.6495,-4.6301,-4.6221,-4.6189,-4.6189,-4.6189,-4.6189,-4.6189,-4.6189,-4.6189,-4.6189,-4.6189,-4.6189,-4.6189,-4.6189,-5.1202,-5.1202,-5.1202,-5.1202,-5.1202,-5.1202,-5.1202,-5.1202,-5.1202,-5.1202,-5.1202,-5.1202,-5.1202,-5.1202,-5.1202,-5.1202,-5.1171,-5.1127,-5.1108,-5.1081,-5.1067,-5.1053,-5.099,-5.0971,-5.0937,-5.0751,-5.0094,-4.9726,-4.9455,-4.8643,-4.7831,-4.7173,-4.6883,-4.6419,-4.58,-4.58,-4.58,-4.58,-4.58,-4.58,-4.58,-4.58,-4.58,-4.58,-4.58,-4.58,-4.58,-4.58,-4.5819,-4.5858,-4.5877,-4.5819,-4.5916,-4.5772,-4.5477,-4.5371,-4.4995,-4.4726,-4.458,-4.4533,-4.4496,-4.4533,-4.4533,-4.4665,-4.489,-4.5435,-4.596,-4.6411,-4.7331,-4.8194,-4.8363,-4.887,-4.9002,-4.8476,-4.8927,-4.9377,-4.9471,-4.9509,-4.9509,-4.9509,-4.9509,-4.9509,-4.9509,-4.9509,-4.9509,-4.9509,-4.949,-4.9377,-4.9146,-4.8974,-4.8713,-4.8327,-4.8153,-4.7955,-4.756,-4.7143,-4.7053,-4.6934,-4.6731,-4.6495,-4.6368,-4.6221,-4.6221,-4.6189,-4.6189,-4.6189,-4.6189,-4.6189,-4.6189,-4.6189,-4.6189,-4.6189,-4.6189,-4.6189,-4.6189,-5.1202,-5.1202,-5.1202,-5.1202,-5.1202,-5.1202,-5.1202,-5.1202,-5.1202,-5.1202,-5.1202,-5.1202,-5.1202,-5.1202,-5.1202,-5.1202,-5.1202,-5.1171,-5.1153,-5.1101,-5.1053,-5.1005,-5.0956,-5.0921,-5.0906,-5.0867,-5.0654,-5.0229,-4.9649,-4.8836,-4.7966,-4.7154,-4.6496,-4.609,-4.5819,-4.58,-4.58,-4.58,-4.58,-4.58,-4.58,-4.58,-4.58,-4.58,-4.58,-4.58,-4.58,-4.58,-4.58,-4.58,-4.5658,-4.5543,-4.5381,-4.5163,-4.4988,-4.4915,-4.4732,-4.4568,-4.4524,-4.4515,-4.4515,-4.4627,-4.5003,-4.5284,-4.5416,-4.6092,-4.6805,-4.7256,-4.7932,-4.8382,-4.9002,-4.9302,-4.934,-4.9114,-4.934,-4.9509,-4.9509,-4.9509,-4.9509,-4.9509,-4.9509,-4.9509,-4.9509,-4.9509,-4.9509,-4.9509,-4.9509,-4.9345,-4.9061,-4.8802,-4.8569,-4.8174,-4.7955,-4.7728,-4.7363,-4.7053,-4.687,-4.6731,-4.6542,-4.6398,-4.627,-4.6189,-4.6189,-4.6189,-4.6189,-4.6189,-4.6189,-4.6189,-4.6189,-4.6189,-4.6189,-4.6189,-4.6189,-4.6189,-4.6189,-5.1202,-5.1202,-5.1202,-5.1202,-5.1202,-5.1202,-5.1202,-5.1202,-5.1202,-5.1202,-5.1202,-5.1202,-5.1202,-5.1202,-5.1202,-5.1202,-5.1202,-5.1171,-5.1146,-5.1108,-5.1062,-5.1,-5.0937,-5.0906,-5.0906,-5.0906,-5.0906,-5.0654,-5.0132,-4.9281,-4.843,-4.7579,-4.6709,-4.6109,-4.5838,-4.58,-4.58,-4.58,-4.58,-4.58,-4.58,-4.58,-4.58,-4.58,-4.58,-4.58,-4.58,-4.5737,-4.5723,-4.5752,-4.561,-4.5399,-4.5203,-4.4962,-4.48,-4.477,-4.4621,-4.4496,-4.4496,-4.4496,-4.4684,-4.4965,-4.5416,-4.5866,-4.6223,-4.6955,-4.7706,-4.8082,-4.8532,-4.8908,-4.9377,-4.949,-4.9509,-4.949,-4.949,-4.9509,-4.9509,-4.9509,-4.9509,-4.9509,-4.9509,-4.9509,-4.9509,-4.9509,-4.9509,-4.9509,-4.9377,-4.923,-4.8872,-4.8605,-4.8307,-4.7995,-4.7728,-4.745,-4.7232,-4.6962,-4.6731,-4.6542,-4.6301,-4.627,-4.6239,-4.6189,-4.6189,-4.6189,-4.6189,-4.6189,-4.6189,-4.6189,-4.6189,-4.6189,-4.6189,-4.6189,-4.6189,-4.6189,-4.6189,-5.1202,-5.1202,-5.1202,-5.1202,-5.1202,-5.1202,-5.1202,-5.1202,-5.1202,-5.1202,-5.1202,-5.1202,-5.1202,-5.1202,-5.1202,-5.1202,-5.119,-5.1139,-5.1127,-5.1114,-5.1082,-5.1056,-5.0986,-5.0921,-5.0906,-5.0906,-5.0906,-5.0887,-5.0712,-4.9958,-4.9281,-4.845,-4.7482,-4.6709,-4.6109,-4.5877,-4.58,-4.58,-4.58,-4.58,-4.58,-4.58,-4.58,-4.58,-4.58,-4.58,-4.5737,-4.5594,-4.5541,-4.5692,-4.549,-4.5285,-4.514,-4.4915,-4.477,-4.4745,-4.4595,-4.4524,-4.4496,-4.4665,-4.4928,-4.551,-4.5904,-4.6167,-4.703,-4.78,-4.8326,-4.8438,-4.8983,-4.9434,-4.949,-4.9509,-4.9509,-4.9509,-4.9509,-4.9509,-4.9509,-4.9546,-4.964,-4.9565,-4.9527,-4.9546,-4.9546,-4.9509,-4.949,-4.9377,-4.9179,-4.894,-4.8605,-4.8307,-4.8014,-4.7728,-4.7493,-4.7232,-4.7007,-4.687,-4.6637,-4.6416,-4.6221,-4.6221,-4.6189,-4.6189,-4.6189,-4.6189,-4.6189,-4.6189,-4.6189,-4.6189,-4.6189,-4.6189,-4.6189,-4.6189,-4.6189,-4.6189,-4.6189,-5.1202,-5.1202,-5.1202,-5.1202,-5.1202,-5.1202,-5.1202,-5.1202,-5.1202,-5.1202,-5.1202,-5.1202,-5.1202,-5.1202,-5.1202,-5.1202,-5.1202,-5.119,-5.1159,-5.1095,-5.1076,-5.1075,-5.0986,-5.0921,-5.0906,-5.0906,-5.0906,-5.0906,-5.0828,-5.0152,-4.9591,-4.9301,-4.7908,-4.7057,-4.6709,-4.6167,-4.5819,-4.58,-4.5819,-4.5819,-4.58,-4.58,-4.58,-4.58,-4.58,-4.5703,-4.5594,-4.5381,-4.5203,-4.5058,-4.5014,-4.4872,-4.4707,-4.4621,-4.4595,-4.4587,-4.4532,-4.4515,-4.4627,-4.504,-4.5453,-4.5791,-4.6786,-4.7612,-4.7856,-4.8664,-4.9077,-4.9189,-4.9415,-4.9509,-4.9509,-4.9509,-4.9509,-4.9509,-4.9509,-4.9509,-4.9584,-4.9997,-5.0185,-4.9696,-4.9997,-4.9959,-4.964,-4.949,-4.9409,-4.923,-4.9027,-4.8783,-4.8365,-4.8114,-4.7852,-4.756,-4.732,-4.7053,-4.687,-4.6684,-4.6542,-4.6319,-4.6239,-4.6239,-4.6189,-4.6189,-4.6189,-4.6189,-4.6189,-4.6189,-4.6189,-4.6189,-4.6189,-4.6189,-4.6189,-4.6189,-4.6189,-4.6189,-4.6189,-5.1202,-5.1202,-5.1202,-5.1202,-5.1202,-5.1202,-5.1202,-5.1202,-5.1202,-5.1202,-5.1202,-5.1202,-5.1202,-5.1202,-5.1202,-5.1202,-5.1202,-5.1202,-5.1171,-5.1159,-5.1108,-5.1056,-5.0986,-5.0921,-5.0906,-5.0906,-5.0906,-5.0906,-5.0848,-5.0422,-5.0055,-4.9591,-4.8701,-4.8024,-4.7618,-4.7192,-4.6651,-4.6438,-4.6341,-4.6206,-4.5838,-4.58,-4.5757,-4.5708,-4.5658,-4.5541,-4.5245,-4.5077,-4.4943,-4.4825,-4.4776,-4.4714,-4.4524,-4.4496,-4.4496,-4.4496,-4.4515,-4.4646,-4.5021,-4.5472,-4.6017,-4.6692,-4.7763,-4.8288,-4.8701,-4.9246,-4.9509,-4.9471,-4.9509,-4.9509,-4.9509,-4.9509,-4.9509,-4.9509,-4.9509,-4.9509,-4.9509,-4.9865,-4.9959,-4.9771,-4.9847,-5.0053,-4.9527,-4.9509,-4.9327,-4.9094,-4.8872,-4.8513,-4.8096,-4.7915,-4.7669,-4.7345,-4.7098,-4.687,-4.6684,-4.6542,-4.6464,-4.6239,-4.6189,-4.6189,-4.6189,-4.6189,-4.6189,-4.6189,-4.6189,-4.6189,-4.6189,-4.6189,-4.6189,-4.6189,-4.6189,-4.6189,-4.6189,-4.6189,-4.6189,-5.1202,-5.1202,-5.1202,-5.1202,-5.1202,-5.1202,-5.1202,-5.1202,-5.1202,-5.1202,-5.1202,-5.1202,-5.1202,-5.1202,-5.1202,-5.1202,-5.1202,-5.1202,-5.1202,-5.1171,-5.1127,-5.1089,-5.1015,-5.0956,-5.0906,-5.0906,-5.0906,-5.0874,-5.0839,-5.0816,-5.0503,-4.9946,-4.9656,-4.9243,-4.8585,-4.8333,-4.7947,-4.7366,-4.7231,-4.696,-4.6404,-4.6177,-4.5986,-4.583,-4.5456,-4.5245,-4.4924,-4.4795,-4.4745,-4.4789,-4.4751,-4.4655,-4.4496,-4.4496,-4.4496,-4.4571,-4.4665,-4.5021,-4.5604,-4.5923,-4.6599,-4.7781,-4.8176,-4.8626,-4.9246,-4.9471,-4.9509,-4.9509,-4.9509,-4.9509,-4.9509,-4.9509,-4.9509,-4.9509,-4.9509,-4.9509,-4.9527,-4.9584,-4.9602,-4.9527,-4.9565,-4.9621,-4.9478,-4.9427,-4.9295,-4.8713,-4.8532,-4.8174,-4.7816,-4.7542,-4.7302,-4.7007,-4.6824,-4.6637,-4.6495,-4.635,-4.6319,-4.6189,-4.6189,-4.6189,-4.6189,-4.6189,-4.6189,-4.6189,-4.6189,-4.6189,-4.6189,-4.6189,-4.6189,-4.6189,-4.6189,-4.6189,-4.6189,-4.6189,-4.6189,-5.1202,-5.1202,-5.1202,-5.1202,-5.1202,-5.1202,-5.1202,-5.1202,-5.1202,-5.1202,-5.1202,-5.1202,-5.1202,-5.1202,-5.1202,-5.1202,-5.1202,-5.1202,-5.1202,-5.1183,-5.1127,-5.1095,-5.1056,-5.1,-5.0956,-5.0925,-5.0906,-5.0805,-5.0736,-5.0789,-5.0748,-5.0392,-4.992,-4.9629,-4.9382,-4.879,-4.8353,-4.814,-4.8106,-4.7955,-4.7558,-4.6918,-4.6544,-4.6397,-4.5545,-4.4981,-4.4819,-4.4655,-4.456,-4.456,-4.456,-4.4578,-4.4496,-4.4496,-4.4533,-4.4702,-4.5134,-4.551,-4.5904,-4.6861,-4.7744,-4.8194,-4.8795,-4.9302,-4.9415,-4.9509,-4.9509,-4.9509,-4.9509,-4.9509,-4.9509,-4.9509,-4.9509,-4.9509,-4.949,-4.9459,-4.9584,-5.0016,-4.9965,-4.9721,-4.9909,-5.0084,-4.922,-4.9113,-4.8872,-4.8421,-4.8096,-4.7834,-4.75,-4.7169,-4.6962,-4.6749,-4.6637,-4.6495,-4.6368,-4.627,-4.6221,-4.6189,-4.6189,-4.6189,-4.6189,-4.6189,-4.6189,-4.6189,-4.6189,-4.6189,-4.6189,-4.6189,-4.6189,-4.6189,-4.6189,-4.6189,-4.6189,-4.6189,-4.6189,-5.1202,-5.1202,-5.1202,-5.1202,-5.1202,-5.1202,-5.1202,-5.1202,-5.1202,-5.1202,-5.1202,-5.1202,-5.1202,-5.1202,-5.1202,-5.1202,-5.1202,-5.1202,-5.119,-5.1159,-5.1127,-5.1095,-5.1042,-5.0937,-5.0839,-5.0906,-5.0906,-5.0789,-5.0681,-5.0682,-5.0644,-5.0425,-5.0086,-4.9971,-4.9933,-4.9432,-4.9067,-4.8702,-4.8625,-4.8471,-4.801,-4.7549,-4.712,-4.6841,-4.5886,-4.5221,-4.5213,-4.4729,-4.4533,-4.4496,-4.4515,-4.4515,-4.4515,-4.4533,-4.4684,-4.5115,-4.5397,-4.6204,-4.6918,-4.765,-4.8345,-4.8776,-4.9265,-4.9396,-4.9509,-4.9509,-4.9509,-4.9509,-4.9509,-4.9509,-4.9509,-4.9509,-4.9509,-4.949,-4.944,-4.9308,-4.9216,-4.9585,-4.9786,-4.938,-4.943,-4.9309,-4.8985,-4.8731,-4.8477,-4.8056,-4.7779,-4.7506,-4.7107,-4.6806,-4.6684,-4.6512,-4.6447,-4.635,-4.627,-4.6239,-4.6239,-4.6189,-4.6189,-4.6189,-4.6189,-4.6189,-4.6189,-4.6189,-4.6189,-4.6189,-4.6189,-4.6189,-4.6189,-4.6189,-4.6189,-4.6189,-4.6189,-4.6189,-4.6189,-5.1202,-5.1202,-5.1202,-5.1202,-5.1202,-5.1202,-5.1202,-5.1202,-5.1202,-5.1202,-5.1202,-5.1202,-5.1202,-5.1202,-5.119,-5.1171,-5.119,-5.119,-5.1159,-5.1114,-5.1102,-5.1042,-5.0952,-5.0784,-5.0698,-5.0871,-5.0789,-5.0644,-5.0488,-5.0507,-5.0385,-5.0187,-5.0206,-5.0141,-5.0172,-5.0149,-4.9794,-4.9261,-4.9185,-4.8952,-4.8356,-4.8022,-4.7672,-4.7023,-4.6194,-4.5641,-4.5453,-4.4946,-4.4496,-4.4496,-4.4608,-4.4684,-4.4702,-4.474,-4.5078,-4.5829,-4.6129,-4.6805,-4.7706,-4.8307,-4.8776,-4.9471,-4.9509,-4.9509,-4.9509,-4.9509,-4.9509,-4.9509,-4.9509,-4.9509,-4.9509,-4.9509,-4.9509,-4.9459,-4.934,-4.9005,-4.8744,-4.8746,-4.8731,-4.8802,-4.8715,-4.855,-4.8382,-4.8194,-4.7959,-4.7733,-4.7446,-4.7186,-4.6788,-4.6542,-4.6416,-4.6368,-4.6319,-4.6319,-4.6239,-4.6189,-4.6189,-4.6189,-4.6189,-4.6189,-4.6189,-4.6189,-4.6189,-4.6189,-4.6189,-4.6189,-4.6189,-4.6189,-4.6189,-4.6189,-4.6189,-4.6189,-4.6189,-4.6189,-4.6189,-5.1202,-5.1202,-5.1202,-5.1202,-5.1202,-5.1202,-5.1202,-5.1202,-5.1202,-5.1202,-5.1202,-5.1202,-5.1202,-5.119,-5.1139,-5.1114,-5.1095,-5.1056,-5.1075,-5.1048,-5.102,-5.0956,-5.075,-5.0586,-5.0509,-5.0408,-5.0342,-5.0206,-5.0092,-5.0135,-5.0111,-4.9968,-5.0062,-5.0178,-5.0135,-5.0183,-5.0059,-4.9763,-4.9768,-4.9596,-4.9382,-4.8796,-4.8102,-4.7344,-4.6477,-4.5998,-4.566,-4.504,-4.4496,-4.4571,-4.5134,-4.5435,-4.5585,-4.5604,-4.6017,-4.6655,-4.7256,-4.7763,-4.8288,-4.8889,-4.9246,-4.9471,-4.9509,-4.9509,-4.9509,-4.9509,-4.9509,-4.9509,-4.9509,-4.9509,-4.9509,-4.9509,-4.949,-4.9358,-4.9057,-4.8674,-4.8476,-4.8139,-4.7824,-4.7886,-4.7886,-4.7904,-4.7761,-4.7674,-4.7464,-4.7222,-4.6999,-4.6863,-4.6619,-4.6416,-4.627,-4.6239,-4.6239,-4.6239,-4.6189,-4.6189,-4.6189,-4.6189,-4.6189,-4.6189,-4.6189,-4.6189,-4.6189,-4.6189,-4.6189,-4.6189,-4.6189,-4.6189,-4.6189,-4.6189,-4.6189,-4.6189,-4.6189,-4.6189,-4.6189,-5.1202,-5.1202,-5.1202,-5.1202,-5.1202,-5.1202,-5.1202,-5.1202,-5.1202,-5.1202,-5.1202,-5.1202,-5.1202,-5.119,-5.1127,-5.1009,-5.0867,-5.0867,-5.0819,-5.0735,-5.0681,-5.0625,-5.047,-5.0303,-5.0145,-5.0038,-4.9903,-4.9849,-4.983,-4.9917,-4.9876,-4.9722,-4.9778,-4.9833,-4.9833,-4.9805,-4.9841,-4.986,-4.986,-4.986,-4.986,-4.9259,-4.8738,-4.8235,-4.7462,-4.7049,-4.6843,-4.6223,-4.5829,-4.5904,-4.6186,-4.658,-4.6824,-4.7012,-4.7162,-4.7612,-4.8007,-4.8457,-4.8776,-4.9321,-4.9471,-4.949,-4.9509,-4.9509,-4.9509,-4.9509,-4.949,-4.9509,-4.9509,-4.9509,-4.9509,-4.949,-4.9358,-4.9057,-4.8728,-4.831,-4.7886,-4.7446,-4.7212,-4.715,-4.723,-4.7291,-4.7266,-4.7107,-4.6926,-4.676,-4.6542,-4.6447,-4.6398,-4.6319,-4.6189,-4.6189,-4.6189,-4.6189,-4.6189,-4.6189,-4.6189,-4.6189,-4.6189,-4.6189,-4.6189,-4.6189,-4.6189,-4.6189,-4.6189,-4.6189,-4.6189,-4.6189,-4.6189,-4.6189,-4.6189,-4.6189,-4.6189,-4.6189,-4.6189,-5.1202,-5.1202,-5.1202,-5.1202,-5.1202,-5.1202,-5.1202,-5.1202,-5.1202,-5.1202,-5.1202,-5.1202,-5.1202,-5.1159,-5.1023,-5.0832,-5.0548,-5.0605,-5.0509,-5.0366,-5.032,-5.0275,-5.0116,-4.9968,-4.9803,-4.9759,-4.9644,-4.9585,-4.9693,-4.9712,-4.9655,-4.9574,-4.9521,-4.9509,-4.9551,-4.9563,-4.949,-4.9509,-4.9509,-4.9509,-4.9509,-4.9509,-4.9509,-4.9415,-4.8664,-4.8101,-4.7913,-4.7199,-4.6843,-4.688,-4.7124,-4.75,-4.8082,-4.8363,-4.8457,-4.8457,-4.8457,-4.887,-4.9246,-4.9471,-4.9509,-4.9509,-4.9459,-4.9459,-4.9459,-4.9409,-4.9409,-4.9459,-4.9459,-4.9459,-4.9459,-4.9409,-4.9272,-4.8969,-4.8587,-4.8078,-4.7565,-4.7114,-4.6649,-4.6619,-4.6702,-4.6731,-4.6778,-4.6731,-4.6572,-4.6572,-4.635,-4.6368,-4.6319,-4.627,-4.6189,-4.6189,-4.6189,-4.6189,-4.6189,-4.6189,-4.6189,-4.6189,-4.6189,-4.6189,-4.6189,-4.6189,-4.6189,-4.6189,-4.6189,-4.6189,-4.6189,-4.6189,-4.6189,-4.6189,-4.6189,-4.6189,-4.6189,-4.6189,-4.6189,-5.1202,-5.1202,-5.1202,-5.1202,-5.1202,-5.1202,-5.1202,-5.1202,-5.1202,-5.1202,-5.1202,-5.119,-5.1159,-5.1056,-5.0851,-5.0567,-5.0344,-5.0301,-5.0275,-5.0135,-5.0135,-5.0038,-4.991,-4.9857,-4.9693,-4.9585,-4.9502,-4.949,-4.9544,-4.9574,-4.9532,-4.949,-4.9509,-4.9509,-4.9509,-4.9509,-4.9509,-4.9509,-4.9509,-4.9509,-4.9509,-4.9509,-4.9509,-4.9283,-4.8776,-4.8307,-4.8269,-4.7706,-4.7293,-4.7274,-4.7763,-4.8082,-4.8307,-4.8964,-4.9265,-4.9358,-4.9377,-4.9377,-4.9471,-4.9509,-4.949,-4.9459,-4.9409,-4.934,-4.9308,-4.9295,-4.9295,-4.9308,-4.934,-4.9402,-4.9426,-4.9235,-4.9312,-4.903,-4.8583,-4.8242,-4.7796,-4.7145,-4.6716,-4.6425,-4.6623,-4.6469,-4.6368,-4.6319,-4.627,-4.6221,-4.6221,-4.6239,-4.6189,-4.6189,-4.6189,-4.6189,-4.6189,-4.6189,-4.6189,-4.6189,-4.6189,-4.6189,-4.6189,-4.6189,-4.6189,-4.6189,-4.6189,-4.6189,-4.6189,-4.6189,-4.6189,-4.6189,-4.6189,-4.6189,-4.6189,-4.6189,-4.6189,-4.6189,-4.6189,-5.0755,-5.1202,-5.1202,-5.1202,-5.1202,-5.1202,-5.1202,-5.1202,-5.1202,-5.1202,-5.119,-5.1121,-5.0986,-5.075,-5.0625,-5.0366,-5.0043,-4.9993,-4.9929,-4.986,-4.9805,-4.9769,-4.9655,-4.9625,-4.9563,-4.9551,-4.9509,-4.949,-4.9509,-4.9509,-4.9509,-4.9509,-4.9509,-4.9509,-4.9509,-4.9509,-4.9509,-4.9509,-4.9509,-4.9509,-4.9509,-4.9509,-4.9509,-4.949,-4.9096,-4.8945,-4.8795,-4.8664,-4.842,-4.8476,-4.8833,-4.8858,-4.8884,-4.9184,-4.9358,-4.9345,-4.9327,-4.9358,-4.9459,-4.949,-4.944,-4.939,-4.934,-4.9308,-4.9244,-4.9211,-4.9179,-4.9262,-4.9244,-4.9347,-4.9533,-4.947,-4.9448,-4.9245,-4.8844,-4.8557,-4.8217,-4.7448,-4.6923,-4.673,-4.6537,-4.6467,-4.6312,-4.6239,-4.6239,-4.6221,-4.6239,-4.6239,-4.6189,-4.6189,-4.6189,-4.6189,-4.6189,-4.6189,-4.6189,-4.6189,-4.6189,-4.6189,-4.6189,-4.6189,-4.6189,-4.6189,-4.6189,-4.6189,-4.6189,-4.6189,-4.6189,-4.6189,-4.6189,-4.6189,-4.6189,-4.6189,-4.6189,-4.6189,-4.6189,-4.9959,-5.0581,-5.1008,-5.1202,-5.1202,-5.1202,-5.1202,-5.1202,-5.1202,-5.1202,-5.1146,-5.1,-5.0717,-5.0404,-5.0317,-5.0087,-4.9759,-4.9731,-4.9625,-4.9532,-4.9509,-4.9521,-4.9521,-4.9521,-4.9521,-4.9509,-4.9509,-4.9509,-4.9509,-4.9509,-4.9509,-4.9509,-4.9509,-4.9509,-4.9509,-4.9509,-4.9509,-4.9509,-4.9509,-4.9509,-4.9509,-4.9509,-4.9509,-4.9509,-4.949,-4.9509,-4.9509,-4.9434,-4.9415,-4.9396,-4.9377,-4.9309,-4.9265,-4.9233,-4.9295,-4.9262,-4.923,-4.9262,-4.9345,-4.9396,-4.9358,-4.9308,-4.9244,-4.9197,-4.9113,-4.9113,-4.9027,-4.8959,-4.9257,-4.9342,-4.9471,-4.9575,-4.9773,-4.9622,-4.9341,-4.9114,-4.8763,-4.8098,-4.7643,-4.7485,-4.7222,-4.6765,-4.6607,-4.6344,-4.6207,-4.6189,-4.6189,-4.6189,-4.6189,-4.6189,-4.6189,-4.6189,-4.6189,-4.6189,-4.6189,-4.6189,-4.6189,-4.6189,-4.6189,-4.6189,-4.6189,-4.6189,-4.6189,-4.6189,-4.6189,-4.6189,-4.6189,-4.6189,-4.6189,-4.6189,-4.6189,-4.6189,-4.6189,-4.6189,-4.6189,-4.8716,-4.891,-5.0503,-5.1105,-5.1125,-5.1202,-5.1183,-5.1105,-5.1183,-5.1159,-5.1075,-5.0851,-5.0429,-5.0068,-4.991,-4.9787,-4.9532,-4.9521,-4.9521,-4.9521,-4.9509,-4.9509,-4.9509,-4.9509,-4.9509,-4.9509,-4.9509,-4.9509,-4.9509,-4.9509,-4.9509,-4.9509,-4.9509,-4.9509,-4.9509,-4.9509,-4.9509,-4.9509,-4.9509,-4.9509,-4.9509,-4.9509,-4.9509,-4.949,-4.949,-4.9509,-4.9509,-4.9459,-4.9459,-4.9459,-4.9459,-4.9427,-4.9295,-4.9276,-4.923,-4.9197,-4.9164,-4.9179,-4.923,-4.9262,-4.923,-4.9179,-4.9131,-4.9083,-4.8978,-4.8943,-4.8767,-4.8698,-4.9085,-4.9297,-4.9341,-4.9445,-4.991,-5.0038,-4.9909,-4.9708,-4.9362,-4.8871,-4.8451,-4.8293,-4.7941,-4.7467,-4.7239,-4.7064,-4.6414,-4.6295,-4.6189,-4.6189,-4.6189,-4.6189,-4.6189,-4.6189,-4.6189,-4.6189,-4.6189,-4.6189,-4.6189,-4.6189,-4.6189,-4.6189,-4.6189,-4.6189,-4.6189,-4.6189,-4.6189,-4.6189,-4.6189,-4.6189,-4.6189,-4.6189,-4.6189,-4.6189,-4.6189,-4.6189,-4.6189,-4.7803,-4.7911,-4.9104,-4.9609,-4.9629,-5.0173,-5.0406,-5.0491,-5.0888,-5.0887,-5.0604,-5.0509,-5.0187,-4.9849,-4.9769,-4.9644,-4.9539,-4.9509,-4.9471,-4.949,-4.9509,-4.9509,-4.9509,-4.9509,-4.9509,-4.9509,-4.9509,-4.9509,-4.9509,-4.9509,-4.9509,-4.9509,-4.9415,-4.9509,-4.9509,-4.9509,-4.9509,-4.9509,-4.9509,-4.9509,-4.9509,-4.949,-4.9459,-4.939,-4.9371,-4.9358,-4.9313,-4.9295,-4.9295,-4.9313,-4.9345,-4.9281,-4.9216,-4.9216,-4.9131,-4.9046,-4.9046,-4.9046,-4.9046,-4.9113,-4.9197,-4.9098,-4.903,-4.8927,-4.8785,-4.8697,-4.8845,-4.8893,-4.904,-4.924,-4.9901,-5.0056,-5.0245,-5.0464,-5.0452,-5.0224,-4.9961,-4.9504,-4.9293,-4.9153,-4.8679,-4.817,-4.8012,-4.7871,-4.7099,-4.6449,-4.6277,-4.6189,-4.6189,-4.6189,-4.6189,-4.6189,-4.6189,-4.6189,-4.6189,-4.6189,-4.6189,-4.6189,-4.6189,-4.6189,-4.6189,-4.6189,-4.6189,-4.6189,-4.6189,-4.6189,-4.6189,-4.6189,-4.6189,-4.6189,-4.6189,-4.6189,-4.6189,-4.6189,-4.6189,-4.689,-4.6978,-4.755,-4.8133,-4.8638,-4.924,-4.9501,-4.9543,-4.9963,-4.9926,-4.9507,-4.9442,-4.922,-4.8975,-4.8861,-4.8784,-4.8732,-4.8889,-4.9039,-4.9171,-4.9302,-4.9452,-4.9509,-4.9509,-4.9509,-4.949,-4.949,-4.9509,-4.9509,-4.9509,-4.9283,-4.9133,-4.9152,-4.9171,-4.9509,-4.949,-4.949,-4.9509,-4.9509,-4.9509,-4.9509,-4.944,-4.939,-4.9308,-4.9308,-4.9276,-4.923,-4.923,-4.923,-4.923,-4.9197,-4.9183,-4.9135,-4.9068,-4.9015,-4.8943,-4.889,-4.889,-4.889,-4.8874,-4.8909,-4.8804,-4.8714,-4.8623,-4.8532,-4.851,-4.8946,-4.8829,-4.8999,-4.9528,-5.0332,-5.0338,-5.0553,-5.0735,-5.0788,-5.0628,-5.0576,-5.0241,-5.0136,-4.9995,-4.9451,-4.8872,-4.8486,-4.824,-4.745,-4.673,-4.6397,-4.6242,-4.6189,-4.6189,-4.6189,-4.6189,-4.6189,-4.6189,-4.6189,-4.6189,-4.6189,-4.6189,-4.6189,-4.6189,-4.6189,-4.6189,-4.6189,-4.6189,-4.6189,-4.6189,-4.6189,-4.6189,-4.6189,-4.6189,-4.6189,-4.6189,-4.6189,-4.6189,-4.6172,-4.6055,-4.6016,-4.6094,-4.7065,-4.8386,-4.858,-4.8553,-4.8476,-4.8556,-4.8333,-4.7918,-4.7743,-4.7534,-4.7343,-4.7521,-4.7511,-4.7575,-4.7988,-4.8232,-4.8363,-4.8758,-4.9227,-4.9283,-4.9189,-4.8964,-4.9396,-4.9189,-4.9039,-4.9265,-4.9077,-4.8776,-4.842,-4.8288,-4.8532,-4.9358,-4.9452,-4.9452,-4.9434,-4.9321,-4.9227,-4.914,-4.9015,-4.8965,-4.9019,-4.8987,-4.8936,-4.9127,-4.9146,-4.9113,-4.9164,-4.9146,-4.9098,-4.9101,-4.9068,-4.9015,-4.8839,-4.882,-4.882,-4.882,-4.8532,-4.8326,-4.8326,-4.8269,-4.8208,-4.8097,-4.8457,-4.9131,-4.9001,-4.9418,-4.9874,-5.0223,-5.0382,-5.0734,-5.0892,-5.0891,-5.0873,-5.0803,-5.0768,-5.0575,-5.0487,-5.0083,-4.9574,-4.9065,-4.8521,-4.7731,-4.7081,-4.659,-4.6344,-4.6207,-4.6189,-4.6189,-4.6189,-4.6189,-4.6189,-4.6189,-4.6189,-4.6189,-4.6189,-4.6189,-4.6189,-4.6189,-4.6189,-4.6189,-4.6189,-4.6189,-4.6189,-4.6189,-4.6189,-4.6189,-4.6189,-4.6172,-4.6172,-4.6189,-4.614,-4.6073,-4.5977,-4.5977,-4.5977,-4.6335,-4.6915,-4.7403,-4.7566,-4.7589,-4.781,-4.7731,-4.7391,-4.728,-4.7164,-4.7051,-4.6918,-4.6899,-4.7012,-4.7124,-4.7406,-4.7462,-4.7856,-4.7781,-4.7894,-4.8044,-4.795,-4.7856,-4.7856,-4.7969,-4.7763,-4.8025,-4.7838,-4.7425,-4.7331,-4.7556,-4.7763,-4.7838,-4.7819,-4.7838,-4.7819,-4.7789,-4.7815,-4.781,-4.7953,-4.8287,-4.8292,-4.8483,-4.8897,-4.8934,-4.8937,-4.8993,-4.9012,-4.9012,-4.8962,-4.8962,-4.8804,-4.8605,-4.8476,-4.8345,-4.8038,-4.7674,-4.7548,-4.7674,-4.7816,-4.7933,-4.8297,-4.8351,-4.8801,-4.9371,-4.9738,-5.0153,-5.0523,-5.0699,-5.0873,-5.0873,-5.0891,-5.0891,-5.0855,-5.0855,-5.0803,-5.0768,-5.0522,-4.989,-4.9346,-4.838,-4.7555,-4.7081,-4.6572,-4.6344,-4.6189,-4.6189,-4.6189,-4.6189,-4.6189,-4.6189,-4.6189,-4.6189,-4.6189,-4.6189,-4.6189,-4.6189,-4.6189,-4.6189,-4.6189,-4.6189,-4.6189,-4.6189,-4.6189,-4.6189,-4.614,-4.614,-4.6073,-4.6023,-4.599,-4.599,-4.5939,-4.5841,-4.5627,-4.5774,-4.568,-4.5589,-4.6286,-4.6544,-4.6463,-4.664,-4.6586,-4.6331,-4.6269,-4.6168,-4.612,-4.6148,-4.6148,-4.6167,-4.6467,-4.6561,-4.6617,-4.6936,-4.7105,-4.7105,-4.6955,-4.7218,-4.6974,-4.6974,-4.7068,-4.7162,-4.7049,-4.6861,-4.658,-4.6279,-4.611,-4.6298,-4.6599,-4.7124,-4.717,-4.7207,-4.714,-4.7061,-4.6999,-4.7037,-4.7308,-4.7467,-4.7675,-4.8255,-4.8519,-4.863,-4.876,-4.889,-4.889,-4.8855,-4.8714,-4.8569,-4.8382,-4.8075,-4.7856,-4.7421,-4.7204,-4.7071,-4.7026,-4.7248,-4.7625,-4.8218,-4.8447,-4.9096,-4.9649,-4.9978,-5.04,-5.0733,-5.0891,-5.0891,-5.0891,-5.0891,-5.0891,-5.0891,-5.0891,-5.0855,-5.0855,-5.0364,-4.9855,-4.917,-4.8293,-4.7292,-4.6906,-4.652,-4.633,-4.6189,-4.6189,-4.6189,-4.6189,-4.6189,-4.6189,-4.6189,-4.6189,-4.6189,-4.6189,-4.6189,-4.6189,-4.6189,-4.6189,-4.6189,-4.6189,-4.6189,-4.6172,-4.6172,-4.6172,-4.609,-4.599,-4.5871,-4.5821,-4.5787,-4.5787,-4.5787,-4.5548,-4.4946,-4.5341,-4.5113,-4.4626,-4.521,-4.5339,-4.5113,-4.4884,-4.4851,-4.4761,-4.4777,-4.4815,-4.4665,-4.4608,-4.4721,-4.4853,-4.5435,-4.5604,-4.5848,-4.6223,-4.6505,-4.6636,-4.6636,-4.6448,-4.6674,-4.6674,-4.6373,-4.6805,-4.6505,-4.6148,-4.5697,-4.5172,-4.5021,-4.5341,-4.5838,-4.6419,-4.64,-4.6371,-4.6312,-4.6214,-4.6309,-4.632,-4.6462,-4.6597,-4.6936,-4.7423,-4.7813,-4.8184,-4.8519,-4.8818,-4.8855,-4.875,-4.8495,-4.8344,-4.8132,-4.7775,-4.7291,-4.6936,-4.6771,-4.6649,-4.659,-4.6837,-4.7085,-4.7727,-4.8604,-4.9422,-4.9994,-5.0382,-5.0646,-5.0891,-5.0891,-5.0891,-5.0891,-5.0891,-5.0891,-5.0891,-5.0873,-5.0803,-5.0487,-4.9785,-4.91,-4.817,-4.7327,-4.6958,-4.6677,-4.633,-4.6295,-4.6189,-4.6189,-4.6189,-4.6189,-4.6189,-4.6189,-4.6189,-4.6189,-4.6189,-4.6189,-4.6189,-4.6189,-4.6189,-4.6189,-4.6189,-4.6189,-4.6172,-4.6172,-4.6122,-4.6023,-4.5939,-4.5838,-4.5718,-4.5667,-4.5684,-4.5684,-4.5684,-4.5859,-4.56,-4.4987,-4.4588,-4.4315,-4.3675,-4.3862,-4.4707,-4.4738,-4.4659,-4.457,-4.4496,-4.4496,-4.4496,-4.4515,-4.4496,-4.459,-4.4702,-4.4796,-4.504,-4.5322,-4.5266,-4.5303,-4.5378,-4.5284,-4.5322,-4.5341,-4.5547,-4.5341,-4.5341,-4.5359,-4.4796,-4.4637,-4.4505,-4.4655,-4.4946,-4.519,-4.533,-4.5357,-4.5316,-4.517,-4.5078,-4.5239,-4.5491,-4.5537,-4.5949,-4.6542,-4.7299,-4.7707,-4.7949,-4.8328,-4.8476,-4.8458,-4.8035,-4.7733,-4.7309,-4.6863,-4.6525,-4.6447,-4.6398,-4.6403,-4.6499,-4.6927,-4.7583,-4.8237,-4.8958,-4.9818,-5.0312,-5.0487,-5.0627,-5.075,-5.0785,-5.0838,-5.0873,-5.0873,-5.0891,-5.0855,-5.0715,-5.0575,-4.9679,-4.8995,-4.8293,-4.7345,-4.6871,-4.6537,-4.6295,-4.6189,-4.6189,-4.6189,-4.6189,-4.6189,-4.6189,-4.6189,-4.6189,-4.6189,-4.6189,-4.6189,-4.6189,-4.6189,-4.6189,-4.6172,-4.6172,-4.6189,-4.6189,-4.6073,-4.6073,-4.6023,-4.5922,-4.5649,-4.5667,-4.5563,-4.5581,-4.5528,-4.5511,-4.5511,-4.5797,-4.5396,-4.4596,-4.3955,-4.3349,-4.2587,-4.2844,-4.3597,-4.3992,-4.424,-4.4496,-4.4496,-4.4496,-4.4496,-4.4496,-4.4496,-4.4515,-4.4552,-4.4571,-4.459,-4.4496,-4.4608,-4.4533,-4.4496,-4.4608,-4.4571,-4.4815,-4.5303,-4.4918,-4.4927,-4.5002,-4.4945,-4.4674,-4.4449,-4.4439,-4.4485,-4.44,-4.4427,-4.4408,-4.4255,-4.4165,-4.3974,-4.423,-4.4443,-4.4454,-4.4847,-4.5528,-4.6339,-4.6801,-4.7279,-4.7771,-4.8192,-4.8035,-4.7591,-4.7115,-4.6742,-4.6477,-4.6319,-4.627,-4.6239,-4.6397,-4.6783,-4.738,-4.8187,-4.8749,-4.9433,-5.0084,-5.0592,-5.0504,-5.0469,-5.0575,-5.0662,-5.075,-5.0838,-5.0873,-5.0891,-5.0733,-5.0539,-4.9802,-4.8854,-4.8135,-4.7485,-4.6906,-4.6467,-4.6189,-4.6189,-4.6189,-4.6189,-4.6189,-4.6189,-4.6189,-4.6189,-4.6189,-4.6189,-4.6189,-4.6189,-4.6189,-4.6189,-4.6189,-4.6189,-4.6172,-4.6122,-4.6073,-4.6023,-4.5972,-4.5922,-4.5871,-4.5477,-4.5266,-4.523,-4.5035,-4.4746,-4.4818,-4.5194,-4.5247,-4.5541,-4.4802,-4.4145,-4.3126,-4.2013,-4.1773,-4.1811,-4.1999,-4.2712,-4.352,-4.4083,-4.4233,-4.412,-4.3914,-4.3933,-4.4102,-4.4158,-4.4214,-4.4346,-4.4458,-4.4496,-4.4496,-4.4496,-4.4496,-4.4496,-4.4759,-4.4965,-4.5046,-4.5372,-4.5263,-4.5103,-4.5419,-4.4748,-4.4498,-4.4595,-4.4214,-4.4079,-4.4036,-4.3974,-4.391,-4.391,-4.3712,-4.3371,-4.3338,-4.3269,-4.3284,-4.3991,-4.4714,-4.5472,-4.643,-4.7161,-4.7656,-4.7421,-4.7071,-4.6602,-4.6447,-4.6221,-4.6221,-4.6189,-4.6189,-4.6677,-4.7274,-4.8117,-4.8749,-4.924,-4.9802,-5.0434,-5.0346,-5.0188,-4.996,-4.996,-5.0118,-5.0224,-5.0504,-5.068,-5.061,-5.0417,-4.9872,-4.8854,-4.8029,-4.7485,-4.6906,-4.6625,-4.6189,-4.6189,-4.6189,-4.6189,-4.6189,-4.6122,-4.6122,-4.6073,-4.6122,-4.6172,-4.6172,-4.6189,-4.6189,-4.6172,-4.6172,-4.6189,-4.609,-4.6023,-4.5972,-4.5922,-4.5871,-4.5821,-4.5718,-4.5563,-4.5159,-4.4763,-4.4507,-4.4209,-4.3731,-4.3922,-4.4541,-4.4906,-4.5883,-4.5531,-4.3797,-4.2303,-4.1086,-4.0422,-4.0553,-4.1079,-4.1304,-4.1867,-4.2479,-4.2637,-4.2693,-4.2806,-4.2817,-4.3069,-4.3501,-4.3613,-4.397,-4.4177,-4.4308,-4.4093,-4.4383,-4.4168,-4.4337,-4.4477,-4.4587,-4.4779,-4.5053,-4.4957,-4.5049,-4.5663,-4.5031,-4.4652,-4.473,-4.422,-4.3804,-4.3679,-4.344,-4.3406,-4.3474,-4.344,-4.3283,-4.3032,-4.2826,-4.2806,-4.3348,-4.3857,-4.4635,-4.5494,-4.602,-4.6355,-4.6501,-4.6411,-4.635,-4.6221,-4.6189,-4.6189,-4.6189,-4.6259,-4.6695,-4.738,-4.8135,-4.8872,-4.9539,-5.0206,-5.0399,-5.0083,-4.9714,-4.9434,-4.9346,-4.9504,-4.9697,-5.0066,-5.0382,-5.0188,-4.9978,-4.8977,-4.7924,-4.7362,-4.6803,-4.6523,-4.6259,-4.6189,-4.6189,-4.6189,-4.6189,-4.6172,-4.5988,-4.5938,-4.5768,-4.5837,-4.6105,-4.6172,-4.6172,-4.6189,-4.6122,-4.6073,-4.6073,-4.5972,-4.5871,-4.5821,-4.577,-4.5787,-4.5736,-4.5389,-4.5052,-4.478,-4.4356,-4.3939,-4.3571,-4.3075,-4.3213,-4.3764,-4.4186,-4.5008,-4.4997,-4.3369,-4.1927,-4.0773,-3.9934,-3.984,-4.0196,-4.0272,-4.0497,-4.106,-4.1623,-4.1999,-4.198,-4.1991,-4.213,-4.2675,-4.2712,-4.29,-4.3257,-4.3492,-4.3267,-4.3361,-4.3465,-4.3483,-4.3613,-4.4271,-4.4589,-4.4857,-4.4601,-4.473,-4.5407,-4.4931,-4.447,-4.4457,-4.3811,-4.3468,-4.3212,-4.2885,-4.2829,-4.2904,-4.2829,-4.2792,-4.2541,-4.2382,-4.2342,-4.2548,-4.2995,-4.3602,-4.4364,-4.5,-4.6006,-4.6312,-4.6381,-4.6221,-4.6189,-4.6189,-4.6189,-4.6189,-4.6312,-4.6748,-4.7608,-4.817,-4.8907,-4.9978,-5.0522,-5.0101,-4.9697,-4.8696,-4.831,-4.8573,-4.8749,-4.8854,-4.9118,-4.924,-4.9188,-4.875,-4.7997,-4.7157,-4.6531,-4.6217,-4.6197,-4.6023,-4.609,-4.6023,-4.5615,-4.5666,-4.5425,-4.5355,-4.5459,-4.5407,-4.5477,-4.5649,-4.6055,-4.6189,-4.614,-4.609,-4.6023,-4.5871,-4.5821,-4.5667,-4.5615,-4.5581,-4.5336,-4.5106,-4.4763,-4.4412,-4.4071,-4.3722,-4.3229,-4.2863,-4.2553,-4.274,-4.2986,-4.329,-4.3675,-4.3867,-4.2743,-4.169,-4.0766,-3.9915,-3.9639,-3.9658,-3.9639,-3.9658,-3.9858,-4.1098,-4.1642,-4.1698,-4.1698,-4.1773,-4.183,-4.1867,-4.1942,-4.216,-4.2198,-4.2358,-4.2267,-4.2043,-4.2225,-4.2686,-4.3275,-4.4272,-4.507,-4.4574,-4.4367,-4.4845,-4.4433,-4.3728,-4.3351,-4.3258,-4.333,-4.284,-4.2559,-4.24,-4.2279,-4.2175,-4.2198,-4.205,-4.1831,-4.1604,-4.185,-4.2148,-4.2605,-4.3458,-4.4378,-4.5388,-4.6088,-4.6227,-4.627,-4.6189,-4.6189,-4.6189,-4.6189,-4.6207,-4.7134,-4.8012,-4.8415,-4.9118,-5.0171,-5.0153,-4.9714,-4.9047,-4.8047,-4.7538,-4.7801,-4.7978,-4.8066,-4.8118,-4.8188,-4.8172,-4.7647,-4.7124,-4.6498,-4.589,-4.5855,-4.5871,-4.5752,-4.5871,-4.5563,-4.5144,-4.4804,-4.4439,-4.4271,-4.4478,-4.4589,-4.4715,-4.4932,-4.5355,-4.5717,-4.5717,-4.5442,-4.558,-4.5424,-4.5494,-4.5459,-4.5283,-4.4944,-4.4541,-4.4299,-4.4186,-4.3706,-4.3229,-4.2818,-4.2569,-4.2317,-4.2077,-4.2077,-4.2269,-4.238,-4.2998,-4.2699,-4.1718,-4.1142,-4.0691,-3.9934,-3.962,-3.962,-3.962,-3.962,-3.9714,-3.9765,-4.0046,-4.0084,-4.0046,-4.0328,-4.1004,-4.1022,-4.1529,-4.1935,-4.1627,-4.175,-4.1679,-4.1229,-4.1148,-4.1353,-4.1687,-4.2246,-4.3429,-4.3746,-4.4112,-4.4467,-4.4592,-4.4091,-4.3671,-4.3408,-4.2803,-4.2435,-4.2127,-4.1856,-4.1941,-4.1899,-4.1924,-4.1813,-4.1631,-4.1604,-4.1674,-4.1727,-4.2219,-4.3044,-4.4079,-4.4947,-4.5475,-4.5879,-4.6028,-4.6049,-4.6067,-4.6189,-4.6189,-4.6189,-4.7014,-4.8099,-4.8538,-4.9048,-4.9574,-4.9398,-4.8978,-4.8574,-4.7697,-4.6996,-4.7084,-4.7278,-4.7367,-4.7316,-4.7351,-4.7317,-4.6986,-4.6533,-4.5995,-4.5736,-4.5736,-4.5494,-4.5196,-4.5072,-4.4804,-4.4401,-4.4158,-4.3797,-4.3623,-4.3681,-4.3723,-4.3896,-4.4068,-4.4181,-4.4311,-4.455,-4.4495,-4.4766,-4.491,-4.4855,-4.4763,-4.4725,-4.4373,-4.3898,-4.3898,-4.3898,-4.329,-4.2506,-4.2333,-4.2077,-4.1835,-4.172,-4.1654,-4.172,-4.1964]}]]